GFSCGP_850_thetae_000.txt.gz
Theta_e
326 328 329 325 326 323 320 319 321 317 315 315 314 314 315 316 316 314 315 317 317 317 318 318 319 319 319 319 319 318 319 318 319 320 323 326 327 328 328 329 329 330 330 330
327 327 326 322 323 325 320 320 318 317 316 315 315 315 314 313 314 314 314 317 317 317 317 317 317 317 317 317 318 318 318 319 320 322 325 326 327 328 328 327 326 324 323 323
326 327 325 325 322 323 320 320 321 321 316 315 315 316 315 313 313 313 315 317 317 317 317 317 317 317 317 317 317 317 317 317 317 318 322 326 327 324 322 318 316 316 317 317
326 324 326 326 326 324 327 317 319 318 318 319 315 319 315 313 313 312 315 317 318 317 316 317 316 316 316 316 315 315 315 315 315 315 316 316 316 315 314 314 314 314 313 313
326 325 327 328 327 323 327 318 318 318 316 315 316 317 315 312 315 313 312 316 317 317 317 316 316 316 315 315 315 315 315 314 314 314 314 314 314 314 314 313 312 311 310 309
321 323 324 326 324 321 318 317 315 313 313 318 316 317 316 314 312 313 312 314 317 316 316 316 315 315 315 315 315 315 315 314 314 313 313 312 311 310 310 309 309 309 308 308
319 324 318 321 319 315 317 319 323 322 320 320 314 314 316 314 311 312 312 314 316 316 316 316 315 315 315 315 315 315 315 314 313 311 309 309 309 308 308 308 308 308 308 308
323 326 316 313 322 320 318 317 318 324 321 319 313 317 316 313 311 312 316 316 316 316 316 316 315 315 315 315 315 315 315 314 313 311 308 307 307 307 307 307 307 306 305 304
323 323 312 312 312 319 315 318 315 317 315 319 318 315 314 313 311 310 313 314 316 315 315 315 315 315 315 315 315 315 314 314 312 308 306 307 307 307 308 308 307 305 301 299
315 315 314 312 312 311 313 312 318 315 324 324 318 315 317 315 315 311 309 313 315 315 315 315 315 315 314 314 314 314 313 312 309 306 307 307 308 308 307 305 302 298 295 293
312 313 316 312 313 313 312 313 311 314 314 319 318 317 311 313 313 311 310 313 315 315 315 315 314 314 314 314 313 313 311 309 306 306 307 308 307 305 301 298 295 293 293 293
316 312 315 315 314 311 311 311 312 317 316 311 312 316 310 309 309 312 312 313 315 316 316 315 314 313 313 313 312 310 308 306 306 307 307 307 304 301 296 293 293 292 293 292
316 316 319 321 318 315 315 312 310 310 310 311 315 316 310 307 310 313 315 316 316 315 315 314 313 312 312 311 310 308 306 305 307 307 307 304 300 295 292 292 292 292 292 292
318 316 316 321 319 315 317 314 311 313 314 313 312 315 314 311 312 313 314 315 316 315 314 313 312 312 311 310 308 306 304 306 306 306 303 297 294 292 291 291 291 291 291 291
316 318 315 312 315 316 315 315 311 313 314 317 316 313 314 312 312 311 312 313 312 313 313 313 312 311 310 308 305 304 305 306 306 302 297 293 292 291 290 290 290 290 290 290
313 314 312 311 311 311 315 315 311 313 312 313 313 314 310 311 312 314 315 315 313 313 312 312 311 310 309 306 304 305 305 304 303 298 296 292 291 290 290 290 290 290 289 290
311 310 312 315 312 312 312 310 313 312 311 312 314 310 309 312 312 313 314 315 315 314 313 311 310 309 307 303 305 305 304 303 301 300 295 291 290 290 289 289 289 289 289 289
309 309 308 309 312 311 311 311 308 310 310 310 311 311 311 312 312 312 312 313 314 313 312 310 309 307 304 304 305 304 302 302 299 295 291 290 289 289 289 288 289 289 288 287
307 309 311 313 311 312 315 310 312 314 314 312 311 310 311 311 311 311 313 312 312 312 311 309 308 305 304 304 302 302 301 298 293 290 289 289 288 288 288 288 288 287 287 286
308 308 311 308 314 316 314 312 311 312 316 310 310 310 311 310 310 308 310 311 311 310 308 307 306 304 303 302 303 301 299 295 290 289 289 288 288 287 288 287 287 286 286 285
310 309 312 314 315 313 311 311 312 316 314 310 310 309 309 307 308 309 308 309 308 307 306 305 304 303 302 302 301 300 293 290 289 288 288 288 287 287 287 287 286 286 285 284
310 310 311 310 314 316 310 312 314 309 309 309 309 309 309 308 308 308 308 308 307 307 306 304 303 302 303 302 299 291 288 288 288 288 287 287 287 287 286 286 286 285 284 284
313 310 311 311 312 309 310 311 311 310 310 309 309 309 309 308 308 307 306 306 307 306 305 303 302 302 300 296 292 288 288 288 287 287 287 287 287 287 286 285 285 284 284 283
309 308 311 311 310 308 309 310 310 310 310 309 309 309 308 308 308 307 305 305 305 305 303 301 300 298 295 291 288 287 287 287 287 287 286 286 286 286 285 285 284 283 282 282
307 308 309 309 307 308 308 309 310 310 309 309 308 308 307 307 307 306 305 304 304 303 302 301 299 295 292 289 288 287 287 286 286 286 286 286 286 285 285 284 283 282 282 282
306 308 309 310 309 308 308 309 309 309 308 308 307 306 305 305 305 304 304 303 302 301 299 298 296 295 289 288 287 287 286 286 285 285 286 285 285 284 283 282 282 281 281 282

GFSCGP_850_thetae_003.txt.gz
Theta_e
320 326 329 327 326 324 320 323 324 321 316 316 317 315 317 316 316 314 314 316 317 318 317 318 318 318 319 319 318 318 318 319 320 321 323 325 326 327 328 328 327 326 323 321
322 327 326 323 324 322 320 322 321 319 316 316 318 318 318 315 315 314 314 316 316 317 317 316 317 317 317 317 317 317 316 317 318 319 324 326 327 326 324 321 319 316 315 314
322 325 324 325 325 327 322 322 321 323 318 315 315 319 316 314 312 312 314 317 316 316 316 316 317 317 316 316 316 316 315 315 315 317 320 322 321 318 315 313 313 313 313 312
322 323 325 326 325 325 328 319 321 320 322 325 316 323 317 315 313 312 314 316 316 316 316 316 316 315 315 315 315 315 314 314 314 314 314 314 314 314 313 313 312 309 308 308
323 324 325 327 326 323 326 321 322 320 319 315 316 320 318 311 313 313 312 315 316 316 316 316 315 315 315 315 314 314 314 313 313 313 312 312 312 311 309 309 308 309 309 309
322 322 326 326 323 323 314 318 318 314 315 320 317 319 320 316 314 313 312 314 316 316 316 315 315 315 315 315 314 314 314 313 312 311 310 310 309 309 308 309 309 310 310 309
321 325 322 324 321 317 318 324 328 325 321 323 313 316 319 314 311 314 314 314 316 316 316 315 315 315 315 315 315 314 314 313 312 311 309 308 308 308 309 309 310 310 310 308
324 327 320 320 322 321 323 324 325 327 323 320 312 319 319 312 312 312 314 315 316 316 315 315 315 315 315 315 315 314 314 314 312 309 308 308 308 309 310 310 309 307 303 298
320 323 314 317 315 320 318 324 317 317 314 320 320 317 316 313 312 309 311 314 316 316 315 315 314 314 314 314 314 314 314 313 310 308 307 308 309 310 309 307 305 301 296 295
318 317 315 311 314 311 318 315 322 317 324 324 320 316 321 316 314 310 310 312 315 315 315 314 314 314 314 313 313 313 313 311 309 307 308 309 309 308 306 303 299 295 293 293
311 314 315 311 314 313 315 318 315 315 316 322 321 320 312 313 311 313 310 313 315 315 314 314 313 313 313 313 312 312 311 308 306 307 308 308 307 305 301 297 294 293 292 292
312 313 315 314 313 312 312 315 315 318 316 312 314 319 311 309 309 311 310 313 315 315 314 314 313 313 312 312 311 310 308 306 306 307 307 306 304 301 297 294 292 292 291 291
315 315 319 320 317 314 314 311 311 311 311 313 318 319 310 309 311 311 312 313 314 315 314 313 312 312 311 311 309 308 306 305 305 307 306 304 301 297 294 293 291 291 291 291
316 315 317 321 318 314 315 312 310 314 315 313 313 315 313 312 312 311 313 315 315 315 314 313 312 311 310 309 308 306 304 305 306 306 304 302 300 296 293 291 290 290 290 290
317 318 315 312 315 315 315 315 311 313 315 318 316 313 313 311 311 311 311 312 312 313 312 312 312 311 310 309 306 304 304 305 305 305 302 299 296 293 291 290 290 290 290 290
313 316 312 312 312 313 316 314 313 312 311 312 312 313 310 310 310 313 313 313 313 312 312 312 311 311 309 307 305 304 304 305 305 302 298 296 293 290 290 289 289 289 289 290
314 311 313 316 311 311 314 311 312 313 310 313 315 315 308 311 311 312 312 312 312 312 312 312 312 310 308 306 303 303 304 305 302 298 295 293 290 289 289 289 289 289 290 290
312 312 310 310 311 313 313 310 310 312 309 308 309 307 310 311 311 311 312 312 312 312 312 311 310 309 307 304 303 303 304 303 300 296 293 290 289 289 288 288 289 289 289 289
307 310 312 313 311 311 314 309 310 312 312 309 310 309 309 310 310 310 311 312 311 311 311 310 309 308 305 303 302 302 303 300 297 293 290 289 288 288 288 288 289 289 288 288
308 308 314 309 313 314 313 311 311 311 315 310 309 309 308 309 311 309 309 309 310 310 310 309 307 306 303 301 301 302 300 298 293 290 289 288 287 287 288 288 288 288 287 287
311 309 312 314 314 313 311 311 311 316 314 309 310 310 309 308 308 308 307 307 308 308 308 307 305 303 301 301 302 300 296 294 290 289 288 287 287 287 288 288 288 287 286 286
311 311 311 311 314 315 310 311 313 310 308 309 309 309 309 308 307 307 307 306 307 307 306 305 302 301 301 301 300 296 292 290 289 288 287 287 287 287 287 287 287 286 285 284
312 309 311 311 311 308 309 310 310 311 309 309 309 308 308 307 307 307 306 305 305 305 304 302 301 300 300 299 295 292 291 288 287 287 287 287 287 287 287 287 286 285 284 283
308 307 310 310 309 307 308 308 309 310 310 309 308 308 308 307 307 307 306 304 304 304 303 302 300 299 299 296 292 291 288 287 287 287 286 286 287 287 287 286 284 283 282 281
307 308 308 307 307 307 308 309 309 309 309 308 308 308 307 307 306 306 305 304 303 303 302 301 300 299 295 294 289 287 287 287 287 286 286 287 287 286 285 284 282 281 281 282
305 307 310 310 308 308 308 308 309 309 308 308 307 306 305 304 303 303 303 303 303 302 301 300 298 295 294 288 287 287 286 286 286 286 287 287 285 284 283 282 281 281 281 281

GFSCGP_850_thetae_006.txt.gz
Theta_e
316 318 324 326 327 327 325 328 329 327 324 323 326 327 324 324 322 321 320 320 320 319 317 318 319 319 319 319 318 319 320 321 322 325 326 326 327 327 326 325 322 319 315 313
317 320 322 325 326 327 327 327 327 326 322 322 326 328 327 326 322 321 320 320 319 318 317 316 317 317 316 316 316 316 316 317 320 324 325 326 325 323 321 316 313 312 312 310
317 320 322 326 327 327 327 326 326 327 324 322 323 328 327 319 316 315 317 320 319 318 317 316 316 316 315 315 315 315 315 315 316 318 320 319 318 315 313 313 312 309 308 309
315 318 324 326 327 327 328 326 326 326 329 332 323 331 327 324 320 317 318 318 318 317 317 316 316 315 315 315 315 315 314 314 314 314 314 314 313 312 310 309 308 309 309 310
316 321 321 327 327 326 327 325 327 327 328 328 328 327 327 319 320 319 319 318 318 318 317 316 315 315 314 314 314 314 314 313 313 312 311 311 310 309 308 309 309 310 310 308
316 320 320 325 324 325 322 324 323 322 325 331 328 326 327 323 320 319 319 318 318 317 316 315 315 315 314 314 314 314 314 313 311 311 310 309 308 309 309 310 311 308 306 305
314 314 324 325 326 320 325 327 331 333 330 331 319 322 325 321 317 319 319 319 318 317 316 315 315 314 314 314 314 314 313 313 311 310 309 309 309 310 311 309 308 307 306 303
318 326 326 325 325 323 325 327 328 330 330 328 318 324 323 318 316 316 318 319 318 317 316 316 315 314 315 314 314 313 312 312 310 309 309 309 310 310 309 309 307 305 301 297
319 321 321 324 321 323 324 327 322 323 321 325 325 324 322 318 317 316 317 318 318 317 316 315 315 314 314 314 313 313 312 310 309 308 308 309 310 309 309 306 304 301 297 294
317 322 320 317 322 316 324 324 325 323 328 328 325 324 325 321 319 316 317 317 318 317 315 315 314 314 314 313 313 312 311 309 308 307 308 309 309 307 305 303 300 297 294 292
319 321 317 320 321 324 324 324 325 323 322 327 326 325 320 319 318 318 317 317 318 316 315 314 313 313 313 313 312 311 309 308 306 306 307 308 307 304 302 300 297 295 293 292
319 320 323 320 315 319 323 324 323 328 323 321 322 324 317 317 316 315 316 316 317 316 315 314 313 313 313 312 311 310 308 306 305 306 307 305 304 302 300 297 296 293 291 291
319 321 323 322 319 315 321 321 325 322 318 322 325 324 315 317 318 316 316 316 316 315 314 313 312 312 312 311 310 309 307 305 304 306 305 304 302 301 299 295 292 291 290 290
316 320 321 323 323 321 322 320 323 324 325 323 322 323 318 318 319 316 316 316 315 315 314 313 311 309 309 309 309 307 305 304 304 305 304 301 300 299 295 292 290 289 289 289
320 321 321 319 319 320 320 321 319 321 323 323 323 321 321 319 319 318 317 316 315 314 313 312 311 309 308 308 307 306 304 303 304 304 302 299 298 295 293 290 289 289 289 289
319 321 316 318 317 319 319 319 321 321 322 321 321 321 318 316 316 315 315 314 314 314 312 312 311 309 307 307 307 305 303 303 304 303 300 299 296 293 290 289 288 288 289 289
320 320 320 321 315 316 320 319 319 319 319 319 321 321 316 315 315 315 315 314 314 313 312 312 310 308 307 308 306 303 302 303 303 301 298 296 293 290 289 288 288 288 289 289
321 318 317 318 314 322 320 313 318 319 319 318 318 315 316 316 315 313 313 313 312 312 312 312 311 310 309 307 305 303 302 303 302 299 296 294 289 288 288 288 288 289 289 289
319 319 321 319 321 318 315 313 314 317 320 315 316 314 314 312 312 311 310 311 311 311 311 310 310 310 309 306 303 301 302 302 299 297 294 289 288 287 287 288 288 289 288 288
313 318 321 316 319 321 316 313 312 314 317 313 313 314 313 312 316 315 309 309 309 309 309 309 309 308 306 303 301 300 301 299 296 294 290 288 287 287 287 288 288 288 287 286
315 315 321 320 323 318 314 313 313 318 319 312 313 312 312 314 313 309 308 307 307 307 307 307 307 306 304 301 300 301 299 296 294 291 288 287 287 287 287 287 287 286 285 284
319 318 318 319 322 323 312 311 317 314 312 311 311 311 310 309 308 307 306 306 306 306 306 306 305 304 302 300 300 299 296 293 291 289 287 287 287 287 287 287 286 285 284 284
316 317 318 317 318 311 309 311 310 311 311 309 309 309 308 307 307 306 306 305 304 304 305 305 304 302 301 300 299 296 293 290 289 288 287 287 286 287 287 286 285 284 283 283
310 309 314 313 311 310 309 308 309 309 310 310 309 308 308 307 307 306 306 305 304 303 304 304 303 301 300 299 297 293 291 289 288 287 287 286 287 287 286 284 283 283 283 283
312 312 313 311 309 308 308 308 309 309 309 308 308 308 307 307 307 306 306 305 305 303 303 302 301 299 298 296 292 291 288 288 287 286 286 287 286 285 284 284 283 282 282 282
310 313 316 317 312 312 310 308 309 309 308 308 308 307 306 305 304 304 304 303 303 303 302 301 299 298 295 292 291 288 288 287 286 285 286 286 286 284 284 282 282 282 282 282

GFSCGP_850_thetae_009.txt.gz
Theta_e
314 318 320 320 322 324 327 329 329 329 327 328 328 327 326 325 325 325 323 323 323 322 320 320 321 321 322 325 328 328 329 330 332 332 329 325 322 322 324 322 316 312 312 310
316 318 317 318 321 324 327 328 329 327 326 326 326 327 327 327 327 327 323 323 323 321 320 319 319 319 319 320 320 323 327 330 327 325 324 322 321 319 315 313 312 309 309 310
316 317 316 317 318 326 328 329 328 328 327 325 326 328 328 327 326 323 322 323 323 320 319 319 319 318 318 316 316 316 316 318 320 321 320 318 315 314 312 309 309 310 310 310
314 314 317 318 320 324 329 327 326 327 328 330 327 329 327 327 322 320 320 322 322 320 319 319 318 318 317 315 315 315 315 314 315 317 317 316 314 311 309 309 310 311 310 308
312 315 317 319 322 323 328 327 326 327 329 331 330 331 328 327 325 323 322 322 321 320 319 319 318 317 315 314 314 314 314 313 313 313 312 311 310 309 310 311 310 308 307 307
312 315 317 318 321 324 326 327 328 328 328 330 329 330 328 327 325 324 322 321 321 319 319 318 317 316 314 314 314 313 313 312 312 311 310 310 310 310 311 310 309 308 306 305
314 312 314 319 321 322 327 328 333 331 331 329 326 329 328 321 321 322 322 321 320 319 318 317 317 316 315 314 313 313 312 312 311 310 310 310 311 311 311 310 310 308 306 305
319 319 315 315 323 324 327 328 328 330 329 328 323 327 326 322 320 320 321 321 320 319 318 317 317 317 316 314 313 313 312 311 310 310 310 310 310 310 310 310 308 306 305 302
318 320 317 318 324 323 325 330 323 327 326 328 326 325 322 321 320 319 320 321 320 319 319 318 317 317 315 314 313 313 312 310 309 309 309 309 309 309 309 307 306 304 302 299
316 320 316 322 323 321 325 325 328 326 328 329 327 326 326 322 322 320 320 321 320 320 319 318 317 316 315 313 313 313 311 310 308 308 308 308 308 307 306 306 304 302 299 297
316 315 317 319 325 324 326 327 327 326 326 328 329 326 324 321 321 321 320 320 320 320 318 317 317 316 313 312 313 312 311 309 307 306 307 307 307 306 305 304 301 299 296 294
317 318 319 321 317 323 325 326 326 328 326 325 325 325 320 320 320 319 319 319 320 319 318 317 316 315 311 311 311 311 309 307 306 305 306 306 306 305 303 301 299 295 293 292
320 321 326 325 320 321 324 324 326 326 325 326 326 326 319 320 320 319 319 319 320 319 318 316 316 314 311 309 309 308 306 305 305 304 305 305 304 303 300 298 295 293 291 290
319 321 324 325 324 324 326 325 325 325 326 325 326 324 320 321 321 319 318 319 319 318 317 316 315 313 311 309 306 305 304 304 304 304 304 304 302 301 299 295 293 291 290 289
320 323 321 321 322 323 324 325 324 326 326 326 325 324 323 321 321 320 319 319 319 318 317 316 315 313 311 308 305 302 302 304 303 303 303 303 301 299 296 292 290 289 289 289
319 323 321 322 321 322 323 323 324 324 325 325 324 325 323 322 320 320 319 318 318 317 317 316 315 314 310 307 303 301 302 303 302 303 303 302 299 296 292 290 289 289 289 290
320 323 322 323 320 321 323 322 322 322 322 323 324 324 323 318 318 319 318 318 318 317 316 315 314 313 310 306 302 301 301 302 302 303 301 299 296 293 290 289 289 289 289 288
321 322 321 323 319 324 321 317 320 321 322 322 322 323 319 319 317 317 317 316 316 315 314 314 313 311 307 304 301 299 301 301 302 301 298 296 293 291 289 288 288 288 288 288
321 321 323 324 325 324 323 316 318 321 321 320 320 320 318 317 315 313 313 314 313 312 312 313 311 308 305 304 302 302 300 301 301 298 296 293 291 289 288 288 288 288 288 288
319 321 324 323 322 325 318 316 314 318 321 320 321 319 317 314 318 316 311 310 310 310 310 310 308 307 306 302 302 300 299 299 299 296 294 291 290 288 288 288 288 288 288 287
320 321 323 323 325 323 317 315 314 318 321 314 316 317 315 316 316 311 309 308 307 307 307 307 307 305 301 302 301 296 299 299 296 294 293 290 288 288 287 288 288 288 287 286
320 319 322 321 324 326 315 314 318 317 314 314 315 314 314 311 310 309 307 306 306 305 305 306 304 302 301 301 299 299 299 297 295 294 290 288 288 287 287 288 288 287 285 285
323 321 321 321 322 314 314 314 313 314 314 314 313 312 311 309 309 307 306 305 304 304 304 304 302 301 300 299 299 299 299 296 295 290 288 287 287 287 288 288 286 285 284 284
313 312 318 316 314 313 312 311 312 314 313 312 310 309 309 309 308 307 306 305 304 303 303 303 302 300 299 300 299 299 297 296 290 288 287 286 287 289 288 286 285 284 284 283
314 313 316 315 312 311 310 311 310 310 309 309 308 308 308 307 307 306 306 305 304 304 303 302 301 298 297 300 299 297 295 290 288 287 286 287 288 287 286 285 284 284 283 283
312 316 317 319 314 315 312 310 309 309 308 308 308 307 306 306 305 305 304 303 303 303 303 302 300 300 299 299 296 295 289 288 287 287 287 288 287 286 285 284 284 283 283 283

GFSCGP_850_thetae_012.txt.gz
Theta_e
313 316 318 318 318 319 322 324 328 325 327 326 327 326 327 325 325 325 325 323 323 322 321 321 322 324 328 329 328 329 329 330 331 332 332 332 329 325 324 320 313 311 309 310
314 315 314 315 317 319 320 324 327 326 326 326 327 327 326 324 324 324 325 324 323 321 320 320 321 322 325 328 330 331 332 332 332 330 327 323 323 319 314 311 310 310 310 311
314 314 314 314 316 318 319 322 326 328 326 326 325 326 324 323 324 325 326 325 323 321 320 319 319 319 321 322 323 326 327 327 327 324 323 320 314 313 310 309 310 311 311 310
313 313 313 315 315 317 319 321 324 327 330 331 324 326 324 324 324 324 323 323 322 320 319 319 319 318 317 317 317 318 319 319 318 317 316 314 312 310 309 310 311 310 310 309
313 313 313 315 317 316 319 321 322 327 330 329 329 327 325 324 325 320 317 321 321 320 319 319 318 318 316 316 315 315 315 316 317 317 315 311 310 310 311 311 310 309 309 310
312 312 313 313 314 315 317 319 323 327 329 333 331 327 326 325 323 319 318 322 321 320 319 319 318 317 316 315 314 313 313 313 312 312 311 310 311 311 310 310 310 309 308 308
313 312 312 311 317 315 319 323 329 331 333 333 325 329 326 320 320 321 319 321 320 319 319 318 318 317 315 314 313 312 312 311 311 310 310 311 311 310 310 310 310 309 308 307
314 313 314 311 315 319 321 322 325 332 333 326 324 327 325 319 319 321 321 321 320 319 319 318 317 316 314 313 312 311 311 311 310 310 310 310 310 310 310 310 308 308 307 306
316 315 313 316 313 319 319 318 319 328 324 325 323 323 319 318 318 318 320 320 320 319 318 317 317 316 315 313 312 311 311 310 310 310 310 310 309 309 309 308 308 307 306 303
312 318 317 316 318 320 321 322 327 326 328 328 325 324 322 319 317 317 319 319 320 319 318 317 317 317 315 313 312 311 311 310 309 309 309 309 308 308 308 307 306 305 303 300
310 312 317 315 323 322 323 326 327 327 327 327 326 324 319 318 318 316 317 320 320 319 318 318 317 317 315 313 312 311 311 310 309 308 308 308 307 307 307 306 305 303 300 296
311 314 319 318 317 321 323 325 326 327 327 325 323 321 317 317 317 317 317 320 320 319 318 318 317 316 314 313 311 311 310 309 308 307 307 306 306 306 305 304 303 300 297 294
311 316 321 320 322 323 326 326 325 324 324 326 323 320 316 316 316 319 318 320 320 320 318 318 317 315 313 311 310 309 309 308 307 305 305 305 305 304 303 302 300 297 294 292
319 321 318 326 325 323 326 325 324 325 326 325 323 318 318 318 317 317 318 320 320 319 318 317 316 315 312 310 309 308 307 306 306 304 304 304 304 303 302 301 298 295 292 290
314 323 322 323 324 324 325 325 324 325 325 324 323 320 317 317 316 316 318 320 320 319 318 317 316 315 312 310 308 306 304 304 304 303 303 303 303 302 301 299 295 292 290 290
315 321 322 321 320 322 325 324 324 323 323 322 323 323 319 317 319 318 318 319 319 319 318 317 315 314 312 309 307 305 303 303 302 301 302 303 302 301 299 295 292 290 289 289
318 321 322 320 320 321 321 321 323 323 322 323 325 322 319 316 317 317 318 319 319 318 317 316 315 314 312 309 307 304 303 302 300 301 302 302 301 299 296 292 289 289 289 289
319 321 321 320 319 322 320 316 318 320 320 319 319 320 319 316 317 317 318 318 318 317 317 316 315 314 311 308 305 303 302 300 300 301 301 300 299 296 292 290 289 289 289 290
318 321 323 323 323 322 322 316 317 319 320 318 319 318 315 315 315 313 315 316 315 315 314 314 314 312 310 307 304 302 300 299 300 301 299 297 294 292 290 289 289 289 290 289
320 319 323 318 322 324 317 315 314 317 319 314 316 317 314 314 314 311 312 313 312 312 313 313 311 310 307 304 303 301 300 299 300 299 296 295 292 290 289 289 289 290 289 287
321 321 323 322 322 320 316 313 314 319 319 313 315 317 314 312 312 311 310 309 309 309 309 309 308 307 305 303 301 299 299 299 298 296 295 293 289 289 288 289 290 289 287 287
321 322 322 321 323 323 314 313 317 315 314 315 315 314 311 310 309 309 308 307 306 305 306 306 305 304 302 301 299 299 299 298 297 295 293 289 289 288 289 289 288 288 287 286
321 319 321 320 320 315 314 313 314 315 314 314 313 312 311 309 308 306 305 305 304 304 304 304 304 303 301 300 299 299 299 297 295 292 289 289 288 289 289 288 288 287 286 285
317 314 315 315 313 312 312 312 314 314 313 312 312 310 310 308 307 305 304 304 303 303 303 302 302 301 301 299 299 299 297 295 293 289 288 288 289 289 289 289 287 286 285 284
312 311 313 313 311 311 312 312 313 312 312 310 309 309 308 307 306 305 305 304 303 303 302 302 301 300 299 299 298 297 295 294 289 288 288 288 289 289 289 288 286 284 284 284
311 312 314 315 313 313 311 311 311 310 309 309 308 308 307 306 306 305 305 304 303 303 302 301 299 298 298 298 298 295 294 289 288 288 287 288 289 289 288 286 285 284 283 283

GFSCGP_850_thetae_015.txt.gz
Theta_e
313 313 314 314 316 317 316 318 322 323 322 324 325 325 324 323 324 322 321 321 322 322 321 321 321 325 326 326 327 328 326 329 333 335 335 333 333 331 330 327 316 310 310 310
311 314 312 313 314 317 317 318 319 319 322 324 325 325 324 323 324 323 324 323 322 321 321 321 323 328 328 329 329 329 330 332 333 334 333 332 331 327 320 312 310 310 311 310
312 313 312 313 314 316 317 318 318 319 321 323 324 326 324 323 324 324 325 324 322 322 320 321 322 326 329 330 331 331 331 331 331 331 330 325 321 315 311 310 310 311 310 309
311 310 311 313 314 314 316 315 317 318 321 327 325 331 324 324 322 320 321 320 320 320 320 320 320 322 326 330 330 330 331 331 329 324 322 319 315 311 310 311 311 310 310 310
311 312 312 312 313 313 314 314 316 317 320 323 326 329 324 321 324 322 318 318 320 320 320 319 319 319 320 322 326 326 324 323 320 317 314 313 311 310 311 310 310 310 310 309
311 311 312 312 311 312 314 315 316 318 321 326 325 326 324 322 322 321 316 318 318 319 319 319 318 317 317 318 318 318 317 317 317 316 314 310 311 311 310 310 310 309 308 308
313 312 311 312 314 313 313 315 318 321 323 324 323 323 325 319 319 321 316 317 318 319 319 318 318 317 316 316 316 316 316 316 315 313 310 310 311 310 310 309 308 307 308 308
310 307 311 311 312 313 314 314 319 319 323 325 327 330 327 322 317 320 317 318 318 318 318 318 318 316 315 314 313 313 313 312 311 310 310 310 310 310 309 308 308 308 308 307
310 312 312 311 311 313 314 315 314 321 324 326 329 323 319 315 316 317 317 317 317 318 318 318 318 316 314 313 312 312 311 311 310 310 310 310 309 309 308 308 308 307 306 305
311 313 311 311 311 312 315 315 318 318 328 330 325 320 320 317 317 317 317 317 317 317 318 318 317 315 313 312 312 311 310 310 310 309 309 309 308 308 307 307 307 306 305 303
311 312 313 309 316 314 316 320 318 320 322 329 328 323 316 316 316 318 317 317 317 318 318 317 316 315 314 312 312 311 310 309 309 308 308 307 307 307 307 307 306 305 304 301
311 313 315 314 315 316 315 319 319 322 326 325 319 318 314 314 313 316 317 317 317 318 317 317 317 316 314 313 312 311 310 309 307 307 306 306 306 306 306 306 305 304 301 296
311 314 315 318 319 320 319 321 320 321 322 326 320 318 315 312 313 314 316 317 317 318 317 317 317 316 315 313 312 311 310 308 307 306 305 305 305 305 305 304 304 301 297 294
310 315 318 323 324 323 323 320 321 321 324 324 318 317 317 315 315 312 316 318 318 318 317 317 317 316 315 313 312 310 309 307 306 304 304 303 303 304 304 303 301 298 294 291
310 316 316 315 316 321 323 323 319 319 324 324 317 317 316 315 314 313 317 317 317 317 317 317 317 316 315 313 311 309 307 306 305 303 302 302 303 303 303 301 300 295 291 290
312 317 319 324 322 323 325 324 324 323 324 323 322 323 314 314 315 314 317 318 317 316 316 317 316 316 314 313 310 308 306 304 303 301 301 301 302 302 301 300 296 292 290 289
315 318 323 320 324 323 325 324 323 322 322 321 323 321 314 314 314 314 316 318 318 317 317 317 316 315 315 312 310 307 305 303 302 300 300 302 301 300 299 295 291 290 289 290
315 318 321 320 316 320 317 315 320 322 321 320 321 318 317 312 312 315 317 319 319 319 318 317 316 315 313 311 308 306 303 302 301 300 301 301 299 298 296 292 289 288 290 290
316 318 322 321 320 318 318 315 316 318 319 317 318 316 312 312 314 312 315 318 318 318 317 316 315 314 312 310 307 305 303 301 299 300 300 299 298 296 292 289 288 290 290 290
317 317 320 312 316 322 317 314 313 314 318 313 314 314 313 313 314 309 313 315 316 316 316 315 314 313 311 307 306 304 301 300 299 299 298 297 296 291 289 288 290 290 290 289
321 321 317 319 320 317 316 313 313 319 317 312 313 314 313 311 311 310 312 313 314 314 313 313 312 310 308 306 304 302 301 299 299 298 297 296 291 288 288 290 290 290 289 288
321 322 322 321 322 320 313 313 315 313 313 312 311 312 309 309 309 310 310 310 311 311 310 310 309 307 304 304 303 301 299 299 298 297 295 290 288 288 290 290 290 289 287 286
321 319 320 319 320 314 312 313 314 314 313 311 311 310 312 309 309 308 307 306 306 306 306 305 305 303 301 300 299 299 299 298 297 295 290 288 288 290 290 290 289 287 286 284
316 314 315 317 314 312 312 313 314 314 313 312 312 311 311 308 307 305 305 304 304 303 303 303 302 301 300 298 298 298 299 296 295 290 288 288 289 290 290 289 287 286 285 283
311 312 313 311 310 310 311 312 313 312 312 311 310 310 309 307 305 304 303 303 302 302 301 301 301 300 299 299 298 298 296 294 289 288 288 289 290 290 290 288 286 285 284 283
308 310 312 314 311 311 310 312 312 311 310 310 309 307 306 306 305 304 303 303 302 302 301 300 299 299 298 298 298 296 294 289 288 288 288 289 289 289 288 287 286 284 283 282

GFSCGP_850_thetae_018.txt.gz
Theta_e
311 312 313 312 314 315 316 315 316 317 319 320 322 323 322 323 322 321 323 323 323 321 321 322 321 320 321 322 323 323 324 325 331 335 336 334 332 331 331 329 329 319 310 310
312 313 311 310 311 314 315 317 317 316 316 319 320 322 322 322 323 322 322 322 322 320 321 321 321 321 323 323 325 325 323 324 332 334 335 334 332 330 329 328 313 310 310 310
312 311 310 312 313 314 314 315 315 316 316 316 317 319 321 322 322 323 323 323 323 321 322 321 321 323 325 326 328 328 327 329 332 334 335 333 331 330 326 311 310 310 310 310
311 310 311 312 313 313 315 314 315 316 316 317 319 324 321 322 323 321 322 321 322 321 321 321 323 326 326 327 329 330 331 332 333 333 333 332 331 324 311 310 311 310 310 310
311 310 311 311 311 312 313 313 314 315 317 316 317 319 321 322 322 323 322 319 322 321 321 321 322 326 328 328 330 330 330 330 330 329 327 324 319 311 310 311 310 310 310 310
310 311 311 310 310 312 313 313 314 314 317 319 316 319 320 323 322 321 320 320 320 319 320 321 323 326 329 329 329 330 331 330 326 322 318 314 311 311 311 310 310 310 309 309
311 312 311 312 313 311 312 313 313 313 315 315 315 317 317 319 318 320 321 316 318 318 320 320 322 323 325 328 328 327 326 323 318 315 313 310 310 311 310 310 309 309 308 307
313 313 310 311 313 314 313 313 313 312 312 313 318 321 322 318 318 319 320 320 318 317 318 319 319 320 320 321 322 320 318 317 316 315 311 309 310 310 309 309 308 308 307 306
312 311 310 310 311 312 312 314 312 314 316 321 322 325 323 321 316 314 318 317 315 316 318 318 318 318 318 318 317 317 317 316 315 313 310 310 310 309 309 308 307 307 306 305
309 308 310 311 310 311 311 311 313 312 317 318 324 327 326 322 318 315 315 315 315 316 317 318 317 317 316 316 315 315 314 313 311 310 309 310 309 308 308 307 306 306 305 304
309 309 311 309 311 312 312 313 313 312 314 326 324 325 320 318 317 317 315 315 315 316 317 318 317 316 314 313 312 312 310 310 309 308 309 308 308 307 306 306 305 305 305 303
309 311 311 311 311 311 311 312 312 315 316 316 321 321 317 315 317 318 316 315 315 316 317 318 317 315 313 312 311 310 309 309 308 308 307 307 306 305 305 304 305 304 303 300
311 314 314 314 312 312 315 313 315 315 316 322 324 322 313 312 315 317 315 315 315 315 316 317 316 314 313 312 311 310 309 308 307 306 305 305 304 304 304 304 304 303 301 296
310 313 315 316 321 318 318 314 316 316 317 318 318 318 317 313 313 313 315 315 315 316 317 317 316 315 313 312 311 310 309 307 306 304 304 303 303 303 303 304 303 301 297 293
310 314 313 314 314 316 319 316 319 320 319 320 319 320 318 315 313 314 315 315 315 315 316 316 316 315 314 313 311 310 308 307 305 304 303 302 302 302 303 302 300 297 293 290
310 313 313 319 319 318 322 320 321 320 316 315 315 316 315 311 312 313 315 315 315 315 315 316 316 316 315 314 312 310 308 306 305 304 302 301 301 302 301 299 297 293 291 289
313 314 317 323 322 322 326 322 320 319 316 315 316 318 313 314 313 312 315 316 316 316 316 316 317 316 316 314 312 310 308 306 304 302 300 300 301 300 299 297 294 291 289 291
315 315 319 322 321 320 317 320 320 319 318 318 319 316 313 312 310 313 316 317 317 316 316 316 316 316 315 313 311 309 306 304 302 301 299 300 300 298 297 294 290 289 291 291
314 317 318 319 318 318 317 314 318 321 321 317 319 313 311 312 313 312 315 317 318 317 317 317 317 316 315 313 310 307 304 302 301 299 299 299 298 297 295 290 289 291 291 290
313 315 318 311 317 322 317 313 312 313 317 313 314 311 311 311 314 311 313 316 317 317 317 317 316 315 314 310 308 305 303 301 300 299 299 298 297 294 290 289 291 291 290 288
320 318 317 316 319 316 314 313 312 319 316 312 312 312 312 311 310 312 312 314 316 316 316 315 315 314 311 308 305 303 302 300 299 299 298 297 294 289 289 291 291 290 289 288
319 320 321 319 319 316 312 312 315 311 312 311 311 311 311 310 311 311 312 313 314 314 314 313 312 309 306 305 303 302 300 299 298 298 297 293 289 289 291 291 290 288 287 287
320 317 319 317 317 313 312 313 314 313 312 310 310 310 311 309 310 311 311 311 311 311 310 309 309 306 303 302 301 301 299 299 298 296 292 289 288 290 290 289 289 289 287 286
315 313 316 317 314 313 312 313 314 313 313 311 311 310 311 310 309 309 309 309 308 307 306 306 305 303 301 299 298 298 299 298 296 293 289 288 289 289 289 289 288 287 285 284
313 313 313 313 311 310 311 312 313 312 312 311 310 310 310 309 306 306 305 304 304 303 303 302 302 301 299 298 298 298 298 296 292 289 288 288 289 289 289 289 287 286 284 283
308 313 316 316 312 312 310 312 312 312 311 311 311 308 307 307 305 304 303 303 302 302 301 300 300 299 298 297 297 297 295 292 288 288 288 288 288 289 289 288 287 285 283 282

GFSCGP_850_thetae_021.txt.gz
Theta_e
311 313 314 314 312 314 314 316 317 314 315 316 316 318 318 319 320 321 321 323 324 324 325 324 323 322 321 321 323 329 334 335 335 337 338 336 333 333 333 332 330 328 326 311
311 312 310 309 310 312 313 316 316 314 314 315 315 315 315 315 317 320 321 321 323 324 323 323 321 321 321 321 321 323 327 330 332 335 336 335 333 331 331 330 329 325 310 310
311 310 310 310 310 312 312 313 313 314 313 313 313 313 312 314 316 318 321 322 322 323 323 323 321 321 321 321 321 322 323 324 328 335 335 335 332 330 328 328 325 310 310 310
312 311 310 310 311 311 312 311 313 313 314 314 314 315 314 315 316 318 320 321 322 323 323 323 321 321 321 323 323 324 324 323 330 335 334 334 331 330 328 325 312 310 310 310
311 310 310 311 311 311 312 311 313 314 314 313 314 316 312 315 316 317 318 320 322 322 323 323 321 321 322 324 325 327 327 327 333 334 334 334 333 330 327 313 310 310 310 310
310 310 310 310 310 310 312 312 312 313 314 315 313 314 313 311 314 317 317 320 321 322 322 322 321 322 324 326 328 330 331 332 333 333 332 332 331 327 316 310 310 309 310 309
312 312 310 311 311 310 311 314 315 316 315 313 311 314 314 311 313 316 318 319 322 322 319 321 321 325 326 327 329 329 330 330 330 330 326 325 323 315 311 310 310 309 309 308
312 312 312 310 311 312 311 313 314 314 311 310 309 311 313 313 312 313 317 319 319 318 319 320 321 324 326 327 329 330 330 330 328 323 320 315 311 310 310 309 309 308 308 307
311 310 310 310 310 312 313 313 311 313 313 316 315 314 318 313 315 314 314 316 317 316 317 319 321 324 326 327 328 328 329 328 323 317 313 310 309 310 309 309 308 307 307 306
310 307 309 310 310 311 311 311 314 314 314 312 312 318 318 318 318 315 313 314 315 316 316 318 321 323 325 326 326 325 324 321 316 314 312 309 309 308 308 307 307 306 306 305
310 310 308 310 312 312 312 312 312 311 311 313 316 315 317 318 318 315 312 314 315 315 316 317 319 321 321 322 322 320 318 316 316 314 310 308 308 307 306 306 306 306 305 303
309 310 311 310 310 310 310 310 311 313 309 310 309 312 313 312 312 315 313 314 315 315 314 315 318 319 318 318 317 316 315 314 312 310 308 307 307 306 305 305 305 304 303 301
310 312 312 314 310 310 312 311 310 310 312 312 312 309 313 315 314 316 316 315 314 314 314 315 317 317 316 316 315 314 312 310 309 307 307 306 305 305 304 304 304 303 301 298
310 312 313 314 315 312 312 312 311 312 313 313 313 314 316 317 316 314 314 314 314 314 315 316 316 315 315 313 312 310 309 307 307 306 305 304 304 303 303 302 302 301 299 296
310 312 312 312 312 312 314 313 313 312 312 312 312 317 316 316 315 316 314 313 313 314 315 316 316 315 313 311 310 308 307 306 305 304 303 303 302 301 301 301 301 299 296 293
310 310 311 313 315 314 316 314 313 312 312 312 316 317 314 314 314 312 313 313 313 313 315 316 316 315 313 311 310 308 307 306 305 304 303 302 300 300 301 300 299 297 294 290
310 311 315 321 319 317 319 318 314 314 314 316 318 316 314 314 314 313 313 314 314 314 315 316 316 316 313 311 310 309 307 306 305 303 302 300 299 300 300 298 297 294 290 290
314 314 316 320 319 324 320 319 316 315 317 316 316 315 314 314 316 311 314 315 315 315 316 316 316 315 314 312 310 309 307 306 304 302 300 299 299 299 298 297 294 289 290 292
313 316 319 321 319 319 315 320 320 320 319 317 317 316 315 314 311 311 314 316 316 316 316 316 316 316 315 314 311 309 306 304 302 301 298 298 299 298 297 292 289 290 292 291
312 313 318 318 319 321 315 311 317 317 322 316 315 315 315 312 314 314 313 315 316 316 316 316 316 315 315 313 311 308 305 303 300 299 298 298 298 296 293 289 290 292 291 291
316 318 320 317 319 314 313 312 313 318 315 311 315 316 315 312 312 311 312 314 315 315 316 315 315 315 314 311 309 306 303 300 299 298 298 297 295 293 289 290 291 291 291 290
318 319 319 318 318 314 310 312 314 310 311 311 311 311 310 308 308 309 311 313 313 314 314 314 314 313 311 309 306 303 301 299 298 298 297 295 292 289 290 291 291 290 289 288
317 315 316 315 314 311 312 312 313 312 311 310 309 310 312 309 308 309 309 311 312 313 313 312 313 310 306 304 302 303 300 299 298 297 295 292 288 289 290 290 290 290 288 286
312 312 315 316 313 312 312 312 313 313 312 310 309 310 312 311 309 309 309 309 310 311 311 310 308 305 302 301 300 300 299 298 296 295 292 288 288 289 289 289 290 288 286 284
312 312 313 313 311 310 311 312 312 312 311 310 308 309 310 311 309 309 308 309 309 309 307 307 306 304 301 299 297 297 298 296 295 292 288 288 289 289 289 289 288 287 284 283
309 313 315 316 313 312 311 312 312 312 310 310 310 308 309 310 310 308 307 306 305 304 303 302 302 301 298 297 297 297 296 294 291 288 288 288 288 288 289 289 288 285 283 282

GFSCGP_850_thetae_024.txt.gz
Theta_e
311 313 315 314 312 313 314 316 317 316 315 315 315 315 314 314 316 317 318 319 320 321 324 324 325 324 324 323 322 322 322 325 332 336 338 338 335 333 333 333 332 330 328 326
310 311 311 310 311 313 313 314 314 312 312 313 313 314 313 312 313 315 317 318 319 321 321 323 324 324 323 322 321 321 322 329 334 336 337 337 334 333 333 332 330 326 325 314
310 310 309 310 310 311 312 311 310 310 310 311 312 312 309 309 311 311 312 314 316 319 321 322 323 323 322 321 321 321 322 331 334 337 337 337 332 332 331 329 328 322 313 310
311 310 310 309 310 309 311 309 311 312 312 312 310 313 310 309 309 308 311 314 316 317 319 322 322 323 322 321 321 321 322 325 332 335 337 336 335 330 329 327 323 319 310 310
312 310 310 312 310 309 311 310 311 312 312 312 312 313 309 308 310 310 312 315 318 319 319 320 322 323 322 321 321 322 323 324 325 331 335 335 334 329 327 326 323 311 310 309
310 309 309 309 309 309 310 310 311 312 313 315 312 312 311 309 309 308 309 313 314 317 320 320 322 323 321 321 322 324 324 324 324 331 334 333 331 328 326 324 315 310 309 309
312 312 311 310 310 310 311 314 315 315 315 313 309 312 312 308 308 308 309 311 314 317 320 320 322 322 321 322 323 325 326 324 328 332 331 330 330 329 329 323 311 310 309 309
310 309 311 310 310 310 311 312 314 315 310 308 308 310 311 309 310 311 311 313 316 317 319 320 321 322 321 322 325 327 329 330 331 331 329 329 329 328 320 310 309 309 308 308
313 309 309 310 309 310 313 313 311 314 314 316 312 310 310 311 309 310 311 311 312 316 318 318 319 320 322 323 325 327 330 331 330 329 329 326 321 314 309 309 308 307 307 306
308 311 307 309 310 310 312 310 313 313 315 315 309 309 311 312 313 313 312 310 313 313 316 317 318 320 323 324 326 328 329 329 329 326 321 317 311 309 309 308 307 306 306 305
309 310 308 310 311 311 313 314 313 312 313 310 309 308 310 313 313 315 314 314 314 315 316 317 318 320 324 326 327 328 328 328 326 319 314 310 309 308 307 306 306 305 305 305
309 310 311 308 309 309 310 311 311 312 308 309 308 310 312 313 314 314 314 313 313 315 315 316 317 320 324 325 326 327 326 325 321 314 311 308 308 307 305 305 305 305 304 303
309 311 312 311 310 310 311 311 310 310 310 308 308 309 307 309 313 314 314 314 314 313 314 314 315 319 323 323 323 323 321 319 315 312 309 307 306 305 304 304 304 304 303 302
309 312 312 313 313 310 312 311 311 311 312 310 310 310 309 310 314 315 314 314 314 313 313 312 314 319 322 321 321 319 316 315 313 309 307 306 304 304 303 303 303 302 302 301
310 312 311 312 312 310 312 312 312 312 310 310 309 309 309 313 313 314 313 314 313 312 311 312 314 316 317 316 315 313 312 310 308 306 305 304 303 302 302 302 302 301 300 297
311 311 312 312 312 313 313 314 313 311 311 311 311 311 311 313 314 314 314 313 314 312 312 311 314 314 315 314 312 310 309 307 305 304 303 302 301 301 301 301 300 299 297 294
312 311 314 316 314 314 318 314 313 312 311 311 312 311 310 311 314 313 314 314 313 313 313 313 314 315 315 312 311 309 307 305 304 303 302 301 300 300 300 299 298 297 294 291
314 312 314 317 318 324 319 318 313 313 313 311 311 312 315 315 314 314 314 313 313 313 313 314 315 314 312 310 309 308 306 305 303 301 301 300 299 299 299 298 296 294 291 292
312 315 318 321 320 319 317 319 316 315 315 312 312 313 314 314 314 312 311 313 314 314 315 315 315 314 313 311 309 308 306 304 302 301 300 299 298 298 297 296 293 290 291 292
311 312 316 317 320 321 314 310 316 316 322 316 315 315 315 312 315 312 313 313 314 315 315 315 315 315 313 311 309 307 306 303 301 300 299 297 297 296 295 293 290 291 292 291
316 316 318 320 318 314 312 310 316 321 317 309 315 316 313 313 311 309 312 314 315 315 315 314 314 315 313 311 309 307 305 302 300 298 297 296 295 294 293 290 291 291 291 291
314 316 318 317 317 314 310 312 313 310 310 311 311 314 315 314 310 311 312 314 313 312 313 313 314 313 311 310 308 305 302 300 298 297 296 295 295 293 289 290 291 291 290 290
315 313 314 313 312 309 312 311 313 311 310 309 309 311 315 314 311 309 307 308 308 311 312 312 313 312 309 307 305 304 301 298 296 296 295 295 292 289 290 290 290 290 289 288
312 310 314 315 313 311 312 312 312 311 310 308 309 310 311 311 308 306 303 306 309 310 311 310 310 308 305 302 301 301 299 296 296 296 295 291 288 289 290 289 289 290 289 286
310 311 313 312 311 310 312 311 311 310 309 308 308 309 309 310 305 305 306 308 309 309 308 308 307 304 300 299 299 298 297 296 296 295 291 288 288 289 289 289 289 289 286 283
308 313 315 315 313 312 310 310 310 310 309 308 309 307 306 308 308 308 307 307 307 306 304 304 302 301 299 298 297 296 296 295 294 291 288 288 288 288 288 289 289 286 284 283

GFSCGP_850_thetae_027.txt.gz
Theta_e
311 313 313 314 312 313 314 315 315 315 315 313 314 314 314 313 313 313 314 314 315 316 319 321 323 324 324 324 324 324 323 323 323 324 331 336 338 337 334 335 332 332 329 329
311 312 311 312 313 313 314 315 315 313 312 312 312 313 313 312 313 313 313 313 314 314 316 318 320 323 324 324 324 323 322 322 322 326 330 336 336 336 334 333 332 330 327 328
311 310 309 311 311 312 312 314 313 312 311 310 310 311 310 309 309 310 311 312 312 313 314 315 318 320 322 323 323 323 322 322 323 327 333 336 335 333 332 332 329 326 322 319
310 310 310 309 311 311 312 310 311 311 311 311 309 312 310 310 310 310 308 309 310 311 311 312 315 318 321 322 322 321 321 322 325 330 334 336 335 333 331 331 330 326 321 311
311 310 310 311 310 308 311 309 310 311 312 311 311 312 311 308 310 310 309 309 310 311 312 312 313 317 320 322 323 321 321 322 325 333 335 336 334 332 330 329 326 318 316 309
309 309 309 309 309 309 310 310 311 312 313 315 312 313 312 311 309 309 309 310 311 312 315 318 317 316 320 322 322 321 321 322 324 332 335 336 334 332 329 327 322 318 313 309
311 313 311 309 310 309 310 313 315 316 316 314 309 312 312 310 310 309 309 308 310 311 311 312 316 319 320 322 321 321 322 323 323 328 334 333 334 331 327 324 321 317 310 309
313 309 311 311 311 311 311 312 315 314 313 311 308 313 312 309 310 310 309 309 310 310 311 314 315 319 320 322 321 321 322 324 324 326 330 332 330 327 325 323 319 311 308 308
311 310 308 309 309 310 312 312 311 313 312 315 313 310 308 309 309 310 312 314 313 312 312 313 317 320 320 321 321 321 323 324 323 326 329 329 326 324 320 317 309 308 308 308
309 309 306 308 309 310 312 310 313 312 314 314 313 311 312 309 310 313 314 315 314 314 313 312 317 319 320 321 322 324 325 326 326 327 326 326 324 317 317 310 307 307 307 307
308 308 307 309 310 310 312 313 313 311 313 313 311 311 306 307 314 314 314 315 314 314 313 313 314 317 319 321 324 326 327 328 328 326 325 323 318 314 308 307 306 306 307 306
308 309 308 307 308 309 309 311 311 314 313 312 309 310 313 312 312 314 314 315 314 314 312 312 315 317 319 321 325 327 328 328 327 325 323 318 312 307 306 305 306 306 305 305
308 310 309 309 309 309 311 311 311 311 312 313 312 310 307 307 311 314 314 314 315 313 313 314 315 317 319 322 325 326 326 326 324 319 314 309 307 306 305 305 305 305 304 303
308 310 310 312 313 312 312 312 311 311 313 312 311 310 308 308 308 311 314 314 315 313 311 312 313 315 318 322 324 324 324 322 317 311 308 307 306 305 304 304 304 303 302 301
309 312 311 311 311 311 311 312 311 312 311 312 310 309 308 307 308 314 313 312 314 314 311 310 311 313 317 320 322 321 320 317 312 308 306 305 304 304 303 303 302 301 300 299
310 312 312 312 312 313 313 315 313 311 311 311 311 310 308 311 312 311 310 311 314 313 312 309 310 313 317 319 319 318 316 312 309 307 305 304 303 302 301 301 300 300 298 297
313 312 314 316 315 316 318 317 314 312 311 311 312 311 310 310 311 311 310 312 311 313 312 310 309 313 316 317 318 315 312 310 306 305 303 302 302 301 300 300 299 297 296 294
312 313 313 315 318 324 320 316 316 313 313 312 311 310 311 311 311 312 313 312 312 312 312 310 309 311 313 314 312 311 308 306 304 302 301 300 300 300 299 298 297 296 294 292
310 313 317 319 319 318 315 313 316 314 316 312 312 311 311 311 312 313 310 310 311 313 313 313 312 312 311 311 309 308 305 303 301 301 300 300 299 298 297 296 296 294 291 292
311 312 316 316 320 320 315 311 315 315 320 314 312 311 310 312 315 311 310 312 313 313 314 314 313 312 310 308 307 306 303 301 300 300 299 298 297 296 296 295 293 291 292 292
315 315 315 317 321 314 311 309 315 317 315 308 312 313 312 314 311 307 309 312 313 313 314 313 313 311 309 307 306 304 302 300 299 299 298 296 296 296 295 293 291 291 291 291
312 314 319 317 317 314 310 314 316 310 310 309 309 313 314 313 307 308 309 310 312 312 313 313 312 310 308 307 305 303 301 299 298 297 296 296 296 295 293 290 291 290 290 290
314 311 313 313 312 309 311 310 312 310 309 309 308 309 313 311 308 306 306 307 308 310 310 310 311 309 306 304 304 304 301 299 297 296 296 296 295 292 289 290 290 289 290 289
310 309 314 314 313 311 312 312 311 310 308 308 308 309 311 312 308 307 308 309 311 310 310 309 309 308 305 303 302 303 300 297 297 297 296 295 291 289 289 289 289 289 289 286
309 309 313 312 311 310 312 312 310 310 308 308 307 309 310 311 307 309 308 309 309 308 306 307 307 306 304 301 300 299 297 296 297 296 295 290 288 289 288 288 289 289 286 284
307 311 313 315 312 312 310 310 310 309 308 308 308 307 307 310 310 310 307 307 307 306 305 305 305 303 299 298 298 296 296 296 296 294 290 288 288 288 288 288 288 286 284 283

GFSCGP_850_thetae_030.txt.gz
Theta_e
314 316 316 315 314 316 316 317 318 316 316 316 316 316 316 315 315 315 315 316 317 318 318 319 321 322 322 320 322 324 324 324 323 325 334 333 335 336 337 335 334 333 330 331
314 314 314 313 314 314 314 316 316 315 314 314 314 315 314 314 314 314 314 314 314 315 316 317 319 321 322 322 323 324 324 324 323 325 325 330 334 335 336 336 335 333 331 330
315 313 311 313 313 313 313 313 314 315 314 313 313 315 315 314 313 312 312 312 313 313 314 315 316 319 321 321 323 324 324 323 323 324 328 327 333 334 336 334 333 331 330 326
314 312 311 312 313 313 315 312 312 313 313 315 312 317 315 315 314 313 313 312 312 313 313 313 314 316 319 320 321 323 324 323 322 323 324 326 331 335 334 332 331 330 327 324
313 312 313 312 312 312 313 311 311 312 313 313 314 313 314 313 314 314 314 314 313 312 312 312 313 314 315 318 319 321 323 322 322 322 325 328 333 334 333 330 328 326 324 315
312 311 311 312 311 311 311 312 312 312 313 316 314 314 315 315 315 314 313 313 312 312 313 313 313 315 315 317 318 321 322 322 321 323 327 331 333 334 332 328 327 326 318 310
312 313 311 310 312 311 311 314 314 316 316 315 313 315 315 314 313 313 313 312 312 313 312 312 314 316 317 317 317 320 321 321 321 324 329 332 334 334 331 329 328 325 315 311
315 316 313 312 312 312 312 312 315 315 315 314 312 314 313 313 312 312 311 313 316 316 316 313 312 315 317 318 316 320 321 321 322 324 329 332 333 331 329 328 328 318 315 311
315 313 310 311 311 311 312 314 313 314 314 315 313 312 312 312 312 312 313 315 315 316 316 315 314 315 317 319 318 320 321 322 322 324 328 330 331 330 328 326 321 312 312 309
312 313 309 310 311 311 312 311 313 314 313 313 313 312 313 312 312 316 315 315 316 316 317 316 314 315 318 320 320 320 321 322 323 323 326 329 328 327 324 318 312 311 307 307
311 310 310 310 311 312 311 313 314 312 313 313 313 313 311 311 311 314 314 315 316 316 316 316 314 317 319 320 321 320 321 322 322 323 325 328 327 322 317 316 309 306 306 306
310 310 310 311 310 310 310 311 311 314 314 313 314 314 312 313 314 315 313 313 315 315 314 315 315 317 319 319 318 318 320 321 321 323 326 325 322 320 313 307 304 305 305 305
310 311 312 314 313 311 311 311 311 312 313 314 315 313 311 312 314 312 312 313 314 315 314 313 312 314 316 316 315 318 320 322 323 325 323 322 320 311 306 304 304 305 304 304
309 311 312 314 316 315 314 313 312 312 314 314 314 313 311 311 310 310 310 311 313 315 313 312 311 313 314 314 313 315 321 323 324 323 321 317 310 306 304 303 304 303 303 302
310 312 312 312 312 313 313 313 313 313 312 314 313 313 312 312 311 310 309 311 312 314 314 312 310 310 310 308 310 320 323 321 320 318 314 309 305 303 303 303 303 302 301 300
311 312 312 313 313 314 315 315 316 315 314 313 313 314 312 312 311 310 312 311 311 314 314 311 308 307 306 309 316 320 321 317 313 310 308 306 304 303 303 302 301 300 299 299
312 312 313 315 314 315 320 319 317 315 313 314 315 313 312 312 311 311 311 312 313 314 313 311 307 306 303 309 319 318 316 311 308 304 304 303 302 302 301 300 299 298 298 297
313 313 312 314 315 322 320 316 315 318 315 315 313 312 312 311 312 311 312 313 313 313 314 310 306 303 307 311 312 314 310 307 304 303 303 302 301 300 299 298 298 297 296 294
312 313 315 316 320 317 317 317 317 315 318 315 315 314 313 311 311 312 310 309 311 313 311 307 304 310 309 311 310 309 305 304 303 302 301 300 299 299 298 297 297 295 293 292
312 312 314 314 319 320 317 314 314 316 321 312 313 314 313 312 318 314 308 310 311 309 307 305 308 310 311 311 310 309 305 302 301 300 300 299 297 297 297 296 295 293 292 292
315 314 315 315 318 319 315 312 315 319 317 312 311 313 312 315 311 307 309 309 310 311 312 312 311 311 310 308 306 304 301 300 300 299 298 297 297 296 296 294 292 291 291 291
316 317 317 316 319 320 313 315 319 315 312 311 310 311 313 310 308 308 308 308 310 312 310 310 310 308 306 305 304 301 300 299 299 298 298 297 296 295 294 291 290 290 290 290
318 316 317 318 319 315 312 314 312 310 310 309 308 309 312 312 313 312 307 306 308 308 309 308 308 305 302 302 301 302 300 298 298 297 297 296 295 293 290 290 290 290 290 290
314 313 317 317 318 316 314 312 311 309 307 307 307 308 310 310 308 308 307 307 306 307 308 307 306 303 301 300 300 301 299 298 297 296 295 294 292 290 289 289 289 289 289 287
315 314 317 317 317 316 312 311 309 309 308 307 307 308 309 309 305 305 304 305 306 307 307 306 305 303 301 299 299 299 297 296 296 295 294 292 289 289 289 288 289 289 287 285
312 317 318 318 316 315 313 309 309 308 307 306 307 305 304 305 303 303 303 303 305 306 305 305 303 302 299 298 298 296 295 295 296 296 292 289 288 288 288 288 289 287 284 284

GFSCGP_850_thetae_033.txt.gz
Theta_e
315 317 318 319 320 320 318 319 320 319 318 318 318 318 318 317 317 317 317 318 319 319 320 320 321 322 322 322 324 325 325 325 327 330 335 337 338 336 336 335 334 331 330 330
316 318 317 316 316 316 317 318 318 317 316 316 316 317 316 316 316 316 316 316 317 317 317 318 319 320 321 322 324 324 324 325 327 330 333 336 337 336 336 334 333 332 332 331
317 316 313 315 315 316 316 316 315 315 315 315 316 317 317 317 316 316 315 315 315 315 316 316 317 318 320 321 322 323 324 325 327 330 334 336 336 336 334 332 333 333 332 331
315 314 313 314 315 315 316 315 314 314 315 318 314 318 316 316 316 316 315 314 314 314 314 315 315 316 317 320 322 322 324 325 328 331 333 331 327 327 328 330 333 333 331 330
315 314 314 314 314 313 314 313 313 314 314 314 315 316 316 315 316 315 315 315 315 315 315 314 315 315 315 317 321 322 324 326 330 330 330 328 326 324 327 331 332 332 329 328
314 312 313 314 313 313 312 312 312 313 313 316 315 315 316 316 316 316 317 316 314 314 313 314 314 314 314 314 316 322 324 327 330 329 327 325 324 324 327 332 330 328 328 325
313 313 312 312 313 312 312 314 316 317 317 316 314 316 315 315 314 314 315 314 313 313 315 316 315 313 314 315 315 321 323 327 328 326 325 325 326 325 328 331 330 328 327 323
314 318 314 312 312 313 312 313 316 316 317 316 315 315 314 314 314 313 313 313 312 315 316 317 318 315 314 316 317 319 324 326 325 323 326 326 325 325 330 330 330 326 325 320
316 315 312 313 312 312 313 314 312 314 313 314 313 313 313 313 313 313 313 312 313 316 316 317 318 317 314 316 319 320 324 325 324 324 325 325 324 328 329 329 325 323 320 312
314 315 312 312 312 311 312 313 314 314 315 315 314 314 314 314 314 313 313 315 316 316 315 316 317 317 316 316 318 321 323 324 322 324 324 321 323 328 329 329 324 320 313 310
311 312 312 310 312 313 312 313 313 313 315 316 316 315 314 313 312 312 315 315 315 315 315 315 317 316 316 318 320 323 323 322 321 321 318 322 327 326 327 325 319 318 308 308
311 310 312 312 311 311 312 312 312 315 314 315 315 315 313 312 312 314 314 313 313 314 315 315 316 318 319 321 322 323 322 320 319 315 314 322 326 326 324 318 316 306 308 304
311 311 313 315 313 312 312 312 311 313 314 316 316 315 312 311 312 312 313 312 311 313 315 315 316 316 319 321 322 321 319 317 313 311 314 322 323 321 317 313 308 306 304 304
311 311 312 316 319 316 314 313 313 313 316 315 315 315 314 313 313 312 311 311 311 311 313 315 314 315 317 318 318 317 314 310 309 311 315 318 316 317 314 307 303 303 303 303
311 313 311 312 312 313 314 314 315 314 314 315 315 315 315 314 313 313 312 311 311 311 314 314 314 314 314 315 315 311 305 305 308 313 315 314 312 308 304 302 302 303 304 302
311 313 313 313 312 314 316 315 317 317 317 317 315 315 314 313 312 311 312 312 311 312 312 314 311 312 313 311 307 303 303 306 310 312 312 310 305 303 301 302 302 303 304 301
312 313 313 314 314 315 321 319 318 317 317 317 318 316 315 313 313 312 312 312 312 313 314 314 310 310 308 303 304 302 304 309 310 310 304 303 303 301 304 302 302 301 301 299
312 313 313 314 315 322 319 317 317 317 317 315 315 316 316 314 313 312 311 311 312 312 314 313 309 305 302 302 302 301 303 307 309 306 303 302 301 302 302 300 299 299 299 297
311 312 313 316 315 316 318 318 318 318 319 315 314 315 315 314 312 311 308 310 312 312 313 309 305 302 300 300 299 301 303 304 305 307 307 302 302 302 300 298 299 299 297 295
312 313 313 314 317 318 318 316 314 317 322 315 313 315 314 313 318 311 307 309 311 310 308 304 300 299 299 299 299 303 305 306 303 300 300 298 298 299 298 299 298 296 294 292
315 315 315 315 316 316 317 315 317 321 319 315 312 314 314 314 309 306 306 306 305 305 303 301 302 302 301 302 305 305 302 302 302 298 298 298 298 299 298 297 295 293 292 291
316 316 316 315 318 319 316 317 319 318 315 314 312 313 312 310 306 305 305 303 302 300 300 300 299 297 297 297 296 295 297 297 298 299 298 298 298 297 296 294 292 291 291 290
318 317 318 318 318 318 317 316 315 314 313 312 310 311 316 315 311 306 307 303 302 303 304 303 303 300 297 298 300 300 298 298 298 298 297 297 296 295 294 292 290 290 290 290
316 316 317 318 319 318 318 316 313 310 309 308 308 309 312 308 305 304 303 303 302 300 300 303 303 300 299 300 301 302 300 299 298 298 296 296 295 293 290 290 290 289 290 289
317 316 318 319 318 318 314 312 311 309 307 306 306 309 308 306 303 302 301 300 301 301 300 299 301 301 300 299 300 299 298 298 297 296 296 294 292 290 289 289 289 289 289 287
315 317 318 319 317 317 315 310 309 308 305 305 305 305 304 304 302 300 298 299 299 299 299 300 300 300 299 299 298 297 296 296 297 296 295 292 289 289 288 288 289 289 286 285

GFSCGP_850_thetae_036.txt.gz
Theta_e
320 320 321 319 319 319 322 320 318 317 318 317 316 316 316 316 317 317 318 318 319 319 320 321 321 322 321 321 323 327 326 326 326 333 337 339 338 338 336 335 334 334 333 330
316 316 317 317 319 319 317 317 316 316 316 314 314 314 314 314 314 315 315 316 317 317 318 319 319 320 321 322 321 321 326 326 325 325 331 336 338 336 336 335 335 334 334 331
316 315 316 316 316 316 315 316 315 315 314 313 313 314 314 315 314 315 315 315 315 316 316 317 317 318 319 320 322 322 323 325 325 325 327 334 338 337 336 335 335 334 334 331
315 314 314 314 315 315 316 314 315 315 314 315 313 315 313 313 313 313 314 315 315 315 315 315 315 316 317 318 320 320 322 324 324 325 329 334 337 336 336 334 335 334 332 331
315 314 315 314 314 314 314 313 313 314 313 312 313 312 312 313 313 313 313 315 315 315 314 314 314 314 315 315 318 319 321 323 324 326 329 334 335 334 333 333 334 330 330 329
314 313 313 313 313 313 312 312 312 312 313 313 312 313 312 313 313 312 312 315 315 314 313 313 313 314 314 314 315 316 321 322 324 327 330 334 333 331 332 333 332 331 329 326
313 313 312 312 314 313 313 314 313 315 315 312 312 313 312 312 312 312 312 314 314 313 313 314 316 317 317 314 314 314 315 323 323 328 332 334 332 331 328 326 325 327 327 325
314 315 313 312 313 314 313 313 312 315 315 314 312 314 311 312 313 313 313 313 314 313 313 316 317 317 318 318 314 314 314 323 324 328 332 331 330 328 325 323 324 328 327 325
315 315 313 312 312 313 313 312 311 311 311 309 311 311 311 311 311 310 311 313 313 312 315 316 315 317 317 318 314 315 315 323 326 329 330 329 325 324 324 323 327 328 326 323
314 314 312 313 312 311 312 312 313 312 311 312 312 312 312 312 311 311 309 313 314 316 316 315 315 314 315 317 315 316 317 320 326 328 328 325 325 325 324 325 328 325 324 318
312 312 311 310 311 312 311 312 312 312 314 314 314 313 312 311 310 310 310 315 315 315 315 315 315 314 315 316 316 316 319 322 325 325 325 325 326 324 323 325 323 322 321 317
311 311 309 310 310 310 312 311 310 311 310 312 313 314 312 311 311 310 310 314 314 313 314 314 315 315 315 319 318 318 320 323 324 324 324 325 324 322 324 320 319 316 313 308
311 310 309 313 311 310 311 311 311 311 312 312 314 312 312 310 311 312 311 311 312 312 313 314 315 314 316 320 321 321 322 322 322 323 324 322 319 319 315 316 310 307 309 309
310 312 310 311 314 314 312 312 311 313 314 313 313 312 312 312 313 313 313 312 312 312 312 314 315 314 316 319 321 322 320 320 320 320 318 316 317 313 314 310 307 310 309 303
311 311 310 310 310 310 311 312 313 313 314 315 314 315 314 314 314 313 313 312 312 312 311 314 315 314 315 317 319 318 317 315 315 312 311 312 310 311 309 307 304 303 300 302
310 310 310 309 310 311 311 312 313 316 317 318 317 317 315 314 314 313 312 312 312 312 312 313 314 313 314 315 315 313 312 311 310 308 306 304 307 307 305 302 303 304 302 302
312 311 313 309 312 312 317 316 318 317 317 318 318 317 315 316 316 314 312 311 311 311 312 314 313 312 313 308 308 308 306 304 303 302 300 301 303 302 302 304 302 299 299 302
313 313 313 311 313 319 319 317 316 317 317 316 317 316 314 315 313 310 309 309 310 311 311 312 311 311 310 307 306 305 301 299 298 297 298 301 301 301 302 300 302 305 301 299
311 313 314 313 315 314 314 317 318 317 317 316 315 314 314 314 312 309 309 308 312 311 312 311 309 308 306 303 299 298 296 296 296 297 298 300 304 305 306 304 298 298 299 298
312 312 313 314 316 316 317 315 314 316 321 315 313 315 315 313 315 310 306 306 306 308 309 307 305 301 299 297 297 297 296 299 302 304 305 303 303 303 297 296 299 298 296 299
314 314 314 315 316 313 312 314 316 320 317 314 312 315 312 313 308 305 303 304 302 300 299 298 297 296 296 296 297 298 300 304 306 305 305 302 299 295 297 297 297 299 296 292
314 315 314 315 316 315 314 316 318 315 315 313 312 313 312 307 306 304 302 300 302 300 299 298 298 298 299 300 303 305 305 303 305 307 302 295 296 298 296 297 296 293 292 291
315 314 316 313 313 313 316 317 316 314 312 311 310 311 314 310 305 303 302 301 297 297 300 301 301 301 301 303 306 308 306 299 296 297 297 297 295 294 295 294 292 291 290 290
314 314 315 316 317 316 316 315 313 311 309 308 308 310 313 311 306 303 303 300 299 297 296 294 294 294 294 296 297 297 295 295 296 295 294 294 296 295 293 291 290 290 290 290
314 315 315 315 315 316 314 312 311 309 307 307 309 311 310 309 304 303 302 301 298 297 295 296 297 297 296 296 297 296 296 296 296 296 296 295 294 291 290 289 289 290 290 287
313 313 314 316 315 315 313 312 310 309 306 306 307 307 306 306 305 304 301 299 298 297 297 298 297 297 296 296 294 294 295 296 297 297 295 293 290 289 289 289 290 289 287 285

GFSCGP_850_thetae_039.txt.gz
Theta_e
321 320 321 318 317 318 318 320 317 315 315 314 315 314 313 314 315 315 316 316 317 318 320 320 320 320 320 319 320 321 324 330 335 336 335 337 338 337 337 335 335 333 332 332
317 318 319 319 318 319 318 317 314 313 313 312 312 312 311 311 312 313 314 314 316 317 317 318 319 320 320 321 320 320 322 326 330 336 335 333 333 335 336 335 334 333 333 332
315 315 315 315 316 318 314 314 314 314 312 310 310 311 311 311 311 312 313 313 314 314 315 316 317 318 319 319 320 321 321 322 327 329 332 331 332 335 335 335 335 334 333 333
315 314 314 314 315 314 315 312 313 313 312 312 310 312 309 310 310 311 312 313 314 314 315 315 315 316 316 317 317 319 320 321 322 326 328 329 331 332 335 332 334 334 333 333
314 314 314 313 314 313 313 312 312 312 311 310 310 309 309 308 310 310 309 312 314 315 315 315 314 314 314 315 316 316 318 318 320 322 325 325 326 331 332 332 333 333 332 330
313 312 312 312 312 312 311 311 311 311 310 307 309 310 308 309 311 311 310 313 314 313 314 313 314 314 314 314 314 314 315 318 319 320 324 325 325 326 331 332 331 331 331 331
313 313 312 311 312 311 313 309 304 312 313 309 309 311 309 309 309 309 309 312 313 313 313 313 314 315 315 316 317 315 314 314 317 320 321 325 326 327 328 328 329 329 330 330
309 309 312 310 311 311 311 310 305 311 311 311 310 311 310 309 311 311 313 313 314 312 313 313 315 316 316 315 315 316 317 313 314 320 321 324 326 329 329 328 329 330 330 329
309 312 312 311 311 311 312 307 308 307 308 302 308 307 308 309 308 307 309 311 311 311 315 315 315 314 310 309 310 316 317 314 313 315 324 325 327 331 329 329 330 330 329 328
313 314 313 313 312 311 309 309 310 304 304 309 308 309 311 310 309 308 307 309 312 315 315 315 315 315 313 310 311 316 316 314 314 316 325 328 328 329 329 329 328 324 323 325
311 312 311 312 311 310 310 312 311 308 308 310 312 311 307 309 310 309 307 311 313 315 315 315 315 314 312 310 311 316 315 315 315 320 325 327 328 327 327 328 324 322 322 324
311 310 310 308 308 309 309 309 308 304 305 307 308 312 310 310 309 309 311 311 311 311 314 314 314 314 311 311 312 318 317 318 318 321 325 326 327 327 327 324 323 322 322 319
310 307 302 309 308 308 310 310 309 308 309 307 312 311 308 309 310 310 311 313 313 312 311 313 314 312 312 312 313 320 320 319 320 321 324 325 325 325 323 323 321 319 317 314
309 309 304 306 310 310 306 311 309 310 313 311 311 311 310 311 313 314 314 313 313 313 312 312 314 313 313 314 315 320 320 320 320 324 323 323 323 321 321 319 315 312 310 307
308 304 307 308 309 307 307 309 310 311 311 314 312 313 314 314 315 315 315 312 312 312 310 312 314 314 314 314 317 319 319 320 321 322 322 321 318 315 313 310 307 304 301 300
308 306 305 304 309 309 309 310 310 310 311 312 313 315 315 315 315 314 312 312 311 311 312 314 314 313 313 314 316 317 314 317 317 318 317 314 310 307 305 301 301 303 302 302
310 306 303 303 309 310 314 312 312 315 316 317 319 316 315 316 315 313 310 310 311 311 311 311 312 312 312 312 314 310 308 308 310 312 309 306 305 303 301 300 300 301 300 304
310 309 309 307 310 316 316 315 315 315 315 315 315 316 315 315 314 308 307 304 304 307 310 311 312 311 310 310 307 307 306 306 306 304 301 300 300 299 297 299 304 305 304 301
311 312 310 312 311 312 315 316 317 316 315 315 314 314 315 315 313 308 305 301 303 310 310 311 310 308 307 306 305 305 302 302 299 297 296 296 297 301 303 303 303 303 304 300
311 311 314 312 314 314 314 314 314 314 317 314 312 313 316 312 315 309 303 300 302 304 305 307 305 304 303 301 301 302 298 297 297 297 299 300 302 303 304 304 303 298 294 292
315 314 313 312 314 311 310 311 315 318 316 313 312 313 313 311 308 303 302 299 299 301 303 302 302 302 299 298 298 297 296 299 298 299 301 303 302 301 299 296 294 294 294 293
313 314 316 315 315 312 311 314 317 314 314 312 311 312 310 307 305 302 303 301 300 300 298 298 299 299 298 298 299 299 300 300 301 303 304 301 299 297 295 293 297 296 291 291
314 311 313 310 311 309 313 315 314 313 311 310 309 310 313 307 303 300 301 302 303 302 300 299 299 297 298 300 301 301 302 302 302 302 300 296 292 292 294 295 292 291 290 290
313 312 314 313 314 311 314 313 312 311 310 308 308 310 313 311 305 302 298 298 302 303 304 303 303 302 301 301 303 304 303 303 298 294 293 295 298 295 292 290 290 290 290 291
312 312 313 312 313 313 312 313 312 310 309 308 309 310 312 310 305 303 300 297 296 299 301 304 305 303 302 302 301 299 296 295 294 295 296 295 294 291 290 290 290 290 289 287
310 310 312 313 313 314 313 313 312 310 309 307 308 308 307 307 305 302 299 297 298 298 298 297 297 297 295 295 295 294 294 295 296 296 296 294 291 289 289 289 290 288 286 286

GFSCGP_850_thetae_042.txt.gz
Theta_e
320 321 322 322 320 316 317 320 320 315 314 312 312 311 311 311 312 312 314 315 317 318 319 319 320 319 320 319 319 320 319 320 331 336 334 335 336 336 336 335 335 334 334 333
321 321 318 318 319 319 319 318 316 313 313 313 311 311 311 311 311 312 313 314 314 316 317 317 318 318 319 319 319 319 319 319 320 329 333 334 332 333 333 334 336 335 334 333
318 316 316 318 318 320 316 314 313 314 311 310 309 311 310 309 310 311 312 312 312 313 314 314 315 316 318 318 318 320 320 320 319 323 329 332 334 332 332 333 335 335 335 333
314 313 315 316 316 313 315 312 312 312 312 311 309 312 308 308 308 307 309 311 313 314 314 315 314 314 315 316 316 318 319 319 320 321 330 331 331 332 331 329 331 334 334 333
314 314 313 313 314 312 313 311 311 311 310 308 309 309 308 307 309 309 310 312 313 314 314 314 315 315 314 314 315 315 316 317 317 320 321 328 331 331 329 328 329 330 332 332
312 312 312 312 311 311 310 309 308 309 306 305 307 309 307 307 309 311 309 311 312 313 314 314 314 314 314 314 314 314 314 315 315 316 319 320 323 333 331 330 329 329 330 330
313 312 311 311 311 311 309 307 305 304 303 307 308 309 307 307 308 308 308 310 312 313 313 313 313 314 313 314 314 314 314 314 314 315 315 318 320 321 329 330 329 328 329 330
311 310 311 310 311 311 311 307 305 308 310 309 308 311 309 307 308 308 309 310 311 311 311 313 314 314 314 314 313 313 313 313 313 313 314 314 318 320 323 327 327 327 326 326
307 309 311 310 310 309 311 307 307 306 304 302 307 305 305 306 307 307 308 311 312 312 311 313 315 315 314 311 309 309 310 310 313 314 314 313 314 319 320 324 326 327 326 326
310 310 312 312 311 311 308 308 306 298 303 307 307 307 308 308 309 307 306 310 311 312 313 313 314 315 314 314 313 312 310 310 311 316 315 313 313 319 321 324 327 327 326 326
311 308 311 313 310 310 311 311 309 306 305 309 309 310 305 308 309 307 306 309 310 311 312 312 312 314 314 312 310 310 309 310 314 315 314 314 314 319 326 326 325 327 326 326
310 308 303 311 308 308 308 309 306 301 302 303 306 310 308 307 308 308 310 311 313 314 314 313 313 313 314 312 311 311 311 310 314 316 314 315 318 324 328 327 326 326 327 326
309 305 302 308 307 307 309 308 307 306 308 301 309 309 307 305 310 311 314 314 315 314 314 312 313 312 314 312 311 311 311 312 319 318 318 320 323 325 326 326 325 324 322 319
309 306 305 307 304 304 304 309 308 309 311 306 307 309 309 309 311 313 314 315 314 312 311 311 312 313 313 312 311 311 310 315 320 320 319 320 321 324 323 322 321 320 317 316
306 304 305 305 308 305 306 308 308 305 309 307 310 310 310 311 312 314 315 313 312 311 311 312 310 313 313 313 312 312 315 317 319 317 319 321 321 321 316 317 316 314 312 309
306 302 303 304 307 308 307 308 307 308 309 310 310 310 310 312 315 315 310 309 309 310 311 311 312 313 313 313 312 314 314 312 311 310 313 315 314 315 310 312 310 306 305 302
308 304 303 304 307 308 310 310 310 309 309 311 315 315 314 315 316 309 307 305 303 302 306 310 310 312 312 311 310 310 309 306 307 308 310 311 308 310 307 305 301 300 299 297
307 307 305 303 307 311 316 313 312 310 312 313 314 314 314 315 315 307 305 301 300 303 308 309 310 311 309 307 307 308 306 305 307 306 304 304 303 304 300 299 300 300 301 302
310 311 309 307 308 310 314 315 316 315 314 313 313 313 312 315 313 308 304 300 300 299 305 308 307 307 305 305 304 306 304 306 305 301 298 298 298 298 300 300 301 301 302 301
311 311 310 308 312 314 314 313 313 312 316 313 312 311 313 313 316 310 303 300 299 299 299 300 300 301 302 303 302 303 301 299 298 297 298 300 301 302 301 301 300 300 300 299
314 313 311 310 311 311 309 310 315 317 317 313 312 311 314 313 310 306 304 301 298 298 299 299 299 300 300 299 298 299 297 298 298 298 300 300 300 301 300 300 300 299 293 291
313 312 312 312 313 312 310 314 318 314 314 312 311 311 312 310 307 304 305 303 301 298 297 297 297 296 296 297 297 297 299 299 300 300 300 299 299 300 298 293 292 293 291 290
313 309 312 311 311 309 311 314 315 313 311 310 308 309 312 310 307 305 305 304 304 302 300 299 300 299 298 298 299 301 301 300 300 299 300 300 298 294 292 297 294 290 290 290
311 311 313 312 312 310 313 313 313 312 311 308 308 308 311 311 308 305 306 306 304 304 304 303 303 303 301 301 302 303 301 300 300 299 295 294 293 293 292 290 290 289 289 290
310 311 313 312 311 313 312 313 313 312 311 309 309 309 311 311 307 306 305 307 305 304 304 304 304 304 303 302 302 302 302 299 296 295 296 294 292 290 289 289 289 290 290 288
308 308 310 311 312 312 312 313 313 312 310 308 308 309 310 310 309 306 304 304 304 303 304 304 304 304 303 302 299 296 295 294 294 293 292 291 290 289 289 289 290 290 288 287

GFSCGP_850_thetae_045.txt.gz
Theta_e
320 322 323 321 317 316 315 317 318 316 314 312 311 311 311 311 311 311 312 315 318 318 318 318 319 319 318 319 318 319 320 320 319 320 333 336 334 334 335 336 336 333 332 333
321 322 319 320 320 320 319 318 317 313 312 312 310 310 310 310 311 312 313 314 315 316 318 318 318 319 319 319 319 319 318 319 319 319 321 330 333 334 333 333 334 334 333 333
319 318 318 319 319 320 318 316 314 314 311 309 308 309 309 309 309 310 311 312 312 313 313 314 314 315 315 317 318 319 319 319 319 319 319 326 333 335 333 332 332 335 334 333
315 312 317 317 318 316 315 312 312 311 312 313 309 312 309 308 307 307 309 311 311 312 313 314 314 314 314 314 314 316 317 317 318 319 319 319 321 328 333 332 331 330 333 331
314 313 315 317 316 313 313 310 310 310 308 308 309 309 309 305 308 308 308 310 310 311 312 313 314 314 314 314 314 314 315 315 316 316 317 320 323 325 329 330 331 331 330 330
311 311 311 311 310 311 310 308 306 306 306 306 307 308 308 307 308 305 307 310 311 311 313 313 314 314 314 314 314 314 314 314 315 315 316 316 319 325 328 332 330 331 329 328
312 311 310 310 311 310 308 308 305 304 303 307 307 308 308 306 307 307 306 308 311 310 311 312 313 314 314 313 313 314 314 314 314 314 314 314 315 318 322 323 327 330 330 328
312 314 311 310 310 311 310 308 306 308 307 308 307 310 308 306 305 307 309 310 310 311 311 311 313 314 315 314 314 314 314 314 314 314 314 314 314 314 315 319 320 324 329 330
307 309 310 310 309 309 310 305 306 305 302 302 306 305 303 305 305 306 308 310 310 311 311 312 312 312 313 314 312 313 312 310 311 311 311 312 313 314 313 314 318 320 324 327
308 311 311 311 310 310 309 306 307 298 300 306 305 305 305 307 307 307 306 308 309 312 314 315 314 313 314 312 314 313 312 311 311 310 311 311 312 314 314 313 315 320 321 326
308 308 313 312 310 310 309 308 306 305 304 307 308 308 304 307 308 307 306 311 313 314 314 315 314 314 313 314 313 312 310 311 310 310 309 310 314 315 314 313 315 320 324 327
309 306 313 312 307 307 308 308 305 301 302 306 308 308 306 305 306 307 309 312 314 315 314 313 312 311 312 312 313 312 311 311 311 311 310 313 315 314 315 315 319 323 325 326
308 304 302 306 307 306 309 307 305 304 301 298 304 307 305 305 307 309 311 313 315 314 313 312 311 311 312 311 313 312 312 311 311 310 314 318 317 316 319 320 322 321 323 322
308 304 304 304 304 304 304 308 306 305 302 305 305 306 308 307 308 310 312 315 312 312 312 312 311 311 312 313 313 313 311 311 311 313 318 319 320 321 321 321 319 319 320 320
306 304 304 305 307 304 306 308 307 303 307 304 308 308 308 309 310 311 315 311 310 309 308 309 311 312 312 312 313 312 312 313 314 314 316 315 316 317 319 317 316 316 317 318
305 303 303 303 306 306 307 306 307 307 308 308 309 309 309 309 311 316 311 308 306 303 303 308 310 311 312 312 312 311 311 310 310 311 311 312 312 313 314 313 311 309 310 309
306 304 302 304 305 307 309 308 307 307 307 309 310 310 310 314 315 314 308 305 301 300 300 307 308 310 310 311 310 309 308 307 306 306 303 303 304 305 305 306 304 302 302 301
306 305 304 303 305 310 309 309 308 309 309 308 309 310 312 313 314 311 307 303 299 299 302 308 308 309 309 309 307 307 306 305 305 305 305 303 303 304 300 301 302 300 300 300
309 310 309 309 304 306 312 313 314 312 313 311 310 311 312 312 313 310 307 302 299 299 300 303 305 305 304 304 304 304 304 304 305 303 304 301 301 300 299 299 299 299 300 300
310 310 311 309 309 312 314 312 313 312 315 312 312 311 311 313 316 313 306 303 299 299 299 301 302 301 301 301 300 301 299 298 298 298 299 297 296 298 299 299 300 299 300 299
314 313 312 310 309 309 308 309 314 317 318 313 312 312 310 311 312 309 307 304 300 298 298 299 299 299 299 298 297 297 296 297 296 296 296 297 299 299 299 300 299 299 300 300
313 314 312 311 310 309 309 313 317 314 313 311 311 310 311 312 311 307 306 305 303 299 297 298 297 297 297 297 296 298 298 297 297 298 298 299 300 300 299 299 297 297 294 290
313 309 311 308 308 307 310 311 312 312 312 311 310 309 308 311 310 306 306 306 305 302 300 298 298 298 296 296 299 300 299 299 300 300 300 299 299 298 297 297 294 291 290 289
308 309 310 311 311 309 313 313 313 313 312 311 309 308 308 310 311 307 306 306 306 305 303 302 301 301 301 300 301 301 301 300 301 300 298 294 294 294 292 290 289 289 289 289
308 309 312 312 310 312 313 313 313 313 312 310 309 309 309 310 311 308 305 305 306 305 305 304 304 303 302 302 302 302 301 299 296 295 294 294 293 291 290 289 289 289 289 288
308 309 308 307 309 310 311 313 312 312 311 310 308 309 309 311 311 308 304 304 305 305 305 304 304 304 303 302 302 300 297 296 297 296 293 292 291 289 289 289 289 289 288 287

GFSCGP_850_thetae_048.txt.gz
Theta_e
320 322 322 319 317 315 314 316 316 315 314 312 312 310 310 311 311 311 313 314 316 318 319 319 319 318 318 318 318 318 318 319 319 320 321 327 336 334 334 334 333 335 335 333
319 322 320 318 318 317 316 317 317 314 311 311 310 309 309 310 310 312 312 314 315 316 317 316 316 316 317 318 318 318 319 318 318 318 319 320 321 323 329 333 333 332 334 334
319 319 319 319 320 321 319 319 316 315 311 308 307 310 308 308 308 309 310 310 311 311 311 312 312 313 313 313 315 316 318 318 318 318 318 318 320 321 325 329 332 332 332 333
315 316 319 319 320 319 319 313 312 311 312 313 308 313 309 308 305 305 306 308 309 310 311 311 312 313 313 314 314 313 314 317 317 317 317 317 319 320 320 322 325 331 332 330
314 317 319 319 319 316 314 310 310 308 308 308 308 309 308 305 306 306 305 309 310 309 309 311 312 312 312 313 313 314 314 313 315 316 317 318 318 319 320 321 324 328 331 332
311 311 312 312 310 311 308 307 306 304 305 306 307 307 306 307 307 306 305 309 310 311 311 311 312 313 314 314 313 313 313 314 314 315 315 315 316 317 318 322 324 325 330 331
312 311 310 310 310 309 309 312 315 304 304 307 306 308 306 306 306 306 305 308 311 312 313 313 312 312 313 314 314 314 314 314 313 313 313 314 314 314 316 317 319 322 325 327
311 316 311 310 310 310 308 309 307 307 308 308 306 309 307 305 304 307 308 309 312 312 314 315 314 314 313 313 312 313 311 312 312 313 313 314 314 314 313 314 317 319 321 323
308 309 310 310 309 309 309 305 306 304 302 302 306 304 302 304 306 306 307 308 311 313 314 315 315 315 314 314 314 314 313 312 311 310 310 310 310 311 312 313 313 315 317 319
308 310 311 310 309 308 308 306 306 298 304 306 304 304 304 307 307 305 305 307 310 313 314 315 314 313 313 312 313 314 313 313 311 310 310 310 310 310 310 312 313 314 313 316
307 308 312 311 310 309 308 306 305 304 304 306 307 305 302 304 307 305 305 308 311 313 315 314 313 312 312 311 311 312 312 313 311 311 311 310 310 310 309 312 314 315 314 315
307 308 313 311 307 306 308 307 304 301 302 306 306 306 305 305 306 305 307 310 312 315 313 312 311 311 311 311 311 311 312 312 312 311 310 310 310 311 314 314 314 314 317 319
306 304 303 310 309 306 308 306 304 302 300 298 303 306 304 303 305 307 309 311 314 312 310 310 311 311 311 312 312 313 312 312 311 310 310 311 311 316 317 317 317 317 318 319
307 304 304 305 305 304 305 307 304 303 301 303 303 305 306 306 306 307 309 314 313 310 307 307 310 310 311 312 312 312 311 311 311 312 313 313 315 317 317 316 317 318 318 318
306 303 303 305 306 303 305 307 305 302 305 303 305 305 306 307 307 308 310 313 309 307 306 307 307 309 311 311 311 311 311 310 311 311 311 312 313 315 314 314 315 316 314 313
304 305 302 302 306 306 306 306 306 305 306 306 307 308 308 308 309 313 314 310 307 302 304 305 306 308 310 310 310 309 309 309 308 307 308 310 310 310 311 312 312 311 311 309
307 303 302 303 305 306 308 307 306 305 306 308 308 308 308 309 312 314 312 308 303 301 302 305 305 308 309 307 308 307 307 307 305 304 305 305 306 307 306 306 305 303 304 302
305 304 304 303 304 308 306 308 306 307 307 306 307 308 308 308 311 312 309 306 302 301 302 302 302 302 305 306 306 305 305 305 303 302 301 301 301 302 301 301 300 300 298 298
307 308 308 308 304 304 311 310 309 310 315 308 308 308 309 312 313 310 308 306 302 300 300 300 300 300 301 303 304 303 304 303 301 301 300 300 300 302 300 301 299 298 299 299
310 307 306 309 309 310 311 312 312 311 317 312 310 310 310 311 313 310 308 306 303 300 299 300 299 299 300 302 301 300 299 299 299 300 299 298 298 299 299 298 298 298 298 298
312 312 311 310 309 307 306 308 313 317 316 312 311 311 310 310 310 311 307 307 304 301 299 299 298 298 299 299 297 297 297 296 296 296 296 297 298 298 298 298 297 297 298 298
310 310 311 310 311 308 308 313 316 313 313 312 311 310 309 309 310 309 308 307 305 303 301 299 298 297 298 297 296 298 297 296 297 298 298 298 298 298 298 298 298 297 291 290
311 308 308 307 307 306 309 309 311 311 312 312 311 310 308 308 309 309 308 308 305 305 304 301 299 297 298 299 299 300 300 299 299 299 299 298 298 298 296 293 290 290 289 289
307 309 312 310 310 308 312 312 312 312 312 312 311 310 308 307 309 308 308 309 307 305 305 305 302 302 301 300 301 301 299 299 299 299 297 295 295 293 290 289 289 289 289 289
308 309 311 311 309 310 312 311 312 312 311 311 311 310 309 308 309 308 306 308 307 306 306 305 304 303 302 301 301 300 299 298 297 295 294 293 292 290 289 289 289 289 289 287
306 306 307 307 307 307 309 311 311 311 311 310 310 310 308 309 309 309 305 306 307 306 305 305 304 303 302 302 300 298 296 294 296 295 293 292 290 289 289 289 289 288 287 286

GFSCGP_850_thetae_051.txt.gz
Theta_e
318 319 319 319 316 314 315 316 317 315 313 312 314 312 311 311 311 311 313 315 316 316 316 317 317 318 318 318 318 318 318 318 319 321 323 322 323 327 333 332 332 332 333 334
320 319 318 317 315 315 315 316 317 314 311 311 310 311 311 311 311 311 311 311 311 312 312 312 312 312 313 315 316 317 318 318 318 318 319 320 322 322 324 329 331 331 332 331
315 318 318 318 319 318 317 316 315 316 311 308 309 313 310 309 307 307 306 307 308 309 309 311 311 312 312 312 313 313 315 317 318 318 318 317 318 319 320 322 324 327 330 331
314 317 319 320 320 319 321 316 313 312 313 316 308 316 311 307 306 305 307 309 310 310 310 312 312 312 311 312 313 313 313 313 316 317 317 317 317 319 319 319 319 320 323 329
314 319 318 318 319 317 317 311 310 309 309 310 309 312 310 305 307 306 306 309 310 311 313 313 312 313 314 314 313 312 313 313 313 313 314 316 317 317 317 318 319 320 321 324
311 311 314 314 312 314 308 308 306 305 308 313 308 309 308 307 307 306 306 309 311 313 315 315 314 313 313 313 314 314 314 313 313 313 313 314 315 316 318 318 319 320 320 321
312 312 310 311 312 310 309 313 315 309 310 315 306 308 309 306 305 306 307 308 311 313 315 316 315 315 314 313 313 313 313 312 312 314 313 312 313 314 316 317 318 320 319 320
314 315 311 309 310 311 309 312 314 310 310 308 306 310 308 305 304 306 307 308 310 313 315 316 315 315 314 314 314 314 313 313 312 310 310 312 313 314 313 313 313 313 315 318
310 312 309 308 308 309 309 309 305 305 302 307 307 305 303 304 304 305 307 310 312 313 315 315 314 314 312 312 312 313 313 313 313 313 311 310 310 310 310 311 312 313 313 313
308 311 310 308 309 307 309 305 309 304 309 309 305 304 305 306 306 306 306 308 311 312 315 314 313 312 311 311 311 311 311 313 313 313 313 310 310 310 310 310 309 310 311 312
307 309 312 311 310 309 308 308 305 305 304 307 306 305 303 304 306 306 306 309 310 314 313 312 311 311 311 312 312 311 311 311 312 312 311 311 310 311 311 310 310 310 311 312
306 309 313 311 306 306 307 307 304 306 306 304 306 306 304 304 305 305 306 309 311 314 312 311 310 310 311 311 312 312 312 311 311 311 310 311 311 310 310 310 310 312 313 314
306 306 308 311 308 306 309 306 303 302 301 305 307 306 304 303 304 306 307 309 312 313 310 309 310 309 310 311 311 311 311 310 310 310 311 312 312 311 311 314 316 316 316 317
306 304 306 307 306 305 306 306 304 304 305 304 304 305 306 306 306 307 308 309 313 309 306 307 308 308 309 310 310 310 311 310 310 311 312 311 311 311 312 315 315 316 315 316
306 305 303 305 306 303 306 307 305 303 304 306 305 305 306 306 306 308 309 313 311 306 305 305 307 307 309 307 308 309 309 310 311 310 310 309 310 310 311 311 312 313 312 312
304 307 302 303 306 306 307 307 306 305 306 306 306 308 308 308 308 310 313 311 307 304 302 303 305 306 307 306 307 308 309 309 308 306 305 305 305 306 308 307 308 309 307 307
307 304 303 303 305 306 308 307 307 306 305 307 308 308 306 307 308 310 311 309 305 302 301 302 302 304 304 305 305 306 307 307 307 305 303 302 302 302 303 303 304 304 304 303
305 304 304 305 304 307 306 307 305 307 306 306 307 307 307 307 308 311 310 308 303 302 300 301 301 302 302 303 303 304 305 305 306 305 303 301 301 300 300 300 300 300 301 300
306 306 307 308 306 304 309 308 306 308 314 306 306 306 307 311 311 311 309 306 304 302 300 300 300 301 301 302 301 301 301 301 302 301 300 300 300 299 298 298 298 297 298 298
308 305 305 308 309 310 308 311 309 310 317 311 308 309 310 310 312 311 308 307 305 302 300 300 300 300 300 300 298 298 298 298 298 298 298 299 298 298 298 298 298 297 298 297
312 312 309 309 310 306 304 307 312 318 316 312 311 310 309 309 309 311 309 309 306 303 302 299 299 299 299 297 297 297 296 297 297 298 297 297 297 297 297 298 298 298 298 298
310 311 311 310 310 307 306 312 316 313 311 312 311 310 309 308 309 310 309 308 306 304 303 300 299 299 298 298 298 298 298 297 297 298 298 298 298 298 298 298 298 295 292 290
310 305 307 306 306 305 308 309 312 311 310 311 310 310 309 308 308 309 308 308 307 305 305 302 301 301 301 301 300 300 300 299 298 299 299 298 298 296 292 290 290 290 289 289
307 307 310 309 308 307 311 312 311 311 310 311 310 310 309 308 308 309 307 308 307 306 306 305 304 302 302 302 301 302 300 299 299 298 296 294 292 291 290 289 289 289 289 288
307 308 310 310 309 309 309 309 309 310 311 311 310 310 309 308 308 308 307 308 307 306 306 305 305 304 304 302 301 298 298 298 295 295 294 292 291 290 289 289 289 289 288 287
305 305 307 307 306 308 309 310 308 309 308 308 309 309 308 307 308 308 308 307 308 307 306 305 304 304 303 301 299 298 297 295 295 294 292 291 290 289 289 289 289 287 286 285

GFSCGP_850_thetae_054.txt.gz
Theta_e
317 319 322 320 317 316 317 317 316 316 315 317 317 318 318 316 316 316 316 316 316 316 316 314 316 317 317 318 318 318 317 316 319 332 325 331 336 332 332 331 329 334 333 333
317 320 318 318 318 317 317 316 317 317 314 316 316 317 317 316 316 314 313 314 314 313 312 311 312 314 314 315 316 317 317 318 318 322 327 320 328 332 333 329 328 330 330 330
318 319 318 318 318 318 318 317 318 318 314 312 314 317 314 311 310 310 308 308 309 310 312 313 313 311 311 312 312 313 314 316 317 317 322 329 330 329 323 322 323 325 327 328
312 317 318 318 318 317 319 318 317 316 318 319 313 318 314 310 312 312 312 311 312 312 313 314 314 314 313 313 312 312 312 313 314 316 316 323 329 329 324 318 319 320 322 324
314 316 320 319 319 318 320 316 315 314 316 316 315 317 313 311 312 312 313 312 313 314 314 315 314 313 313 313 313 313 313 312 312 312 313 315 326 328 328 328 323 322 320 319
314 314 315 314 313 316 311 313 311 312 315 320 315 314 312 312 312 313 313 313 313 314 315 316 315 315 314 313 313 313 313 313 313 312 312 312 312 323 327 327 328 327 325 320
313 312 312 312 311 311 314 317 320 319 321 321 309 312 313 310 311 312 312 313 313 314 315 315 315 315 315 315 314 314 313 313 313 311 312 313 312 314 323 326 328 328 327 323
318 317 312 311 314 315 316 317 320 318 316 313 309 312 312 309 309 309 309 310 311 313 315 315 314 314 314 314 313 313 314 314 313 313 312 311 310 313 313 313 319 325 326 325
317 315 311 310 310 314 313 317 309 312 308 313 311 310 309 307 309 309 311 313 313 313 316 315 313 313 312 311 311 311 311 312 312 313 313 313 312 310 310 310 311 312 312 313
312 316 311 309 310 310 313 310 315 314 316 315 310 309 311 310 310 310 312 313 313 314 316 313 313 312 311 311 312 312 312 312 312 312 312 312 312 311 310 310 310 310 310 310
311 314 313 312 313 314 311 313 310 311 310 311 308 309 308 311 311 310 311 312 312 315 314 312 311 309 311 311 312 312 311 311 311 311 311 311 311 310 310 310 310 311 311 311
310 313 315 313 308 308 310 312 310 315 313 310 311 310 309 309 309 309 311 312 313 314 312 309 308 308 309 311 311 311 310 310 311 311 311 311 311 311 311 311 311 311 311 311
310 312 313 312 310 309 311 310 308 308 309 312 312 312 308 309 309 310 311 312 314 313 309 307 306 307 308 309 310 310 310 310 310 310 311 311 311 311 311 311 311 311 313 314
308 309 312 313 313 311 312 310 308 312 315 311 311 311 310 310 311 312 312 313 313 310 306 305 306 306 307 308 308 308 309 310 310 310 311 311 310 310 310 310 311 312 314 315
310 313 309 308 309 309 310 311 309 309 311 315 310 309 310 310 311 311 311 314 312 307 305 303 305 303 306 306 308 309 309 309 309 309 309 309 309 310 310 310 310 311 312 311
308 311 309 310 308 308 310 310 310 309 310 309 311 312 311 311 310 311 313 312 310 305 303 301 303 301 305 305 306 307 306 307 308 308 307 307 306 307 307 306 306 307 306 305
310 310 311 312 308 309 312 310 310 310 309 310 312 312 311 311 311 312 313 310 307 303 301 300 302 300 303 303 304 305 305 306 306 305 305 305 303 304 304 303 303 302 300 299
309 310 310 312 309 314 310 308 309 310 309 309 310 310 311 311 311 312 311 308 305 303 301 302 302 302 302 301 303 303 303 303 303 302 302 302 302 301 300 300 300 300 299 298
309 311 311 313 311 310 311 309 309 310 312 309 310 311 311 312 312 313 311 309 306 305 302 302 301 301 301 301 301 300 300 300 301 301 301 300 301 300 299 299 298 297 298 298
308 309 311 310 311 312 313 312 311 309 319 313 310 312 313 311 316 317 311 308 306 306 304 300 300 300 300 299 298 298 299 298 299 299 299 299 299 299 298 298 298 297 297 297
312 311 312 311 310 310 309 307 312 320 317 312 312 312 311 313 312 311 310 308 306 305 303 301 299 298 299 298 298 298 298 298 298 298 298 298 298 298 298 297 297 297 297 297
311 312 312 311 311 311 307 312 315 314 312 311 311 310 310 309 308 309 309 307 306 306 303 301 300 299 299 299 298 298 299 297 297 297 298 298 297 297 297 297 296 293 290 290
311 310 311 311 310 308 308 310 309 310 310 310 310 309 309 308 308 308 307 308 307 306 304 302 301 301 301 300 300 300 300 300 299 299 299 298 298 296 291 290 290 290 290 289
310 309 311 311 311 309 308 310 310 310 310 311 311 309 309 307 308 307 307 308 307 306 305 304 303 303 302 302 301 301 300 300 299 298 297 293 291 290 290 290 290 290 289 288
311 310 311 312 312 311 309 310 310 310 310 310 310 309 309 308 308 308 307 308 307 307 305 305 304 303 302 300 300 300 299 299 297 294 293 291 290 289 289 290 290 289 288 287
309 311 312 313 311 311 311 309 308 308 309 309 309 309 308 308 307 308 307 307 308 307 306 305 304 302 303 302 300 300 297 296 295 294 292 290 290 289 290 290 288 287 287 286

GFSCGP_850_thetae_057.txt.gz
Theta_e
319 320 321 319 317 316 316 316 316 316 318 318 317 318 317 317 317 317 317 317 317 316 317 317 316 316 316 317 318 319 319 319 320 325 333 337 332 323 329 333 337 339 338 337
320 316 319 317 317 317 317 316 317 317 316 317 317 318 317 317 317 316 317 317 317 317 316 315 313 313 313 314 315 316 318 318 319 319 324 331 331 323 323 328 332 334 336 335
318 318 316 319 318 317 316 317 316 317 317 316 317 317 317 314 313 313 312 312 313 313 314 315 316 315 314 314 313 313 315 316 317 318 319 323 331 333 334 332 331 332 333 335
315 317 317 319 319 317 317 316 316 318 317 315 316 315 318 313 313 314 313 312 313 315 315 316 316 316 316 314 313 312 312 312 313 315 317 318 323 329 332 332 333 332 327 324
316 317 319 318 318 317 317 318 318 318 319 318 318 318 316 313 314 314 314 314 315 316 316 317 317 316 317 314 313 313 314 313 312 312 312 313 315 320 327 330 331 330 331 329
314 311 315 318 314 317 318 316 316 316 318 322 320 317 315 313 314 314 314 315 315 316 317 317 317 317 317 316 314 313 313 315 315 312 312 312 312 314 321 327 328 329 330 330
310 310 313 312 314 313 317 319 322 323 323 322 314 316 316 314 314 314 314 315 315 316 317 317 317 316 316 315 315 314 314 315 314 314 313 312 312 313 313 319 324 327 327 327
320 318 310 310 314 316 318 320 323 322 322 320 311 315 315 313 313 312 313 314 314 316 318 317 316 315 315 314 313 312 313 313 313 314 314 314 314 312 312 313 316 322 325 326
318 317 310 311 312 315 316 319 313 314 312 315 313 312 311 311 312 311 314 315 316 316 318 316 315 314 314 313 312 312 312 312 313 313 314 315 315 316 314 314 314 315 316 319
314 317 312 311 313 312 316 313 318 319 318 316 313 312 313 310 311 312 314 315 315 315 317 315 314 313 313 313 311 311 311 311 311 311 312 313 313 312 311 311 310 311 311 312
314 315 314 313 315 315 314 315 314 314 313 315 312 311 310 311 312 312 313 314 314 316 316 313 312 311 312 311 310 310 311 311 311 311 311 311 311 311 311 311 311 311 311 311
313 315 316 315 311 311 313 315 315 318 316 313 313 313 310 312 312 311 312 314 315 316 314 311 310 310 311 309 309 309 310 310 310 310 310 310 310 311 311 311 311 311 311 312
312 314 315 314 312 311 313 313 312 311 314 316 314 313 311 311 311 312 313 314 316 315 311 309 309 309 309 307 308 309 309 309 310 310 310 310 310 310 310 310 310 310 310 311
311 312 314 316 316 314 313 313 312 314 316 314 312 312 311 311 312 314 313 314 315 313 309 308 308 308 307 305 307 308 309 309 309 309 309 308 309 309 310 309 309 308 309 310
312 315 311 311 311 312 313 312 311 312 313 318 312 312 312 311 313 313 312 315 315 312 308 306 306 306 305 304 304 307 307 307 307 308 308 307 307 308 308 309 309 309 309 309
311 313 311 312 310 310 311 311 312 311 311 312 312 312 312 312 312 313 314 315 314 310 307 305 303 303 303 303 304 306 306 306 307 307 307 306 306 305 305 306 306 306 305 306
312 312 313 315 310 310 313 311 311 312 311 312 313 312 312 313 314 314 315 315 312 309 306 304 302 301 301 302 304 303 304 305 305 305 305 304 304 303 303 302 302 302 302 302
312 312 312 314 311 316 313 310 311 311 311 310 311 311 311 313 313 313 314 313 310 307 304 303 302 301 301 301 300 302 303 303 302 303 304 302 303 301 301 300 299 299 299 299
311 311 313 314 314 314 311 310 311 312 312 310 311 311 312 313 313 314 313 309 306 305 303 302 300 301 302 300 301 300 301 300 300 302 301 300 300 299 299 299 299 298 297 297
310 311 312 312 314 315 316 313 311 311 318 313 311 312 314 314 318 319 311 309 307 306 304 301 299 301 301 300 298 298 298 298 299 301 300 299 299 298 299 298 298 298 298 298
312 312 313 312 312 312 311 313 314 320 318 314 314 314 313 314 313 312 309 308 308 308 302 300 300 300 300 299 297 297 298 298 299 299 299 299 299 298 298 298 298 297 297 296
312 312 312 311 312 312 309 311 315 313 314 313 313 312 312 311 310 309 307 306 309 308 302 301 302 302 300 299 299 298 299 298 298 299 299 298 298 298 298 297 294 290 290 290
311 311 312 311 312 310 312 313 311 311 312 312 311 310 310 309 309 309 308 306 308 307 304 302 302 303 302 300 300 300 299 298 299 298 298 298 298 293 290 290 290 290 289 288
311 310 311 312 312 310 310 311 311 311 311 311 311 311 310 309 309 309 308 306 308 307 305 304 303 303 303 302 301 301 300 300 299 298 298 294 291 290 290 290 290 289 288 287
311 311 312 311 312 312 312 311 311 309 309 310 309 309 309 308 308 308 308 307 306 308 306 305 303 303 303 303 302 301 300 299 298 296 293 291 290 290 290 290 290 289 288 288
310 311 312 312 311 312 312 310 308 308 307 308 308 308 308 308 307 307 307 307 306 308 307 306 304 304 303 302 301 300 300 298 296 294 292 290 290 290 290 290 289 288 288 287

GFSCGP_850_thetae_060.txt.gz
Theta_e
316 318 318 318 318 317 316 317 318 316 318 318 318 318 317 317 317 317 317 317 317 317 317 317 317 317 318 318 318 319 320 320 321 323 329 336 337 332 332 328 330 336 338 335
317 318 317 317 317 317 316 315 316 316 318 317 316 316 316 316 316 317 317 317 316 316 317 316 316 315 316 316 315 316 317 318 319 319 320 325 331 332 331 329 326 325 330 338
317 316 317 318 317 317 315 315 315 316 316 316 316 315 316 316 315 315 314 314 314 314 314 314 316 315 314 313 313 314 315 316 317 318 319 319 322 327 333 330 325 321 323 331
318 316 317 319 319 317 317 315 316 318 316 316 315 311 315 314 312 312 313 311 312 313 315 316 316 316 316 314 313 312 312 312 313 316 317 318 319 320 330 331 328 328 328 329
315 316 318 316 319 317 317 316 317 317 317 318 315 314 316 311 312 312 312 314 315 316 316 316 316 317 317 315 313 313 313 314 313 312 312 312 314 317 320 325 330 331 332 331
313 312 315 315 316 317 317 316 316 317 317 320 318 315 312 311 312 312 313 314 315 317 317 317 317 317 317 316 315 314 313 313 315 315 313 312 312 312 312 314 320 327 329 329
313 311 311 312 317 317 317 316 318 321 320 320 315 316 314 311 311 312 313 315 316 316 317 317 317 316 316 315 315 314 314 314 314 314 315 315 314 313 312 312 314 321 325 327
316 315 311 310 315 316 318 317 317 318 320 315 312 314 313 311 313 314 315 315 315 316 318 317 316 315 315 314 314 313 312 313 313 313 314 314 314 315 315 314 314 315 318 324
317 315 310 311 313 315 318 319 313 314 312 313 311 311 310 311 310 312 313 314 315 316 318 316 315 315 314 313 313 312 311 311 312 312 313 314 315 315 315 315 314 313 312 312
314 316 311 313 312 312 315 316 316 313 311 316 312 312 311 309 310 310 312 315 315 315 317 316 314 313 312 313 311 311 311 310 310 311 311 311 312 312 312 312 311 311 311 311
314 316 315 313 314 315 314 317 314 313 312 314 310 309 310 309 309 309 312 314 315 316 316 314 312 311 311 311 310 310 310 310 310 310 310 310 310 311 311 311 311 311 311 311
313 314 316 315 311 312 313 315 315 319 316 310 310 310 308 308 309 312 313 314 314 316 315 312 310 310 311 309 309 309 309 310 310 310 310 310 310 310 310 310 310 310 310 310
312 313 313 313 312 311 313 313 313 311 312 315 313 309 310 309 310 311 313 314 315 316 313 310 309 309 310 308 307 307 308 309 309 309 310 310 310 310 310 310 310 309 309 309
311 312 313 313 315 313 312 312 312 310 309 312 311 310 310 309 310 312 313 314 316 314 311 308 308 308 308 307 306 306 307 308 309 309 309 309 309 309 309 309 309 309 308 309
312 311 307 311 312 309 312 312 311 305 310 308 311 310 309 308 311 312 312 314 315 313 309 307 306 306 306 305 305 306 307 308 308 308 307 307 307 307 307 307 307 307 308 309
311 310 309 310 310 310 310 310 311 310 310 310 310 311 310 312 312 313 314 315 314 312 309 306 305 304 304 304 304 304 306 306 306 306 304 304 305 304 304 304 304 304 306 305
311 309 309 310 310 310 310 310 310 311 310 310 310 310 311 312 314 314 315 315 313 310 308 306 304 303 303 303 304 304 305 305 304 305 303 303 302 303 302 301 302 302 302 300
311 311 311 311 310 310 313 309 310 310 311 310 311 311 311 312 313 313 314 315 311 308 307 305 303 302 302 302 302 303 303 303 303 303 302 301 301 302 301 300 300 299 299 299
309 310 311 311 310 312 311 309 310 310 311 310 309 310 311 314 313 313 314 312 310 309 307 304 303 302 302 302 302 301 301 301 301 301 300 300 300 300 300 299 298 297 297 298
309 310 310 311 312 314 315 311 310 311 316 309 310 310 313 313 316 314 313 311 310 309 307 304 303 302 301 301 300 299 299 299 300 300 299 299 299 300 299 299 298 298 298 298
310 310 312 311 313 310 313 312 312 317 316 313 311 313 313 313 312 313 312 310 309 309 308 304 302 302 300 299 299 299 299 299 300 300 299 299 299 299 299 299 298 296 292 290
312 312 313 312 313 309 311 310 314 313 313 313 312 312 312 311 310 310 309 308 308 308 307 304 302 301 299 300 301 301 300 300 299 299 299 299 298 298 297 294 291 290 290 290
310 309 310 309 310 310 311 312 312 313 312 312 312 311 311 311 310 309 309 308 308 308 307 305 304 301 301 302 301 301 300 300 299 298 297 298 297 293 291 290 290 290 289 288
309 310 309 310 311 308 311 311 312 312 312 312 313 312 311 311 310 309 309 308 308 308 307 305 306 303 302 302 302 301 300 300 299 299 298 295 291 290 290 290 290 290 289 288
310 309 310 309 309 312 311 311 311 310 310 310 310 310 310 309 309 309 309 308 308 307 307 306 306 304 303 303 302 301 301 300 299 298 294 292 291 291 290 291 290 289 288 288
309 309 310 310 310 311 311 311 310 309 308 308 309 309 308 308 308 308 308 308 308 307 307 307 305 304 304 303 302 302 300 299 298 296 293 291 291 290 290 290 289 289 288 288

GFSCGP_850_thetae_063.txt.gz
Theta_e
316 317 317 316 317 315 317 318 316 316 316 317 318 317 317 316 316 316 317 317 317 317 317 317 317 317 317 317 317 318 320 321 321 323 323 331 333 333 333 334 334 333 333 333
317 317 315 315 316 317 315 316 317 315 316 317 317 317 316 315 314 316 316 317 317 316 316 316 316 317 317 317 318 318 318 319 320 320 319 320 322 326 331 330 330 333 333 330
317 316 315 317 316 317 316 313 313 316 315 314 314 314 314 313 315 316 315 315 315 314 314 315 315 315 315 316 316 315 316 316 317 318 319 319 319 320 322 325 329 332 332 327
316 315 316 317 317 316 317 313 314 315 314 316 314 314 310 313 312 311 313 313 314 313 315 315 315 315 315 315 314 313 313 314 314 316 317 318 318 318 319 322 331 331 329 327
316 315 317 319 318 317 315 314 315 315 314 314 315 312 311 311 311 310 311 311 311 315 315 316 316 315 315 314 313 313 313 314 313 313 312 312 313 315 316 318 320 322 328 330
314 313 315 315 315 316 316 315 313 313 315 315 316 313 311 310 313 310 310 314 315 316 317 317 317 317 317 316 315 314 313 313 313 314 313 313 312 312 312 312 313 316 319 326
313 312 311 314 316 315 318 313 313 315 312 315 311 315 313 310 309 309 311 314 316 317 317 317 317 316 316 315 314 314 314 314 314 314 314 314 314 314 313 312 312 312 315 323
312 318 313 311 313 318 318 313 312 314 314 314 310 316 313 308 310 313 314 315 316 317 317 317 316 315 314 314 314 313 312 312 312 313 313 313 314 314 314 314 313 313 314 314
312 312 310 311 313 314 317 315 313 310 309 307 309 310 311 310 310 312 313 315 315 316 317 317 315 315 314 313 313 312 311 311 311 311 312 313 314 314 315 315 315 314 314 312
312 313 312 312 313 313 315 314 314 306 310 314 309 310 310 311 310 310 311 313 314 316 317 316 315 314 313 312 312 311 311 311 311 310 311 311 311 311 312 312 312 312 311 311
314 312 314 313 314 316 314 315 314 311 308 311 309 308 308 311 310 309 311 314 315 315 316 315 314 312 311 312 311 310 310 310 310 310 310 310 310 310 310 310 310 311 311 311
312 313 314 316 313 313 314 315 313 311 313 305 305 309 306 307 308 309 312 314 314 316 316 315 313 311 310 311 310 309 309 309 309 309 310 309 309 309 309 310 310 310 310 310
311 311 310 311 310 310 313 313 315 310 309 308 307 308 305 306 309 312 313 313 314 315 315 314 311 309 309 309 308 308 308 308 309 309 309 309 310 309 309 309 310 309 308 308
311 310 310 309 310 310 310 313 310 310 310 312 309 309 308 307 308 309 312 313 315 315 314 312 309 309 309 308 307 307 307 307 308 308 308 309 308 308 308 308 309 309 308 308
310 307 306 310 311 308 311 311 310 306 309 307 310 309 308 307 307 309 313 314 315 314 312 310 308 307 307 306 306 306 306 306 307 307 307 307 307 307 307 307 307 308 307 308
308 306 305 306 310 309 309 309 310 309 309 309 309 309 307 308 311 312 312 315 314 313 311 309 307 306 305 305 305 305 305 305 305 306 306 305 306 306 306 306 306 305 304 304
309 306 305 307 309 309 308 309 309 310 308 309 309 308 308 309 311 312 313 315 314 312 310 308 306 305 304 304 304 304 304 304 304 305 305 305 304 304 303 302 301 301 301 301
308 307 306 305 306 307 305 308 308 309 309 308 309 309 308 311 312 313 314 315 313 311 309 307 305 304 303 303 303 303 303 304 304 304 304 304 303 302 301 300 300 299 300 300
307 308 308 307 304 305 311 309 309 309 309 308 308 308 310 313 313 313 314 314 312 310 309 307 304 303 302 302 302 302 302 302 302 303 303 302 301 300 299 299 298 298 299 299
308 307 306 306 309 313 314 310 310 310 313 308 308 308 309 313 313 312 311 312 310 310 309 307 305 303 303 302 301 301 301 301 301 301 301 301 301 300 298 298 298 298 298 296
309 308 308 310 308 308 312 311 311 316 314 310 309 310 312 311 312 314 312 311 310 309 309 307 305 304 302 302 302 300 299 299 300 301 301 300 300 299 298 298 296 291 291 290
310 311 312 311 312 309 311 310 315 312 312 312 312 312 312 312 311 310 310 309 308 309 308 307 305 304 303 302 302 300 299 299 300 301 300 299 299 298 296 292 291 291 290 289
308 307 309 308 308 307 309 311 313 313 312 312 312 311 311 311 310 310 310 309 308 308 308 307 306 305 303 303 303 302 301 300 300 299 299 299 298 294 291 291 291 290 289 289
308 308 307 308 309 308 311 312 312 312 312 312 312 312 312 311 310 310 309 310 309 308 308 308 307 305 304 304 304 302 301 300 299 297 298 298 292 291 290 291 291 290 289 288
307 307 307 307 308 309 310 311 311 311 311 311 311 311 310 310 309 309 309 309 309 308 308 308 308 306 305 304 304 303 301 300 299 299 297 293 291 291 290 291 291 290 289 288
307 307 308 308 309 309 310 310 311 310 310 309 309 309 309 309 309 308 308 308 309 308 308 307 308 306 304 305 304 302 301 301 299 298 295 292 291 290 291 291 290 289 288 288

GFSCGP_850_thetae_066.txt.gz
Theta_e
317 317 316 316 316 317 318 316 318 317 316 317 318 317 317 316 315 315 317 318 318 317 317 317 317 317 317 317 317 319 321 322 323 323 326 328 332 335 336 337 336 335 335 336
318 316 314 314 316 317 318 317 316 315 316 317 316 317 316 316 314 315 317 317 317 316 316 316 316 316 317 317 317 317 318 318 319 320 322 322 322 322 324 327 331 334 332 332
316 314 314 315 317 318 316 317 315 315 314 314 315 315 315 314 314 316 316 316 316 316 315 315 315 316 316 316 317 317 317 317 318 318 318 318 319 320 320 321 323 327 329 332
316 314 315 315 317 315 317 313 313 315 315 317 313 315 310 313 312 311 314 314 315 314 314 314 315 315 315 315 315 315 315 314 315 315 316 316 317 318 318 318 318 319 320 324
315 315 316 317 316 314 315 312 313 313 313 313 314 313 311 309 311 310 310 312 313 313 314 315 315 315 315 314 313 313 313 313 313 313 313 313 314 315 316 316 317 317 319 325
314 313 314 315 315 316 315 313 312 313 314 314 313 312 310 310 311 312 309 310 311 314 315 316 316 315 315 315 314 313 313 313 313 313 313 313 313 312 312 312 312 312 313 315
314 313 312 313 315 315 316 312 315 319 319 314 312 313 313 309 308 309 309 312 314 315 316 316 316 316 315 315 314 314 314 314 314 314 314 314 313 313 313 313 312 312 312 312
315 318 314 311 314 318 317 312 310 315 315 314 310 315 314 309 309 311 313 315 316 317 317 316 316 316 315 314 314 313 313 312 312 313 313 313 313 313 314 314 314 314 313 312
311 313 311 312 313 314 317 314 311 307 306 306 309 309 309 309 309 310 312 314 316 317 317 317 316 315 314 313 313 312 312 311 311 311 311 312 312 313 314 314 314 315 314 314
310 312 311 312 313 313 315 313 313 304 309 312 309 308 310 311 311 311 311 313 315 317 317 317 316 314 314 313 312 312 311 311 311 310 310 310 311 311 311 311 311 311 311 311
309 309 312 313 314 316 316 316 312 310 307 311 310 308 304 310 311 312 312 314 314 316 316 316 315 314 312 311 311 311 310 310 310 310 310 310 310 310 310 310 310 310 310 310
312 311 314 313 313 313 314 315 312 311 310 303 304 306 304 307 309 311 311 313 314 315 316 315 314 313 311 311 311 310 309 309 309 309 309 309 309 309 309 309 309 310 310 309
311 308 308 312 311 311 315 313 313 309 304 302 305 306 305 305 307 311 312 313 314 315 315 314 314 312 310 310 310 309 308 309 308 308 308 309 309 309 309 310 310 309 309 308
310 309 307 308 310 309 311 313 312 310 307 309 307 308 307 308 309 310 313 314 314 315 315 314 313 310 309 309 308 308 307 307 308 308 308 308 308 308 308 308 308 308 308 308
307 304 305 310 310 306 309 312 310 308 313 312 313 308 307 308 308 309 312 313 313 314 314 313 311 309 308 308 307 307 306 306 307 307 307 307 307 307 307 307 307 307 307 307
306 306 303 306 310 308 309 309 310 308 308 309 309 310 307 308 308 309 310 312 314 314 313 312 310 308 307 306 306 305 305 305 306 306 306 306 306 305 306 306 306 305 305 306
307 305 303 305 308 308 307 308 308 310 308 309 309 309 307 307 309 310 311 313 314 314 313 311 309 308 306 305 305 304 305 305 305 305 305 305 305 305 304 303 303 303 303 302
306 305 304 304 305 305 305 307 307 309 309 307 308 307 308 309 311 312 312 313 314 314 312 311 309 307 305 304 304 304 304 303 304 304 304 304 304 303 302 302 302 301 300 300
306 306 307 307 303 305 308 308 308 308 308 306 307 307 308 311 312 312 313 314 314 313 312 310 308 306 304 303 303 303 302 302 302 302 303 302 301 301 301 300 299 299 299 299
306 305 305 304 308 311 311 309 309 308 309 307 307 306 309 311 311 310 313 314 313 312 310 310 308 305 303 302 302 302 301 301 301 301 301 301 300 299 300 299 299 298 297 294
309 310 308 307 304 307 306 310 310 311 310 310 308 308 309 310 311 314 312 312 311 310 310 309 307 305 304 303 302 301 299 298 299 299 299 299 300 300 300 299 296 291 291 290
307 310 310 309 310 307 310 310 313 311 312 310 309 309 312 312 312 312 312 311 311 310 309 309 307 305 304 303 301 300 300 301 301 300 299 299 299 300 299 293 291 291 290 290
308 305 307 306 307 306 310 309 311 313 312 312 312 312 312 311 311 311 310 310 309 308 307 308 307 305 304 303 302 302 302 302 302 300 299 299 299 297 292 291 291 291 290 290
307 306 307 308 307 307 310 311 312 313 312 312 311 311 311 311 311 311 311 310 309 309 308 308 308 306 305 304 303 302 302 302 301 300 299 299 298 293 291 291 291 290 290 289
305 306 306 306 306 308 309 311 312 312 312 311 311 311 311 310 310 310 309 309 309 309 308 307 308 308 305 304 304 303 302 301 301 300 299 298 293 291 291 291 291 290 289 289
305 306 306 306 307 308 308 310 311 311 311 310 310 309 309 309 309 308 308 308 308 308 308 308 308 307 306 305 304 304 303 301 301 301 299 296 292 291 290 290 291 290 289 289

GFSCGP_850_thetae_069.txt.gz
Theta_e
315 315 314 315 314 315 315 316 318 317 316 318 318 317 317 315 314 314 316 317 319 319 318 318 318 317 317 317 318 318 321 332 332 338 338 337 338 338 337 338 338 337 336 337
318 312 312 313 315 316 316 316 317 316 315 318 317 317 316 316 316 316 315 316 317 317 317 316 316 316 317 316 316 317 318 320 321 322 323 325 327 329 330 331 333 336 336 336
315 315 313 315 316 316 316 315 315 317 314 313 315 316 316 314 314 316 316 315 316 317 316 316 316 316 316 316 316 316 316 317 317 318 319 320 322 324 324 323 323 325 327 330
315 314 314 315 317 315 317 314 314 314 315 318 315 318 312 313 313 312 316 316 315 315 315 315 315 315 315 316 316 316 316 316 316 316 316 316 317 317 318 318 319 319 319 319
314 314 314 316 316 313 315 312 313 313 314 314 313 314 312 309 311 313 313 315 314 315 315 315 315 315 315 315 315 315 314 314 313 313 313 313 314 314 314 314 315 316 316 317
314 313 313 314 314 314 314 312 312 312 312 314 313 313 312 309 309 311 311 314 313 313 314 314 315 315 315 315 314 313 313 313 313 313 314 314 313 313 312 312 312 312 312 312
315 314 313 313 314 315 314 312 314 316 317 315 310 312 315 309 307 308 309 310 311 313 314 315 315 315 314 315 314 314 314 314 313 313 313 313 313 313 313 313 313 312 312 312
316 317 314 311 313 314 313 311 310 316 316 314 310 314 313 309 309 309 310 311 311 314 315 315 316 316 315 315 314 313 313 313 313 313 313 313 313 313 313 313 313 313 313 313
312 314 312 313 313 313 315 316 308 306 304 306 309 308 307 308 308 307 310 311 311 314 316 316 316 316 315 314 313 313 312 312 311 311 311 311 311 312 312 313 313 314 314 314
309 314 311 313 313 313 314 311 313 303 308 312 310 308 310 310 309 307 309 312 315 316 316 316 316 315 314 314 313 312 312 311 311 310 310 310 310 310 311 311 310 311 311 310
307 309 312 314 315 316 317 316 312 309 306 311 310 309 304 305 308 309 310 313 315 316 316 316 316 315 314 313 312 312 311 310 310 310 310 310 310 310 309 309 309 309 309 309
310 309 313 314 311 313 315 316 310 309 309 302 303 307 305 302 306 310 311 313 315 316 316 316 316 315 314 313 311 311 310 310 309 309 309 309 309 309 309 309 309 309 309 309
310 310 313 312 311 312 316 315 311 306 302 302 306 308 304 305 307 311 312 314 314 315 316 315 314 314 313 311 310 310 309 308 308 308 308 308 308 308 309 309 309 309 309 309
310 308 307 308 307 310 314 316 311 308 306 307 305 308 308 307 307 309 312 313 314 314 315 315 314 313 311 310 309 308 308 308 307 307 307 308 308 308 307 307 307 307 308 308
307 308 305 309 310 306 308 312 313 307 313 311 313 308 309 307 306 309 312 312 313 314 314 314 314 313 311 309 308 308 307 306 306 306 306 307 307 306 306 306 306 307 307 307
305 304 303 305 309 308 308 308 312 312 311 311 311 309 307 307 309 309 312 313 313 314 314 313 313 311 310 308 307 307 306 305 305 305 306 306 306 305 305 305 306 306 306 305
306 304 302 303 306 306 307 306 308 310 307 310 311 313 307 305 307 309 310 311 312 313 314 314 313 311 309 307 306 306 305 305 305 305 305 305 305 305 305 304 303 304 303 302
304 303 303 302 304 304 305 306 306 308 308 307 307 307 307 307 309 310 310 310 311 313 314 313 312 310 308 307 305 304 304 304 304 304 304 304 304 304 303 302 302 302 301 301
304 304 306 306 302 304 308 308 307 307 307 306 307 307 307 308 309 310 311 312 312 313 314 312 310 309 307 305 304 303 303 303 303 303 303 303 303 302 301 300 301 300 300 300
305 303 304 303 307 309 307 309 307 307 308 308 306 305 307 310 310 308 312 313 313 313 312 311 310 309 307 305 304 303 302 302 302 302 302 302 301 300 299 300 300 299 299 294
308 309 306 306 304 305 304 308 308 309 308 310 307 307 308 308 309 311 312 312 313 312 311 310 310 309 306 305 304 303 303 301 300 299 299 300 299 298 299 299 298 294 292 291
307 309 308 305 306 305 308 309 310 308 312 309 307 307 308 312 312 314 312 312 311 311 310 310 310 309 307 305 304 303 302 301 299 298 299 299 299 299 298 298 292 291 290 290
306 305 306 305 305 305 308 310 310 312 312 311 310 309 310 312 312 311 311 310 310 309 309 308 308 308 306 305 304 303 301 301 299 298 299 300 299 298 298 292 291 291 290 289
305 304 305 306 306 305 308 309 310 312 312 312 311 311 311 311 311 310 310 311 310 310 309 308 307 308 307 305 304 303 301 301 300 299 299 299 300 298 293 291 291 291 290 289
305 304 305 304 305 307 308 309 311 312 312 311 311 312 311 311 312 313 313 313 312 311 309 308 307 307 307 305 304 303 302 302 301 300 300 299 300 296 291 291 291 291 290 289
304 305 305 305 306 307 308 309 310 311 311 311 311 310 310 309 309 308 308 308 308 308 308 308 308 307 306 306 305 304 303 303 302 301 300 300 299 293 291 291 291 291 290 289

GFSCGP_850_thetae_072.txt.gz
Theta_e
311 312 313 315 313 314 313 315 316 316 318 318 319 319 316 319 317 318 318 316 317 318 318 318 317 317 319 320 322 325 328 332 337 338 337 338 339 339 338 337 337 337 336 336
315 312 311 313 315 314 314 314 315 316 317 318 318 318 318 317 315 315 315 316 316 317 318 318 318 318 317 317 317 317 318 319 324 333 332 336 337 334 333 332 334 336 336 336
314 313 312 314 315 315 314 314 314 315 315 314 316 318 318 317 318 316 316 316 316 316 316 316 316 317 317 316 316 316 316 317 319 321 321 322 322 323 325 327 329 330 330 329
314 311 314 314 316 314 316 313 313 314 316 318 315 320 316 318 316 315 316 315 317 316 315 315 315 316 316 316 316 316 316 316 316 316 316 316 317 317 318 319 320 320 320 320
315 312 315 316 316 313 315 312 313 313 313 314 314 316 315 308 313 316 316 315 316 317 315 315 315 315 315 315 315 315 315 315 315 314 314 314 314 314 314 314 314 315 315 316
311 312 314 314 313 313 311 311 312 312 312 315 313 314 314 310 309 309 311 314 316 316 314 314 314 314 314 315 315 314 314 313 313 313 313 313 313 313 313 312 312 312 312 312
315 315 312 312 314 314 311 311 313 315 313 315 310 313 315 311 307 307 308 311 313 315 314 313 314 314 315 315 314 314 313 313 313 313 313 313 313 313 313 313 313 313 312 312
317 316 314 310 312 313 313 312 309 315 314 313 309 314 313 310 309 309 309 311 311 312 312 314 314 315 315 314 314 314 313 313 313 313 312 312 312 313 313 313 313 313 313 313
313 315 312 313 312 312 314 316 307 305 303 305 309 308 307 306 306 307 308 309 310 310 313 314 315 315 315 315 314 313 313 312 312 312 311 311 311 311 311 311 312 312 312 312
309 315 312 313 313 312 312 309 314 303 308 311 309 308 309 308 308 307 307 309 309 311 314 315 315 315 315 314 313 313 312 312 311 311 311 310 310 310 310 310 310 310 310 310
307 310 314 313 313 313 315 313 310 308 306 311 310 309 304 306 304 304 306 310 310 313 315 315 315 315 315 314 313 312 312 311 311 310 310 310 310 310 310 309 309 309 309 309
308 308 313 314 311 311 314 314 308 307 307 301 303 307 304 303 302 305 308 311 313 315 315 316 315 315 315 314 313 312 311 311 310 309 309 309 309 309 309 309 309 309 309 309
308 307 312 312 311 311 314 314 311 305 303 301 308 310 303 304 308 310 310 312 315 315 315 315 315 315 314 314 312 311 310 309 309 308 308 308 308 308 308 308 308 308 308 308
308 306 306 308 307 309 313 315 314 309 315 309 307 308 307 306 308 308 310 312 314 315 315 315 315 314 313 312 311 310 309 308 308 307 307 307 307 307 307 307 307 306 307 307
307 308 305 307 309 306 309 312 314 314 313 315 313 309 310 308 306 307 311 312 313 313 314 315 314 314 313 312 310 309 308 307 307 306 306 306 306 306 306 306 306 306 306 306
304 305 304 306 308 307 308 308 311 313 313 313 313 312 308 308 308 308 309 311 312 313 314 314 314 313 312 311 310 308 307 307 305 305 305 305 305 305 305 305 304 304 305 304
305 303 303 304 306 306 306 306 307 310 311 312 314 313 307 306 306 308 309 311 312 313 314 314 314 313 312 311 309 307 306 306 305 305 304 304 304 305 304 303 301 301 302 302
303 302 302 302 303 305 306 305 305 308 309 308 308 307 308 309 309 308 309 311 313 313 312 313 313 313 312 310 308 306 305 305 304 304 303 303 303 303 302 300 299 300 300 301
302 303 305 305 301 304 307 306 306 307 308 305 307 308 307 308 308 309 308 310 311 310 311 313 313 312 311 309 307 305 304 303 303 303 302 302 302 301 300 299 300 300 300 299
303 302 304 303 306 308 303 308 306 306 308 307 306 305 305 308 308 306 309 309 311 312 313 313 313 311 310 308 305 304 303 303 302 302 301 301 299 299 299 299 299 299 299 296
307 308 309 308 305 305 303 303 307 309 307 309 308 306 305 306 308 310 311 312 312 313 313 312 311 310 309 307 305 304 303 303 301 300 298 297 298 297 298 299 299 299 295 290
307 306 309 305 309 306 305 308 310 307 311 310 309 306 306 309 311 312 312 312 312 312 311 310 309 309 308 307 305 304 303 301 301 299 298 297 297 297 299 299 298 293 291 290
306 304 305 305 305 304 306 309 309 309 311 311 310 308 308 310 311 311 311 311 310 310 309 309 308 308 307 306 305 304 302 302 301 300 298 298 297 298 299 298 293 292 291 290
304 302 304 305 305 303 307 307 309 310 311 312 311 311 311 311 310 310 310 310 310 310 309 308 307 307 307 307 305 304 303 302 301 300 300 299 298 299 299 296 291 291 290 290
305 303 304 303 304 305 308 309 309 310 311 311 311 311 311 312 311 312 313 313 313 313 312 312 310 308 307 306 306 305 304 303 303 302 301 300 300 299 298 292 291 291 290 290
304 304 305 306 306 306 307 308 308 310 311 311 311 310 310 310 310 309 309 309 309 309 309 309 308 308 307 307 306 306 304 304 303 303 302 301 300 300 298 292 290 291 291 291

GFSCGP_850_thetae_075.txt.gz
Theta_e
310 311 314 315 313 313 314 316 318 318 319 319 320 319 318 319 319 320 321 320 319 319 317 316 318 328 331 328 328 333 334 335 336 337 337 336 336 336 338 338 338 337 337 337
311 313 311 313 314 314 316 315 316 315 318 318 319 319 317 319 318 320 320 321 318 316 318 317 317 317 319 320 319 320 322 324 326 328 331 335 334 333 334 336 335 335 335 336
313 312 311 314 315 315 313 314 314 316 317 315 317 318 319 317 317 317 320 320 318 315 315 317 317 317 317 317 317 317 317 318 318 319 322 328 328 327 330 329 329 330 331 331
313 312 312 314 316 314 316 312 313 314 318 320 316 320 318 318 318 318 317 320 318 316 315 315 316 317 317 317 316 316 316 316 317 317 319 319 318 318 318 318 319 321 322 323
314 313 313 315 316 313 315 311 313 313 313 314 314 318 316 315 318 317 318 317 317 316 316 316 315 315 315 315 315 315 315 315 315 315 315 315 315 315 314 314 314 314 315 315
311 312 314 314 313 312 310 312 313 311 314 320 315 318 317 312 316 317 316 316 316 316 316 316 314 314 314 315 315 315 315 315 314 314 313 313 313 313 313 313 312 312 312 312
314 314 313 312 315 313 311 313 318 318 319 317 310 313 317 312 308 310 311 312 315 315 315 316 314 314 314 314 314 314 314 314 313 313 313 312 312 312 312 312 312 312 312 312
315 316 315 311 313 314 312 311 313 316 316 315 309 314 314 310 309 309 309 310 311 312 313 314 314 314 314 314 314 314 314 313 313 313 313 312 312 312 313 313 313 313 313 313
316 315 313 312 312 312 314 312 307 306 303 310 311 309 308 307 308 308 308 309 310 310 311 312 313 314 314 315 314 314 313 313 313 312 312 312 311 311 311 311 311 311 311 311
310 316 312 313 312 312 312 308 313 306 311 313 309 308 311 309 308 306 305 307 309 309 309 311 314 315 315 314 314 313 313 312 312 312 312 311 311 310 310 310 310 310 310 310
308 312 314 313 313 314 313 312 308 309 307 312 311 311 305 307 305 304 304 306 309 309 310 313 314 315 315 314 314 313 312 312 312 311 311 310 310 310 310 310 309 309 308 308
308 311 315 315 311 310 312 312 308 311 309 302 305 310 304 304 303 304 307 309 310 309 313 314 315 315 314 314 313 313 312 311 311 311 310 309 309 309 309 309 308 308 309 309
308 307 313 313 311 309 313 313 308 304 303 304 312 312 303 304 307 309 309 311 312 311 314 315 315 315 315 314 313 313 311 311 310 309 309 309 308 308 308 308 308 308 308 308
308 306 307 308 307 308 312 312 310 310 313 309 309 309 309 307 306 307 310 311 313 314 315 315 315 315 314 314 313 312 311 310 309 308 308 308 307 307 307 307 307 307 306 306
306 305 303 306 307 307 309 311 312 311 312 313 312 310 311 310 308 308 310 311 312 314 314 315 315 314 314 314 313 312 310 309 308 308 307 306 306 306 306 306 306 306 305 305
303 304 304 305 308 307 308 308 310 312 312 311 312 312 311 309 310 307 308 309 311 312 314 315 315 314 314 313 313 311 309 308 307 306 305 305 305 305 305 305 304 304 304 304
304 303 304 305 305 306 307 307 307 310 310 312 313 312 309 310 309 310 311 309 311 311 313 313 314 314 314 313 312 310 309 307 306 306 305 304 304 304 304 303 302 301 300 301
303 302 302 303 304 307 306 305 305 306 308 309 310 311 308 309 311 311 311 309 309 311 313 313 313 313 313 312 311 309 308 306 305 305 304 303 303 304 303 300 299 299 299 300
301 303 305 305 302 304 306 306 305 307 308 305 308 309 309 308 307 308 309 310 310 311 312 313 312 312 312 312 310 308 307 305 304 304 303 302 302 302 300 299 298 298 299 299
302 302 304 304 306 307 302 308 306 305 309 306 306 306 305 305 308 308 309 310 309 310 310 310 312 312 312 311 310 307 306 305 303 303 302 301 300 298 299 298 298 298 299 298
306 307 308 309 310 306 302 303 306 309 307 308 308 307 305 305 307 308 310 309 309 311 311 312 312 312 310 309 308 306 305 304 302 302 301 299 297 298 297 297 299 298 298 292
306 305 306 307 310 308 304 307 309 306 309 311 310 308 306 306 309 309 310 310 311 311 312 311 311 309 309 309 307 306 305 303 302 301 299 298 298 297 296 297 298 298 295 290
305 304 305 304 305 304 305 309 309 309 309 311 311 309 307 309 310 310 310 310 310 310 310 309 309 309 308 308 308 306 304 303 302 301 300 299 298 296 296 298 298 296 291 290
303 302 303 304 304 303 306 307 307 307 309 311 311 311 310 310 310 310 310 309 310 310 310 309 309 308 307 307 307 305 304 303 302 301 300 299 298 297 297 298 297 292 291 290
304 302 303 303 303 305 306 308 308 308 309 311 310 310 311 311 312 312 312 312 312 312 312 312 311 310 309 308 307 306 305 303 302 301 300 300 299 298 298 298 296 291 291 290
304 304 305 306 306 305 306 307 308 308 310 310 310 310 310 310 310 310 310 309 308 309 309 309 308 309 309 309 308 306 305 305 303 302 302 301 300 300 299 299 295 291 291 291

GFSCGP_850_thetae_078.txt.gz
Theta_e
310 311 316 316 315 315 318 318 318 319 320 322 322 321 320 319 319 321 321 321 322 322 320 318 321 332 334 334 334 333 334 336 338 338 338 338 337 336 336 337 337 338 338 337
312 314 314 315 315 315 317 318 319 319 320 321 321 321 320 318 319 319 319 321 322 322 321 318 317 316 332 333 329 330 333 333 333 335 336 335 335 336 335 335 336 337 336 336
313 313 313 315 316 316 317 317 319 319 321 320 320 321 320 319 319 319 319 319 322 322 321 319 315 317 316 322 325 322 323 325 326 326 325 327 328 330 332 329 332 332 330 329
313 312 313 315 315 315 318 316 318 319 320 320 319 320 319 319 319 319 319 319 321 322 320 318 315 316 317 316 316 317 317 319 319 320 321 322 324 324 322 321 320 319 319 320
315 313 313 315 315 315 315 315 316 317 317 319 319 320 319 318 319 319 319 319 321 323 321 318 317 316 316 316 316 316 316 316 317 317 317 317 317 316 316 315 315 315 315 315
313 311 311 314 315 314 314 316 316 317 318 320 318 319 318 318 318 319 318 318 319 321 319 317 317 316 315 315 315 315 315 315 315 315 315 315 315 314 314 313 313 313 312 312
314 313 314 313 316 313 316 318 320 320 320 319 315 319 318 317 316 315 317 318 318 319 320 318 315 316 315 314 314 314 315 315 314 314 314 313 313 313 312 312 312 313 312 312
317 316 313 315 316 316 317 316 319 317 318 317 314 319 317 315 312 311 312 312 315 317 319 316 315 315 316 315 314 314 314 314 314 313 313 313 312 313 313 313 313 313 313 313
316 315 313 314 315 315 316 318 311 314 310 317 316 315 314 313 313 312 311 311 312 311 312 314 312 314 314 314 314 314 314 314 313 313 312 312 312 312 312 312 312 311 311 311
314 317 314 314 314 314 316 312 317 316 318 317 314 314 314 314 312 311 311 309 310 311 310 311 312 313 313 314 314 314 313 313 313 312 312 312 312 311 311 311 311 310 310 310
312 315 314 315 315 317 316 316 315 314 313 315 314 314 313 312 311 311 312 310 309 311 310 311 312 312 314 314 314 314 313 313 313 312 312 312 311 311 310 310 310 309 309 309
310 314 317 317 313 313 315 316 316 318 316 312 313 314 311 311 311 310 313 312 312 311 311 312 312 314 314 314 314 313 313 312 312 311 311 311 310 310 309 309 309 308 308 308
311 314 316 315 313 312 315 315 314 313 313 316 316 314 308 309 311 312 313 313 313 311 313 313 313 314 314 314 314 313 313 312 312 311 310 309 309 309 308 308 308 308 307 307
310 312 314 316 315 314 314 314 315 315 319 316 315 314 312 311 312 311 312 313 314 312 313 313 313 314 314 314 314 314 313 312 311 311 309 309 308 308 307 307 307 307 306 306
311 314 309 309 309 312 313 314 315 314 315 317 315 314 313 313 313 313 311 310 312 314 314 314 314 314 314 314 314 313 312 311 311 309 309 308 307 306 306 306 306 306 306 306
308 313 310 312 311 310 312 312 313 314 314 315 315 315 313 312 312 311 312 311 310 312 314 314 315 315 315 314 314 313 312 311 310 308 308 307 306 306 306 305 305 305 305 305
310 311 311 313 308 310 311 312 312 313 313 314 315 314 313 313 312 312 313 313 312 311 312 314 314 315 315 314 314 313 312 311 309 308 306 306 305 305 305 305 304 303 302 301
309 310 309 311 308 312 309 308 308 310 310 311 312 312 312 312 312 312 311 311 311 312 311 312 313 314 314 314 313 312 311 309 308 307 305 305 304 304 304 303 301 300 300 300
306 309 311 312 311 310 309 307 308 308 309 309 309 310 310 310 308 309 309 309 309 309 310 311 312 313 313 313 312 311 310 308 307 306 305 304 303 303 302 300 300 299 299 299
306 307 310 309 311 310 307 309 306 307 312 310 309 311 310 308 311 312 308 309 310 309 310 312 312 312 312 312 312 311 310 308 306 305 304 303 302 302 300 299 299 298 298 298
311 311 312 311 310 309 308 307 306 311 311 310 310 310 307 308 308 307 308 309 309 308 310 311 311 311 312 312 311 309 308 306 305 304 303 302 301 299 298 298 298 297 297 298
311 311 311 311 311 310 306 306 310 310 309 310 311 310 307 306 307 309 308 309 309 310 310 311 312 312 311 310 309 308 307 305 304 303 302 301 300 299 298 297 297 297 297 296
310 309 310 310 310 308 305 310 309 309 309 310 311 311 307 308 309 309 309 309 310 310 310 310 310 309 309 309 308 307 306 305 304 303 302 300 299 299 298 297 297 297 297 293
306 304 308 307 309 307 307 306 306 307 307 307 310 311 309 309 310 310 310 309 309 309 309 309 309 309 308 308 307 307 305 305 304 303 301 300 299 298 297 296 297 298 297 291
307 304 308 308 307 307 307 307 307 308 308 308 310 310 310 310 310 310 310 309 310 311 311 311 310 310 309 308 307 306 307 305 303 302 302 300 299 298 297 298 299 299 296 291
305 309 309 310 308 307 307 307 308 308 307 309 310 310 310 310 310 310 311 311 310 310 310 310 309 310 309 309 309 309 308 305 304 302 302 301 300 298 297 297 298 298 293 291

GFSCGP_850_thetae_081.txt.gz
Theta_e
309 311 314 316 316 315 316 317 317 318 321 322 323 323 323 322 321 322 322 322 323 323 323 320 321 327 331 339 340 342 341 341 342 341 341 341 341 341 340 340 340 340 339 338
311 314 314 315 315 317 317 320 319 320 320 321 321 321 320 321 321 321 321 321 322 323 323 320 318 320 326 332 334 337 339 338 339 340 340 340 340 340 340 339 338 338 337 338
314 313 314 316 316 318 317 318 319 319 320 320 320 321 321 320 320 319 320 321 322 322 323 322 319 318 317 325 330 331 334 339 336 338 338 335 334 334 334 336 336 333 331 333
313 312 315 316 315 315 317 317 318 319 321 321 319 319 319 320 320 319 320 320 321 322 322 323 320 318 317 316 326 330 326 329 329 329 330 331 332 333 335 330 328 323 323 321
314 313 315 316 315 315 316 316 317 319 320 318 320 320 318 319 320 320 319 320 320 320 322 323 321 317 316 317 316 316 319 319 320 322 324 325 325 322 320 318 317 316 315 315
313 312 313 315 315 315 316 317 317 317 317 320 318 319 317 320 319 318 319 319 319 320 321 323 320 318 317 316 316 316 315 316 316 317 317 317 316 315 315 315 314 314 313 313
313 313 312 315 316 316 315 317 320 319 320 319 317 318 318 318 317 317 317 318 318 319 320 323 319 317 317 317 316 315 315 315 315 315 315 315 314 314 313 313 313 313 313 312
317 316 315 315 316 317 316 316 318 317 317 316 317 318 318 317 316 314 314 315 316 319 320 323 320 317 317 315 315 314 314 314 314 314 314 314 314 313 313 312 312 312 313 313
316 316 312 315 316 316 317 319 314 317 316 318 318 316 316 315 315 315 314 314 315 314 317 318 321 316 317 315 315 314 314 314 314 314 314 313 313 312 312 312 312 312 312 312
315 317 314 315 315 315 317 315 315 319 318 315 316 315 316 315 314 314 314 312 312 313 314 313 314 315 316 315 314 314 314 314 314 313 313 312 312 312 312 312 311 311 311 311
314 316 315 315 316 318 317 317 317 316 316 316 314 314 315 314 315 315 315 314 312 312 313 313 313 315 315 314 314 313 314 314 313 313 312 312 312 312 312 311 311 310 310 310
313 316 317 316 315 315 317 317 317 318 317 315 315 315 314 314 314 315 315 315 314 313 313 313 314 314 314 313 313 313 314 313 313 312 312 312 312 311 311 310 310 310 309 309
313 316 317 317 316 315 316 316 316 316 316 320 316 315 313 313 312 314 314 314 315 314 314 314 314 313 312 312 313 314 313 313 313 313 312 312 312 311 310 310 309 309 308 308
311 314 316 318 316 316 315 315 316 316 320 316 316 315 313 313 314 314 313 314 313 315 315 315 314 314 313 313 313 313 313 313 313 312 312 311 310 309 309 309 308 308 307 307
313 316 313 312 311 314 315 315 315 317 316 318 315 315 314 314 314 314 314 313 312 315 315 315 315 315 314 313 312 313 313 313 313 312 311 310 309 308 307 307 307 307 306 306
312 316 313 314 313 312 313 313 313 314 315 316 315 315 314 314 314 314 313 313 313 312 314 315 315 315 315 313 313 313 313 313 313 312 311 309 308 307 306 306 305 306 306 306
313 314 313 315 310 311 312 312 313 314 314 314 316 315 314 314 314 313 313 313 313 314 313 315 315 315 315 314 313 313 313 313 312 311 309 308 307 306 306 306 304 304 303 303
312 313 313 314 311 314 312 309 309 311 313 313 312 312 312 312 312 311 312 312 313 313 313 313 314 315 315 314 313 312 313 312 312 310 308 307 306 305 305 305 304 303 301 301
309 311 312 313 312 311 310 309 309 309 310 310 310 310 312 312 310 311 311 311 311 311 311 311 312 314 315 313 312 312 313 312 311 310 308 307 306 305 304 304 303 301 300 300
309 309 312 312 312 312 311 311 308 309 311 312 312 312 312 310 312 312 309 309 310 310 309 311 312 314 313 312 312 313 312 311 310 308 307 306 305 304 303 302 301 300 300 299
311 311 312 312 312 311 310 309 308 311 313 311 312 312 312 311 310 309 308 308 309 308 309 310 311 311 311 311 312 312 311 310 308 307 306 305 304 303 302 301 299 299 298 298
311 311 312 311 312 312 308 308 309 311 311 311 311 312 312 310 308 309 308 308 308 308 308 309 309 310 311 311 311 311 310 309 307 306 305 304 303 302 300 299 298 298 297 297
310 310 310 310 311 310 308 309 309 310 310 310 310 311 311 309 310 310 308 308 308 309 309 309 310 310 310 310 309 308 308 307 306 305 304 303 302 301 300 299 299 297 297 296
309 308 309 309 309 309 309 308 307 307 308 309 308 310 311 310 311 310 309 308 307 308 308 308 309 309 309 309 308 308 307 306 305 305 304 303 302 301 300 299 298 296 296 296
310 308 309 310 309 309 309 308 308 308 308 308 308 310 311 310 310 310 310 310 310 310 310 310 310 309 309 308 307 307 306 306 305 305 304 303 302 301 299 299 298 297 298 298
309 309 310 311 310 309 309 308 308 308 308 307 309 309 310 310 310 310 310 311 311 312 311 311 311 311 310 310 310 309 308 307 306 306 305 303 302 301 299 298 297 298 297 298

GFSCGP_850_thetae_084.txt.gz
Theta_e
307 309 313 316 316 316 318 317 319 320 322 323 323 323 322 323 322 322 322 322 322 323 324 323 324 329 335 338 340 337 338 339 339 339 339 339 338 337 338 338 338 338 338 337
311 313 313 316 316 316 317 317 319 321 322 322 322 321 321 321 321 322 322 322 322 322 323 322 321 323 331 335 335 335 337 338 339 339 339 337 338 338 339 338 338 338 338 337
313 313 312 316 316 316 315 315 319 322 320 319 319 319 319 318 319 321 321 321 322 322 322 322 320 320 326 331 333 334 334 337 334 336 336 338 338 336 338 337 337 336 336 335
312 311 313 316 317 318 319 317 318 319 319 321 318 317 317 317 318 318 320 320 320 321 321 322 322 322 322 322 329 331 334 335 332 332 329 328 331 332 336 335 333 326 325 324
313 314 315 317 316 317 318 317 319 319 319 319 318 318 315 317 318 318 318 319 320 320 321 322 323 322 319 320 319 328 330 331 332 333 330 331 332 332 332 333 330 324 318 316
313 312 313 315 316 316 316 317 317 316 317 316 318 317 315 316 317 316 317 319 319 320 320 320 322 323 321 320 317 316 319 323 322 323 324 327 326 325 322 318 315 315 314 314
312 312 312 314 317 315 316 316 316 317 313 316 316 316 316 316 315 316 316 317 318 319 319 320 321 321 319 318 319 316 316 316 316 316 317 318 317 316 315 315 314 313 313 313
315 315 314 315 317 316 316 316 316 315 315 315 316 316 315 315 315 315 315 315 316 317 319 320 320 321 318 317 316 317 315 315 315 315 315 315 315 314 314 313 313 312 312 312
316 314 313 315 316 316 316 315 313 317 315 314 315 315 315 314 314 314 314 314 315 315 317 320 320 320 320 317 316 315 315 314 315 314 314 314 314 313 313 312 312 312 312 312
314 314 313 316 316 315 316 315 315 315 314 314 315 315 314 312 312 312 312 312 313 314 315 316 320 318 318 318 316 314 314 314 314 314 314 314 313 313 312 312 312 312 312 311
314 314 315 316 315 316 316 316 316 315 313 315 313 312 311 312 312 312 313 314 313 311 313 313 313 315 316 317 317 315 314 314 314 313 313 313 313 312 312 312 312 312 312 311
313 314 314 315 315 315 315 317 315 313 315 312 312 313 311 311 313 314 315 315 314 313 313 313 313 315 316 316 315 318 316 314 314 314 313 312 312 312 312 312 312 311 310 310
312 315 317 315 315 314 315 316 316 315 313 313 312 311 311 310 311 314 314 313 314 314 313 313 314 314 315 314 314 313 314 313 314 316 316 313 313 312 312 311 311 310 309 309
311 314 314 313 314 315 314 314 314 314 313 315 314 314 312 311 312 313 314 313 313 314 314 314 314 314 313 313 312 312 312 312 313 313 313 312 312 312 311 310 310 309 308 308
312 314 308 311 311 313 315 315 314 312 313 311 314 313 313 311 311 312 313 313 312 313 315 315 315 314 313 313 312 312 312 313 312 312 312 312 311 310 310 310 309 308 307 307
311 312 311 310 312 311 312 312 312 313 314 315 314 314 313 313 313 313 313 313 313 313 313 314 315 315 314 313 313 312 312 313 313 313 312 312 311 310 309 308 307 307 306 306
313 312 310 311 310 310 310 311 312 312 312 313 314 314 312 311 312 312 312 312 313 313 313 313 314 315 315 314 313 312 312 313 313 313 312 312 310 309 308 307 306 306 306 305
312 312 311 309 310 308 310 309 309 309 309 311 312 312 311 311 311 311 311 311 311 312 313 313 314 315 315 315 314 313 312 313 313 312 312 311 310 308 307 306 306 305 304 303
309 309 311 310 309 309 310 308 309 309 309 308 308 310 311 312 311 310 310 310 310 311 311 312 312 312 315 315 315 314 313 312 312 312 311 310 308 307 306 305 305 303 303 300
309 308 309 309 311 311 312 309 309 309 308 311 312 312 312 311 309 308 309 308 308 309 310 310 310 310 313 315 314 314 313 312 312 311 311 309 307 306 305 304 303 302 300 299
309 310 308 309 311 310 310 308 309 309 310 310 311 312 312 310 309 309 308 309 308 309 309 310 312 313 315 314 314 313 312 311 311 310 309 307 306 305 304 303 302 300 299 298
309 310 310 309 309 310 308 307 308 309 310 310 311 311 312 312 310 309 310 308 308 308 307 309 311 312 312 313 312 310 310 309 309 309 307 306 305 304 303 302 300 299 299 298
308 307 308 308 309 309 308 308 308 308 310 310 310 309 311 311 309 311 310 309 308 308 307 307 308 309 309 309 309 309 309 308 308 307 306 305 304 303 303 301 300 299 298 298
307 308 306 307 308 308 308 309 308 308 308 307 308 308 308 311 310 310 309 308 308 307 307 307 307 308 308 308 308 308 308 307 307 306 305 305 305 305 303 301 300 299 298 297
308 307 307 307 307 309 310 308 308 308 308 308 308 308 309 311 310 310 309 309 309 310 310 309 309 308 308 307 307 308 307 307 306 305 305 305 304 304 303 301 299 299 297 296
307 307 309 309 308 308 307 307 307 307 307 307 308 308 309 309 310 310 310 310 311 311 311 311 310 310 310 309 309 309 308 308 307 306 306 305 305 304 303 302 299 298 297 297

GFSCGP_850_thetae_087.txt.gz
Theta_e
304 310 311 311 312 315 317 319 319 320 322 322 323 322 321 322 322 321 322 322 322 324 324 324 329 336 339 339 338 336 339 339 334 338 336 336 335 335 335 337 338 338 337 336
309 312 311 313 313 316 318 319 319 320 320 319 320 321 320 319 320 321 321 322 322 322 323 324 324 327 335 338 340 339 338 337 337 336 336 335 335 335 335 335 335 338 337 337
310 313 313 315 316 317 317 317 319 320 321 320 320 321 320 318 321 321 321 321 321 322 322 323 323 323 326 333 335 336 337 336 334 337 337 338 335 336 336 335 336 336 336 337
310 311 315 315 316 315 316 316 318 321 320 321 318 321 318 317 316 317 320 321 321 322 321 321 322 322 323 326 333 335 334 334 334 335 336 334 332 331 331 329 327 330 333 332
313 313 315 317 317 316 317 317 318 320 319 319 318 317 315 314 315 315 315 320 320 320 320 320 321 322 323 323 326 332 334 333 332 332 331 332 330 330 329 330 329 330 328 325
311 311 312 314 316 315 316 317 318 317 315 313 317 315 313 314 316 315 315 319 319 319 319 320 320 321 322 322 322 325 330 332 332 331 331 331 329 330 331 329 326 329 324 316
310 311 310 314 314 315 317 313 316 317 312 315 313 315 314 314 313 313 313 317 319 319 319 319 320 320 320 320 321 321 323 328 328 330 332 332 330 329 328 327 323 316 315 314
309 308 313 312 316 316 316 314 311 316 314 313 313 314 313 312 313 315 315 315 315 316 318 319 320 320 321 320 318 317 318 317 316 318 318 319 320 319 317 315 314 314 313 313
310 314 313 314 314 314 314 310 312 313 311 310 312 313 311 311 311 312 313 314 314 314 316 318 319 320 321 320 318 317 316 315 315 315 315 315 315 315 314 314 314 313 312 312
311 315 312 315 314 315 315 313 311 307 312 314 313 314 311 310 309 309 309 311 312 314 314 317 319 319 319 320 317 316 315 315 315 315 315 314 314 314 313 313 312 312 312 312
312 310 313 314 314 316 315 315 315 312 311 314 312 309 307 309 310 310 311 313 312 311 312 313 315 319 319 318 317 316 315 314 314 314 314 314 313 312 312 312 312 312 311 312
311 310 314 314 314 314 315 316 315 310 313 308 309 310 310 309 309 313 314 313 313 312 312 312 313 314 317 317 317 316 315 314 314 314 314 314 313 313 312 312 312 311 311 311
311 309 307 312 311 312 314 314 315 312 309 310 310 309 308 309 311 313 314 313 314 313 313 312 312 313 314 315 316 316 315 315 314 313 315 315 316 317 317 316 315 313 311 310
310 311 308 306 310 311 313 313 314 311 308 313 311 312 311 308 308 310 313 312 313 314 314 313 313 313 314 315 315 315 314 314 313 312 314 318 317 315 312 312 311 311 310 309
310 310 304 310 310 311 312 313 312 308 311 311 313 312 312 309 309 311 312 313 312 312 314 314 314 313 314 313 313 313 313 313 312 312 311 312 311 311 312 312 311 309 309 308
309 308 306 306 310 310 311 310 310 311 312 312 312 312 310 312 313 312 311 311 312 312 313 313 313 313 313 314 312 312 312 312 312 311 312 312 312 312 312 311 310 308 307 307
310 309 306 306 309 308 308 308 310 310 310 311 313 313 311 310 310 311 311 311 311 311 312 312 313 314 313 314 314 313 313 312 312 311 311 311 311 311 311 309 309 307 306 306
310 310 309 305 306 305 307 308 308 309 309 309 310 310 310 310 311 311 311 310 310 310 311 311 312 313 314 314 314 314 313 312 312 311 311 311 311 310 309 308 307 306 305 305
306 307 309 307 306 306 308 308 309 308 308 307 306 310 310 310 311 310 310 310 309 309 309 310 311 311 313 315 315 314 314 313 312 312 312 311 311 310 309 307 306 306 305 304
307 305 306 306 309 310 309 308 308 307 306 309 310 309 310 311 308 305 309 309 308 309 308 309 309 310 310 312 315 315 314 313 312 312 311 311 309 308 307 306 305 305 303 302
307 307 305 307 306 308 307 308 308 307 305 309 311 311 311 309 309 311 309 308 310 309 309 308 309 310 310 310 314 315 314 314 312 310 310 309 309 307 306 305 305 303 302 300
307 305 307 306 307 307 307 307 307 305 309 310 310 310 310 311 311 310 309 310 309 309 308 307 309 312 313 314 314 314 313 312 310 309 309 308 307 306 305 304 303 302 300 299
306 305 305 306 307 307 308 307 308 308 307 308 309 308 309 308 309 310 310 310 310 309 309 307 308 310 311 311 311 311 311 310 309 309 308 307 306 305 304 303 302 301 300 299
305 306 305 306 306 305 308 308 308 308 307 307 308 308 307 307 307 310 310 310 309 309 308 308 308 308 308 309 309 308 309 308 308 307 306 306 305 304 304 303 302 301 300 299
305 305 305 305 305 307 308 307 307 306 307 308 307 307 308 308 308 310 310 309 309 309 309 309 310 309 308 308 307 307 307 307 306 306 306 305 304 305 304 303 302 301 299 298
306 307 306 308 307 305 306 306 307 307 306 306 305 305 307 308 309 309 310 309 308 309 310 310 310 310 310 309 309 308 307 306 306 305 305 305 305 305 304 303 303 302 300 298

GFSCGP_850_thetae_090.txt.gz
Theta_e
306 309 311 310 313 314 316 317 318 321 320 319 321 320 319 320 320 321 320 323 324 325 323 326 336 337 339 339 338 338 338 339 340 339 338 336 338 336 336 334 336 334 334 334
309 310 309 308 312 314 315 318 319 321 320 320 320 321 321 321 321 322 320 320 322 323 323 323 327 331 335 337 339 338 338 338 338 337 338 339 337 337 336 334 335 337 338 336
312 312 312 312 315 317 317 318 318 321 321 319 318 319 319 318 320 321 321 322 322 322 322 323 323 325 329 332 334 337 336 337 338 333 336 338 336 334 334 334 334 334 336 335
313 312 313 314 316 315 317 316 317 320 321 323 320 321 317 317 316 317 319 320 320 322 322 322 322 323 325 326 333 334 334 336 336 336 336 336 335 335 334 333 332 333 334 334
312 315 315 316 316 315 317 317 319 319 319 318 321 319 316 313 317 315 316 320 321 320 320 320 321 322 322 324 326 332 332 334 335 334 334 336 333 333 334 332 329 330 329 326
312 311 313 313 315 315 316 318 318 318 318 320 318 318 315 313 316 316 314 318 321 320 320 320 320 320 321 322 323 326 328 332 333 332 333 333 332 331 330 329 329 328 326 328
311 311 311 313 315 315 316 316 319 319 317 316 314 318 317 313 311 313 313 316 318 318 319 319 319 320 320 320 321 323 327 328 330 331 331 331 331 331 330 329 328 329 329 328
309 313 313 313 315 316 316 315 315 318 315 313 312 317 313 310 312 314 314 315 317 318 318 318 318 319 319 320 320 320 322 325 327 329 329 329 329 328 328 327 328 327 326 317
307 311 313 313 313 314 316 311 311 310 308 309 311 311 311 310 310 311 312 313 313 314 315 317 317 318 319 320 320 320 319 319 319 323 325 326 326 326 326 325 321 316 314 313
310 309 311 313 312 314 313 312 311 307 311 315 311 312 311 310 311 310 309 310 311 313 314 314 318 318 319 319 319 318 317 317 316 316 316 317 317 317 316 315 314 313 313 312
310 308 311 311 312 315 314 313 312 309 309 311 312 310 305 307 307 308 310 312 312 311 311 313 315 318 318 318 318 317 316 316 315 315 315 315 315 316 315 313 312 312 312 312
309 309 310 313 312 313 314 315 312 307 310 305 307 309 307 308 308 310 312 312 312 312 312 312 312 313 317 318 317 316 316 315 315 315 314 315 319 317 317 318 316 314 312 312
310 307 312 310 310 310 313 313 314 310 307 307 308 308 307 308 309 312 312 313 313 313 313 312 312 312 312 315 317 316 316 315 315 315 314 314 313 313 313 315 316 315 315 315
309 308 306 306 308 309 313 313 313 310 306 312 310 312 310 308 308 308 310 312 312 313 313 313 313 313 312 312 314 315 316 315 315 314 314 313 312 311 312 315 317 316 313 311
308 308 303 309 310 309 311 312 312 308 311 311 313 311 311 309 308 310 312 313 312 312 312 313 313 312 312 312 313 313 314 315 315 314 313 312 311 313 314 313 312 311 310 309
307 307 304 306 309 309 310 309 309 310 311 311 311 312 311 311 310 311 311 311 311 311 311 312 313 313 312 312 312 313 313 313 313 313 313 312 312 311 311 311 311 310 309 309
309 307 305 306 307 306 307 307 308 309 309 310 311 311 310 310 310 311 311 310 311 311 311 311 311 312 312 313 313 313 313 312 312 312 311 310 310 310 310 311 311 310 308 307
308 309 306 304 304 305 306 306 307 308 308 307 307 308 308 308 310 310 310 310 309 309 309 310 310 310 312 312 313 314 313 312 312 311 311 311 311 311 310 310 309 308 307 306
305 306 307 307 305 305 308 307 308 307 306 308 307 309 310 310 309 309 309 310 309 309 308 308 308 308 310 311 313 314 314 313 312 311 311 311 311 310 310 309 308 307 306 305
304 303 305 304 308 309 306 307 307 305 305 306 309 309 310 310 307 305 310 310 309 308 310 309 309 309 309 310 311 314 314 314 313 312 311 311 310 310 309 308 307 306 305 304
306 305 305 306 307 306 305 306 307 307 304 308 309 310 310 308 309 310 310 310 309 310 310 310 308 308 309 309 310 312 314 314 314 312 311 310 309 309 308 306 305 305 304 303
306 304 305 304 306 306 306 306 306 303 308 307 306 307 309 309 309 308 309 309 309 309 310 309 308 308 310 311 311 310 312 314 314 312 310 309 309 308 307 306 305 304 304 302
305 304 304 305 305 306 306 305 307 307 306 307 307 307 307 307 307 308 308 309 310 310 310 309 308 308 311 313 313 312 312 313 312 311 309 309 308 307 306 305 304 303 302 302
304 304 304 305 304 305 306 307 306 306 306 306 307 306 307 307 307 308 308 309 310 309 309 308 308 308 309 310 311 311 311 311 310 309 308 307 306 306 305 303 303 303 302 301
303 304 304 303 304 305 306 304 304 304 305 305 305 305 306 306 306 306 307 308 310 309 308 309 309 308 308 308 308 308 308 308 308 307 306 306 305 304 303 303 303 302 302 300
303 304 303 302 305 304 304 303 301 302 301 300 302 303 303 304 305 305 306 309 309 308 308 308 310 310 309 309 310 308 308 307 306 306 305 304 304 303 303 303 303 302 302 300

GFSCGP_850_thetae_093.txt.gz
Theta_e
306 309 309 308 312 312 313 316 318 317 319 318 317 319 320 319 320 320 321 322 326 328 331 331 334 336 337 335 335 336 333 333 333 333 334 335 333 328 336 336 335 335 335 334
308 310 308 309 309 312 315 316 316 319 319 318 318 317 321 321 320 320 321 321 321 325 324 325 330 334 335 335 336 335 337 336 334 335 333 330 330 333 336 336 336 336 335 335
310 311 309 308 310 315 315 317 319 320 319 317 318 318 317 319 320 319 320 321 321 321 323 323 325 330 334 335 335 336 336 337 336 336 335 336 337 336 336 335 335 334 335 334
313 311 310 309 315 314 317 317 320 320 320 324 319 321 318 317 318 317 319 320 321 321 321 322 323 323 324 329 331 331 332 333 334 335 335 335 337 337 337 334 334 334 335 333
313 314 311 314 316 315 317 317 318 318 318 319 321 319 317 314 317 315 314 318 320 320 320 321 321 322 322 323 325 330 332 332 333 334 334 334 333 334 336 333 333 333 333 333
312 311 313 313 314 316 316 317 316 317 317 319 320 319 318 312 314 315 314 315 317 319 320 320 320 320 320 322 322 323 329 330 330 331 332 333 332 332 333 334 333 333 332 329
312 312 312 312 315 316 316 316 320 319 319 319 316 318 316 314 312 310 313 315 317 319 319 320 320 319 320 320 321 321 322 325 326 328 330 330 331 331 331 331 331 331 329 328
313 309 314 312 314 316 314 314 316 319 316 313 315 318 316 310 309 311 314 315 316 317 318 318 318 319 319 319 320 320 321 321 323 326 329 328 329 329 330 329 330 329 327 326
308 314 312 313 313 314 314 315 310 310 308 310 312 310 310 310 310 310 311 313 313 314 315 315 316 317 318 318 319 319 320 320 323 325 325 326 327 328 328 328 325 323 323 324
310 311 310 313 313 314 313 310 313 310 315 312 310 311 310 311 312 310 310 309 311 312 313 314 314 316 317 317 318 319 318 318 319 319 318 320 324 326 328 326 324 321 319 315
308 307 310 310 312 315 314 313 310 309 307 310 312 311 306 307 309 309 309 311 311 311 311 311 313 314 318 317 318 318 318 317 317 317 316 316 318 321 320 319 318 316 313 313
309 308 306 313 311 312 313 315 308 307 310 303 306 309 305 306 307 309 310 311 312 312 312 312 312 312 312 318 318 318 317 317 316 316 315 315 315 316 315 315 316 315 317 316
309 306 303 306 307 309 312 313 310 307 305 306 307 307 306 308 309 310 311 312 312 312 312 312 312 312 312 312 315 317 317 317 316 315 315 315 315 314 314 315 318 318 317 315
309 306 306 305 308 308 312 312 313 309 304 310 308 310 310 309 308 307 309 312 312 313 312 312 312 312 312 312 312 312 315 316 316 315 315 315 314 314 314 314 315 312 312 314
307 308 302 308 309 309 311 312 311 305 311 310 312 310 310 309 308 309 310 311 312 312 312 313 312 312 312 312 312 312 313 314 315 315 315 314 314 313 312 311 312 315 315 311
305 305 303 306 307 308 310 309 308 309 310 310 310 310 310 311 310 309 311 311 311 312 312 311 311 312 313 313 312 312 312 313 314 314 314 314 314 313 311 312 313 310 309 308
307 306 304 306 305 306 306 308 307 308 308 310 310 308 308 308 308 309 311 310 310 310 310 310 311 311 311 311 312 312 313 313 313 313 313 313 312 311 311 312 310 310 309 308
308 307 305 304 304 303 305 303 305 307 307 306 306 305 305 306 309 309 310 310 309 309 309 309 309 309 309 309 310 312 313 313 313 312 312 312 312 311 310 310 310 309 308 308
304 305 306 306 305 304 307 307 307 307 306 307 307 307 309 310 309 308 309 309 309 309 309 308 309 309 308 308 309 311 312 313 313 312 312 311 310 310 310 310 309 308 308 307
303 302 306 303 307 308 304 307 307 304 305 304 308 307 307 309 306 303 308 310 310 309 309 309 310 309 309 309 309 310 311 313 313 313 312 311 311 310 310 309 309 308 307 306
305 304 305 306 306 306 304 305 306 307 303 304 305 306 305 305 306 307 308 309 309 309 309 309 310 310 309 308 308 309 310 313 314 314 312 311 310 310 309 309 308 307 306 305
305 304 305 303 305 305 305 305 306 303 306 306 306 306 305 306 307 307 307 307 307 307 308 309 309 310 308 308 310 309 309 310 313 314 313 311 310 309 309 308 307 306 305 304
306 303 304 304 304 305 306 304 305 304 304 304 304 305 305 305 305 306 306 306 308 308 308 309 309 309 308 309 311 313 311 310 311 312 312 311 310 309 308 307 306 305 304 304
304 303 303 304 303 304 304 306 303 302 301 302 302 301 301 302 303 304 304 305 306 308 307 308 308 309 309 308 310 311 312 311 311 311 310 309 309 308 307 306 305 304 303 303
302 303 303 302 303 303 305 303 301 299 299 298 298 298 298 299 300 302 303 304 304 306 307 308 308 308 308 308 308 309 310 310 310 310 310 308 307 306 306 305 304 303 303 302
302 302 301 301 303 303 303 300 298 298 297 297 297 297 297 297 298 299 300 303 303 304 305 306 307 307 308 307 307 307 307 308 308 307 308 307 307 305 304 303 303 303 303 302

GFSCGP_850_thetae_096.txt.gz
Theta_e
305 306 308 306 308 307 310 314 316 317 318 316 316 314 315 318 319 319 320 323 327 332 332 332 333 333 334 334 332 331 329 330 329 329 331 327 326 329 336 335 335 335 335 334
307 309 308 307 310 310 311 314 317 319 316 316 317 316 315 315 318 319 320 321 322 327 331 332 331 330 332 334 334 334 331 330 330 329 329 331 328 329 335 335 335 335 335 334
308 309 308 309 310 314 312 315 318 319 317 318 318 318 316 315 316 319 319 321 321 322 324 323 327 330 332 331 334 334 334 334 333 330 331 329 331 332 334 334 331 335 336 335
310 309 308 308 313 314 315 314 317 318 319 322 318 319 318 316 316 316 318 319 321 322 322 323 323 323 328 331 331 333 334 334 334 334 334 333 333 333 333 330 331 335 335 334
313 311 311 312 315 313 316 316 317 317 319 320 320 320 318 315 316 314 314 317 321 322 322 321 321 322 322 323 327 331 331 331 331 332 332 332 333 333 333 332 333 334 334 333
310 304 308 313 314 315 314 315 315 316 316 317 319 318 318 314 314 314 313 315 319 321 322 321 321 321 321 321 322 322 323 328 330 330 331 332 332 332 332 331 331 332 332 333
312 314 313 312 314 315 314 312 314 315 317 316 317 317 316 314 311 312 310 313 316 318 319 320 320 320 320 320 320 320 322 321 327 326 328 329 329 330 331 331 331 331 331 332
304 313 314 313 315 317 315 313 312 318 317 314 315 318 314 310 308 309 311 312 313 314 315 317 318 319 320 319 319 320 320 321 321 324 326 327 328 329 329 329 329 330 330 330
309 315 311 312 313 314 315 310 309 308 307 311 314 311 308 309 309 308 308 310 311 312 313 314 315 317 318 318 318 318 319 319 320 320 322 325 327 328 327 328 328 329 329 327
309 315 311 313 313 313 312 310 311 307 311 312 310 310 311 307 309 308 307 308 310 311 312 313 313 314 315 316 316 318 318 318 318 319 321 322 320 320 322 324 328 328 326 323
307 307 311 310 312 314 311 312 309 308 307 311 311 310 306 306 305 308 307 310 311 311 311 311 311 312 314 317 316 317 318 318 318 318 318 317 317 317 320 326 326 324 322 320
308 306 310 313 310 311 312 313 307 308 310 302 305 309 304 305 307 308 309 311 312 312 312 312 312 312 312 312 317 317 317 317 317 317 317 316 315 315 318 320 319 317 316 315
308 305 302 306 307 308 311 312 308 305 304 305 305 307 305 306 307 309 310 311 312 312 312 312 312 312 312 312 312 315 317 317 317 316 316 315 315 315 316 316 314 313 313 315
307 304 305 304 307 308 312 312 311 307 304 308 306 309 309 307 307 307 309 311 311 312 313 313 313 312 312 312 312 312 312 314 316 316 315 315 315 315 315 314 313 315 316 316
305 307 302 307 309 308 311 311 310 304 309 308 310 309 309 308 308 309 310 310 311 312 312 312 312 312 312 312 312 312 312 312 312 313 314 315 314 314 314 313 313 314 314 313
304 305 302 305 305 307 309 308 308 309 310 309 309 309 308 309 309 309 310 310 310 311 311 310 310 311 311 311 312 312 312 312 312 312 313 314 314 314 313 313 312 311 312 314
306 305 304 305 304 305 305 307 307 307 307 309 310 307 304 304 305 307 308 309 309 310 310 310 309 309 309 310 310 311 311 312 312 312 312 313 314 314 313 312 310 310 312 310
306 305 304 303 302 301 303 303 304 306 305 306 306 305 305 306 309 309 308 309 309 309 309 309 309 308 308 308 308 309 309 310 311 312 312 313 313 313 312 311 310 311 310 310
303 303 305 305 303 303 306 306 306 306 306 303 306 305 305 306 308 308 307 307 307 308 309 309 308 308 309 309 309 309 308 309 311 312 312 312 312 312 311 311 310 309 309 309
302 301 303 303 306 307 303 306 306 303 304 302 303 303 303 305 304 303 306 306 307 307 308 308 307 308 309 309 309 308 308 308 309 311 312 312 311 311 311 310 309 309 309 308
304 303 305 306 305 304 303 304 305 307 303 303 304 304 304 302 304 305 305 305 305 306 307 307 307 307 309 309 309 308 308 308 309 310 312 312 311 311 310 309 309 309 308 307
305 303 304 303 305 304 304 304 306 303 304 303 303 303 303 302 302 302 302 302 303 303 304 306 307 307 308 309 308 308 309 309 309 309 312 312 311 310 309 308 308 307 307 307
305 302 303 302 303 303 305 304 303 302 300 301 300 299 298 298 299 298 299 300 302 302 302 302 304 307 308 308 308 308 310 312 311 309 311 312 311 310 309 308 308 307 306 306
303 301 302 303 301 304 304 304 302 299 298 297 296 297 297 297 297 297 297 297 298 299 300 302 303 305 307 307 308 308 310 311 310 309 310 311 310 309 308 308 307 307 306 305
301 301 301 301 301 303 304 302 299 297 297 295 296 296 296 297 297 297 297 298 299 300 301 301 303 304 306 306 307 307 308 310 309 308 309 310 309 308 307 307 306 305 305 303
301 301 301 302 302 302 302 301 297 295 295 295 296 296 296 295 295 295 296 297 299 300 301 301 301 303 305 305 306 306 307 308 309 308 308 309 309 308 307 306 304 304 303 302

GFSCGP_850_thetae_099.txt.gz
Theta_e
305 305 307 305 306 307 310 309 311 315 317 315 315 314 313 313 313 315 319 320 329 331 328 326 327 332 330 329 329 327 328 328 326 327 329 327 328 331 332 333 333 335 335 334
305 308 307 306 306 307 307 310 315 316 316 316 316 317 315 314 314 315 318 320 325 329 331 327 324 328 332 329 328 329 329 329 327 327 328 327 329 327 331 331 332 335 335 335
306 308 308 308 308 309 306 312 316 316 317 316 317 318 317 316 316 315 317 318 320 324 328 330 331 331 331 330 330 330 329 331 328 329 329 328 329 329 330 329 329 332 333 332
308 307 310 308 309 311 313 313 316 317 319 322 318 320 318 317 317 316 315 318 320 320 321 325 329 331 330 329 329 328 331 331 330 329 331 331 329 329 328 328 330 331 333 331
312 311 308 312 312 313 313 315 316 317 319 319 319 319 318 315 319 318 315 317 320 321 321 321 322 322 324 330 330 329 329 330 332 332 332 333 333 332 331 328 327 331 332 332
307 306 309 313 313 312 314 315 315 316 316 319 319 317 316 318 317 315 313 315 319 321 321 321 321 321 321 321 322 325 329 330 330 331 330 331 331 332 331 331 331 331 331 331
311 311 312 312 316 314 313 312 316 316 317 318 312 317 316 313 314 312 312 311 313 321 320 321 321 321 321 320 320 321 321 322 323 329 330 330 331 330 330 331 331 330 330 330
313 317 313 313 315 316 314 311 313 317 318 316 315 317 315 308 308 308 309 310 312 315 320 319 319 319 320 320 319 319 319 320 321 321 327 325 326 327 329 329 330 330 330 330
314 315 312 313 313 314 314 311 309 309 308 315 312 312 308 308 308 307 307 308 309 312 314 315 315 316 317 318 319 318 319 318 319 320 320 323 323 325 328 328 329 329 329 329
309 317 312 312 313 313 312 309 311 310 313 312 311 310 311 308 307 307 308 307 309 311 312 313 313 313 315 315 316 317 318 318 318 318 319 321 323 324 322 321 323 325 328 329
306 309 312 311 312 314 314 313 308 307 307 312 311 311 306 306 305 307 308 309 310 311 311 311 311 311 312 316 316 316 316 317 318 318 318 319 319 318 317 318 320 327 328 326
307 307 311 312 309 309 311 312 306 310 311 303 307 310 304 306 307 308 309 310 311 311 312 312 312 312 312 311 315 317 317 317 317 317 317 317 317 317 316 317 323 326 324 323
307 305 305 308 307 308 310 310 306 305 305 306 309 310 305 306 307 307 308 311 311 311 312 312 312 312 312 312 311 312 316 317 317 317 317 317 316 316 315 316 321 322 319 316
306 304 304 304 307 307 311 311 309 306 307 309 307 309 308 307 307 308 309 309 310 311 312 311 311 311 311 312 312 312 312 312 314 316 316 316 316 315 315 316 317 316 315 313
305 306 301 305 307 307 310 310 310 304 308 309 309 309 309 307 306 307 307 308 309 310 310 311 310 310 310 310 311 312 312 312 312 312 312 313 315 315 314 315 315 314 312 313
303 305 301 305 305 305 309 307 307 309 309 310 309 310 306 305 307 308 308 308 308 308 308 308 309 309 309 308 309 309 310 312 312 312 312 312 314 314 314 314 314 313 312 313
305 304 304 306 304 305 306 306 307 307 307 308 309 306 304 305 306 307 305 306 306 307 308 309 309 308 308 308 308 308 308 308 309 310 312 312 313 314 314 314 313 312 313 311
305 304 304 303 301 301 303 302 304 305 302 303 305 304 304 304 306 305 306 307 307 307 307 308 308 308 307 307 308 309 309 309 308 308 309 312 313 313 313 313 312 311 309 311
302 303 304 305 303 301 305 305 305 306 304 302 304 303 303 304 306 305 306 306 306 306 306 306 307 307 307 307 307 308 309 309 308 308 308 310 312 312 313 312 312 310 309 310
302 300 304 303 305 305 301 305 305 303 304 302 303 302 302 303 304 303 304 301 300 301 302 304 305 305 307 307 307 308 309 309 309 308 308 308 310 312 312 312 311 310 309 309
304 302 305 306 303 304 301 303 304 307 302 303 303 302 302 302 302 301 298 298 297 298 298 300 301 302 302 305 307 307 308 309 309 308 308 308 309 311 311 311 310 310 308 308
304 303 304 303 305 303 304 303 304 302 302 301 301 298 298 297 297 296 296 297 297 297 297 298 298 299 301 302 304 307 308 309 309 309 310 308 309 311 311 310 310 308 307 307
304 301 303 303 303 302 304 303 303 301 299 299 297 296 296 296 296 296 296 297 297 297 297 298 299 300 300 302 303 305 308 308 308 309 311 309 309 311 311 310 308 307 307 307
301 300 301 302 300 302 303 303 302 299 297 296 295 296 296 296 296 296 295 295 295 297 299 298 300 300 300 301 303 304 307 307 307 310 311 309 309 311 310 309 308 308 307 307
300 300 300 300 300 302 302 303 301 297 295 295 295 294 295 296 295 295 295 295 296 296 297 298 299 299 300 300 302 303 305 306 307 310 309 308 309 310 309 308 308 307 307 306
300 300 302 302 302 302 302 303 299 295 295 295 294 294 293 294 294 294 295 295 295 296 297 298 298 298 298 300 301 303 304 305 306 309 308 307 308 308 308 308 306 305 304 304

GFSCGP_850_thetae_102.txt.gz
Theta_e
304 306 308 307 308 308 308 307 308 311 311 314 315 316 316 316 316 316 316 318 322 327 330 330 330 332 330 328 326 326 328 327 327 327 327 331 334 334 333 332 331 333 334 334
306 307 307 307 307 307 309 310 311 314 315 315 317 318 317 317 316 315 316 318 321 328 330 330 329 326 331 330 330 329 328 327 327 329 328 328 331 331 332 332 333 332 333 334
307 307 305 308 306 307 309 310 312 316 317 317 318 319 319 318 316 316 317 317 319 324 329 327 325 322 325 329 329 328 328 328 327 326 328 329 328 329 330 328 329 330 329 329
308 307 308 309 308 308 310 309 313 316 319 322 319 322 319 319 318 318 317 318 320 322 326 327 326 326 324 325 325 327 326 326 326 325 327 328 329 329 328 328 328 328 330 330
311 309 308 309 310 310 312 311 316 318 319 320 319 320 318 317 320 319 318 318 319 320 321 325 327 328 328 329 328 326 328 325 326 330 329 328 329 330 329 328 327 327 328 327
309 308 310 313 312 311 314 315 316 317 318 321 318 319 320 319 318 318 317 318 317 320 321 320 320 321 322 327 328 329 329 329 329 330 327 328 328 329 328 330 329 328 327 327
311 313 312 313 315 315 316 318 320 319 321 319 317 319 316 315 316 315 315 313 312 319 319 319 319 319 319 318 321 325 327 330 329 330 330 330 330 330 330 330 331 330 329 330
317 318 314 314 316 316 316 315 318 318 318 319 318 322 316 312 310 310 309 310 312 313 314 318 319 319 318 319 319 319 320 320 323 326 328 328 329 330 330 330 329 330 330 330
316 317 313 314 315 316 316 316 311 315 316 319 315 313 312 312 311 311 310 311 311 312 314 314 315 316 317 317 318 319 319 319 319 320 320 323 327 326 327 328 329 329 329 329
312 319 313 312 314 315 315 311 316 317 319 317 314 314 315 312 311 312 312 311 311 311 311 312 312 313 315 315 316 317 318 318 318 318 319 319 320 324 324 326 327 327 328 329
310 315 315 314 316 316 317 315 312 312 313 315 315 315 311 311 310 313 312 311 311 311 311 311 311 311 311 314 317 315 315 316 317 317 318 319 321 323 322 320 319 320 322 327
310 314 317 316 312 311 313 314 312 317 314 311 315 315 311 311 312 312 312 311 311 311 312 312 312 312 312 311 312 317 316 316 317 317 317 318 319 318 317 317 317 319 323 327
310 312 317 316 313 312 315 314 313 311 314 313 316 315 310 311 312 311 311 311 311 311 311 310 311 311 311 311 311 312 314 316 317 317 317 317 317 317 317 316 317 320 325 327
309 310 311 314 313 312 314 314 313 313 321 314 315 313 313 312 311 310 309 310 310 310 310 309 309 310 310 311 311 311 311 312 314 316 316 316 316 316 315 315 316 322 325 324
311 312 309 310 310 311 313 313 313 314 312 316 313 313 310 309 310 309 309 309 309 309 309 309 309 309 308 309 309 310 311 312 312 312 313 314 315 315 315 315 316 318 320 319
309 312 309 311 309 310 311 310 310 312 312 313 313 312 309 309 309 308 308 308 308 308 308 308 308 308 308 308 308 308 308 309 309 311 312 312 313 314 314 314 315 316 316 315
310 311 311 313 308 308 311 308 309 310 310 310 311 310 309 309 308 307 308 307 307 307 307 307 307 307 307 307 307 307 308 308 308 309 309 311 312 313 313 314 314 314 314 313
310 310 310 312 307 310 307 305 306 307 307 307 308 308 307 307 306 307 306 306 304 304 303 304 305 305 306 306 307 307 307 307 308 309 309 308 309 311 313 313 313 313 312 312
308 309 310 310 308 306 307 307 307 308 308 306 307 307 306 305 305 307 305 303 300 300 300 300 301 302 302 303 304 305 306 307 307 308 309 309 308 308 311 313 313 313 312 311
307 308 310 310 309 306 308 307 305 305 309 306 305 304 304 303 308 307 301 299 298 298 298 298 299 300 301 300 301 302 303 304 306 307 309 309 308 308 308 311 312 312 312 311
310 310 311 310 310 308 306 305 305 309 307 305 303 302 301 301 300 299 298 298 298 298 298 298 298 299 299 299 300 301 302 303 304 307 307 308 308 308 308 309 312 312 311 310
309 310 310 309 311 309 305 305 308 306 304 302 302 300 298 298 297 297 298 297 297 297 297 297 298 299 299 300 300 301 301 302 303 305 307 307 308 309 308 308 311 311 311 309
308 307 308 309 309 305 305 305 304 303 302 301 298 297 296 297 297 297 297 297 296 296 296 296 296 297 298 298 300 301 300 302 302 303 306 307 307 309 308 308 310 310 309 307
304 302 306 306 305 305 305 303 303 301 299 297 295 295 295 296 296 297 297 296 296 296 296 296 296 297 298 298 298 298 298 301 301 302 304 305 307 308 308 308 309 310 309 307
305 303 306 306 304 303 303 303 303 301 297 295 294 295 295 295 295 295 295 295 294 294 294 294 295 296 296 296 298 298 298 299 300 303 303 305 307 307 306 307 309 309 309 309
303 307 307 308 307 306 305 303 303 300 296 295 294 295 294 294 294 293 294 293 293 293 293 293 294 294 296 297 297 300 301 301 302 303 304 305 306 305 305 306 307 307 307 306

GFSCGP_850_thetae_105.txt.gz
Theta_e
305 306 307 306 307 308 309 308 307 307 306 311 312 314 315 316 317 317 317 318 320 322 325 327 327 329 331 328 330 327 328 327 331 332 334 332 329 329 327 324 324 328 329 332
306 307 306 308 308 310 311 309 309 309 309 311 313 315 314 316 316 316 317 317 319 322 328 328 327 330 329 329 328 330 329 329 331 330 330 334 335 334 332 329 326 326 328 332
308 308 307 308 309 309 309 310 310 312 312 313 313 316 318 318 317 316 317 316 319 321 329 328 326 327 326 324 329 328 329 329 328 328 330 330 331 331 334 335 333 333 332 332
309 307 308 309 309 308 309 309 309 314 315 318 317 319 319 319 319 318 317 319 321 322 326 326 323 323 323 323 329 327 326 326 327 327 328 329 330 329 329 329 330 330 330 330
312 309 309 311 309 308 311 312 311 316 318 321 321 323 319 319 320 320 320 319 321 321 325 325 326 325 326 324 328 328 325 325 326 327 327 327 328 328 328 329 329 329 329 328
309 308 309 311 312 310 311 313 314 317 319 320 319 321 322 317 318 320 317 320 321 321 324 323 324 323 324 326 325 324 324 324 325 324 325 325 326 325 327 327 329 330 329 328
313 313 312 313 314 311 310 317 322 322 322 320 319 320 320 313 312 315 315 312 319 320 323 324 324 325 324 325 326 327 325 325 326 325 325 324 324 324 325 324 325 327 328 328
318 316 312 314 316 317 312 317 320 323 322 321 318 319 317 314 312 311 311 312 314 317 317 317 317 317 318 319 323 326 327 327 327 328 328 328 328 329 329 329 329 327 328 329
318 318 314 315 316 316 317 316 312 318 317 319 318 315 315 313 313 313 313 312 313 314 316 315 314 315 316 316 318 319 319 320 321 323 327 329 329 328 329 329 329 329 330 329
315 317 315 316 316 317 314 312 318 321 320 318 318 318 317 314 313 313 313 312 312 312 312 312 312 313 315 315 315 316 317 317 317 318 319 320 320 323 327 327 327 327 327 328
313 317 317 316 317 316 317 317 315 314 315 316 317 316 312 312 314 314 313 313 312 312 312 312 311 312 312 313 316 315 315 314 316 316 317 318 319 320 323 325 325 325 327 326
312 316 318 317 314 312 314 315 315 320 315 316 316 315 313 313 313 313 313 312 312 312 312 311 311 311 311 311 311 313 316 316 315 316 316 318 320 321 323 323 322 320 320 320
311 314 318 317 316 314 315 314 314 314 319 316 318 315 313 314 313 312 312 312 312 312 312 312 311 311 310 310 311 311 311 312 316 316 317 318 319 320 319 318 317 318 319 320
311 313 315 318 316 314 315 314 314 317 323 317 315 315 313 311 312 311 311 311 311 311 311 311 311 310 310 310 309 310 310 311 311 312 314 316 316 316 316 316 316 317 319 322
314 314 312 312 312 313 313 313 314 315 315 317 315 313 312 311 311 310 310 310 310 310 309 309 309 309 309 309 309 308 308 309 309 310 311 312 313 315 315 315 315 316 319 325
312 313 311 312 311 312 311 311 313 313 314 314 314 312 311 310 309 309 309 309 309 308 308 308 308 308 308 308 308 308 308 308 307 308 308 309 310 312 313 314 315 315 317 322
312 313 314 314 310 310 313 310 311 311 310 312 313 312 310 310 309 309 309 308 306 305 304 304 305 305 306 306 307 307 307 307 307 307 307 308 308 309 310 312 313 314 314 316
311 312 312 313 310 313 310 308 308 309 309 310 310 310 309 308 308 308 308 307 304 301 300 300 300 301 301 301 302 303 304 305 306 307 307 307 308 309 308 309 311 312 313 314
310 311 311 312 309 309 308 307 308 309 310 309 310 309 308 306 306 309 307 303 300 299 299 300 300 300 300 300 301 301 301 302 303 304 305 306 307 308 308 308 308 311 313 313
310 310 311 310 310 308 310 308 308 308 310 308 308 307 306 305 307 307 301 299 299 300 300 300 300 300 300 300 301 301 301 301 301 302 302 303 304 306 307 307 307 308 311 313
311 311 312 311 312 310 309 308 307 310 311 307 307 305 304 304 302 300 298 299 299 299 299 298 298 297 298 298 298 299 299 300 300 301 301 302 303 304 307 307 307 307 308 311
310 310 311 311 311 311 307 307 309 309 307 306 305 303 301 299 298 298 299 299 299 298 298 298 297 297 297 297 297 298 298 299 300 300 300 301 302 303 305 307 307 307 306 309
309 309 310 310 311 307 307 308 306 307 306 304 303 300 298 298 298 298 298 298 298 298 297 296 295 295 295 295 296 296 296 297 297 298 299 300 302 303 304 305 307 306 305 306
308 306 308 308 308 307 307 306 305 304 304 301 298 296 297 297 297 297 297 297 297 296 295 294 294 294 294 295 295 294 295 297 298 299 298 300 301 302 303 304 304 305 305 304
308 306 308 308 308 305 306 307 305 303 301 299 296 295 296 297 296 296 296 295 295 294 294 293 293 293 293 292 294 294 295 297 298 299 300 300 300 302 303 303 305 304 304 305
306 307 308 308 309 308 308 306 305 303 301 298 296 296 296 295 296 295 295 294 294 293 292 292 292 292 292 292 293 294 294 296 297 298 299 299 301 301 303 303 302 302 302 303

GFSCGP_850_thetae_108.txt.gz
Theta_e
305 306 305 305 306 305 306 308 308 308 308 307 305 309 309 314 317 317 318 318 318 319 321 322 324 326 328 330 329 328 328 327 322 325 328 331 333 334 334 336 334 334 334 331
307 307 306 306 307 308 309 309 309 309 309 308 307 309 311 312 314 317 317 318 318 319 321 327 325 327 328 330 329 328 330 324 323 324 323 323 326 328 329 329 330 331 332 332
309 308 308 308 308 308 309 309 309 310 310 309 310 311 313 313 314 315 316 317 317 318 323 327 327 327 327 326 326 328 329 326 326 325 327 327 327 332 332 330 327 326 326 327
309 307 308 308 308 308 309 309 309 310 311 314 311 313 314 316 318 317 316 317 318 321 325 325 323 323 325 325 324 326 329 326 328 329 328 329 329 329 330 330 330 331 332 332
311 310 308 307 309 309 308 309 314 310 314 314 315 317 318 318 319 318 318 319 321 321 325 324 323 323 322 322 325 328 328 327 326 327 327 328 328 328 328 329 329 329 330 330
309 309 309 310 312 312 311 312 313 310 313 320 319 320 319 316 314 318 316 320 321 323 325 324 322 321 321 323 324 327 327 326 326 324 326 325 325 325 327 326 328 329 329 329
313 312 311 312 314 312 311 313 319 321 321 323 318 319 316 315 312 314 314 316 321 324 325 323 321 321 323 325 321 322 322 323 322 323 325 323 324 324 325 326 324 327 327 328
315 311 313 315 313 313 314 316 319 322 323 323 317 318 317 313 313 314 313 314 320 321 324 324 324 324 324 324 325 325 325 325 324 323 323 324 323 324 325 324 325 325 325 325
318 316 314 314 315 316 317 316 313 319 317 319 320 316 315 312 312 313 314 316 317 317 316 315 315 316 316 317 317 319 324 326 326 326 326 326 327 326 325 324 328 326 327 326
314 317 315 316 316 316 316 313 316 317 322 321 320 316 317 313 311 313 312 312 312 312 312 312 313 314 315 315 315 315 316 317 318 321 323 325 327 327 328 327 326 328 328 328
313 316 316 316 316 315 316 315 314 313 314 315 318 317 314 313 312 312 312 312 311 311 311 311 311 311 311 313 315 315 315 315 315 316 317 319 322 325 323 323 326 327 327 326
312 314 316 317 314 312 313 313 313 313 317 313 314 316 312 311 311 312 312 312 312 312 311 311 310 310 310 310 311 311 312 315 316 315 316 317 319 320 321 325 325 325 325 324
311 312 313 316 314 313 314 313 313 314 315 313 313 315 312 309 310 311 311 311 311 311 311 310 310 310 310 310 310 309 310 310 311 312 315 316 317 318 320 321 322 321 320 320
311 312 313 311 314 314 313 313 313 314 312 314 313 312 310 309 310 310 310 310 310 309 309 309 309 309 309 309 309 308 308 308 308 309 310 311 314 315 316 317 317 317 317 317
312 312 308 311 312 312 311 312 312 311 313 312 311 311 310 308 308 309 309 309 308 307 307 306 307 307 307 308 308 308 307 308 307 307 307 308 309 310 312 314 315 316 316 316
311 311 311 311 310 311 309 310 311 311 312 311 311 311 309 309 309 309 309 307 306 304 303 302 302 302 302 303 303 303 304 306 306 307 307 307 307 308 308 310 312 313 314 315
311 311 311 313 310 309 311 308 309 309 309 311 312 310 308 308 309 309 309 307 305 303 302 299 299 299 298 299 299 299 300 300 301 301 303 305 306 307 308 308 308 311 312 313
310 311 310 308 308 308 309 307 308 308 309 309 309 309 308 308 308 308 309 307 304 302 299 298 299 299 299 299 300 300 300 300 300 300 300 301 303 304 306 307 308 308 310 312
308 309 308 309 307 308 308 307 308 309 309 308 308 308 308 307 306 307 306 301 299 299 299 299 299 300 300 300 300 300 301 301 301 301 301 301 301 302 304 305 306 307 308 308
309 308 308 308 309 308 309 307 308 307 308 307 308 307 306 304 303 301 299 298 299 299 299 299 298 298 298 297 297 298 298 298 299 300 300 300 300 301 301 302 305 306 307 308
309 308 308 309 308 309 308 307 307 309 309 307 307 306 304 302 301 300 297 298 298 298 298 298 298 297 297 296 296 296 296 297 297 297 297 299 300 300 300 301 301 303 305 307
308 307 308 308 309 307 307 307 307 307 307 307 306 304 302 300 298 297 298 297 298 298 298 297 297 296 295 294 294 295 295 295 295 296 297 297 299 300 300 299 301 302 304 306
306 306 308 307 309 307 307 307 307 307 306 305 305 303 300 297 296 297 297 297 297 297 296 296 295 295 294 294 293 293 294 293 294 294 296 298 299 299 299 299 301 302 303 305
306 306 305 306 306 306 307 307 307 306 305 305 303 301 297 295 296 297 296 296 296 295 294 294 293 294 293 292 293 292 293 293 292 294 295 296 298 299 299 299 300 301 302 304
305 305 305 305 305 306 306 307 307 305 304 303 302 298 296 296 296 296 296 295 294 294 293 293 292 291 292 292 292 293 293 293 293 294 294 295 296 298 299 300 300 301 301 303
305 304 304 304 307 306 307 306 307 305 304 303 300 297 296 296 295 295 295 294 294 294 293 293 292 291 291 291 291 290 292 292 292 292 293 294 295 296 297 299 301 301 302 303

GFSCGP_850_thetae_111.txt.gz
Theta_e
305 304 303 303 304 304 304 305 305 305 307 308 307 307 306 306 308 308 310 307 315 317 318 319 320 319 323 327 328 327 329 328 334 333 333 330 329 328 329 328 329 330 325 325
304 306 305 305 305 305 307 308 308 307 307 308 308 308 307 307 308 308 311 314 317 318 318 318 319 322 324 326 327 328 329 328 330 332 330 330 330 331 332 331 329 327 329 330
306 306 307 307 308 308 307 307 308 306 308 308 308 307 307 307 308 309 311 315 317 317 318 319 323 326 327 326 326 328 329 328 327 328 328 329 330 330 330 330 333 333 333 333
307 307 307 309 309 308 308 307 310 311 309 306 308 311 310 309 309 311 312 315 316 317 318 323 323 324 324 325 326 325 324 325 324 323 321 322 322 325 326 327 330 331 329 332
310 309 310 307 307 307 308 308 309 310 312 311 311 313 316 315 316 315 314 315 316 319 320 322 323 323 322 322 323 324 324 326 323 323 325 326 325 326 324 324 326 326 328 329
308 309 309 309 310 311 312 311 312 311 312 314 315 314 317 314 314 313 315 317 319 320 323 323 322 321 323 322 323 325 325 328 325 326 326 327 327 326 327 327 327 328 329 329
312 311 309 310 313 313 312 312 316 315 314 320 315 316 315 312 314 314 314 313 321 323 324 322 322 321 322 321 322 325 326 327 325 327 327 327 326 325 325 326 325 326 326 328
313 307 312 314 313 312 312 314 318 321 320 321 316 317 314 311 313 314 314 316 319 321 322 322 322 323 323 324 324 323 323 326 325 324 325 325 326 324 324 324 323 324 324 324
314 312 313 313 314 315 317 318 313 318 318 316 317 315 313 309 312 314 316 314 313 314 314 315 315 315 316 317 317 322 325 324 323 324 324 323 323 323 323 323 322 324 324 323
313 315 314 315 315 315 317 314 316 315 320 321 317 316 315 310 311 312 313 312 312 312 312 313 314 315 315 315 315 315 316 319 324 324 325 324 323 324 325 325 326 324 324 325
311 315 313 314 314 314 313 314 313 312 313 318 318 318 307 309 313 312 310 311 311 310 310 310 310 310 311 312 314 315 315 315 315 316 317 319 321 323 323 324 325 326 326 326
310 312 309 315 312 311 311 312 311 311 315 312 313 315 312 311 311 311 310 310 310 310 310 310 309 309 309 309 309 309 310 311 314 315 316 317 320 321 321 321 320 319 320 323
309 309 307 309 308 308 312 311 312 312 309 310 311 316 310 309 309 309 309 309 309 309 309 309 309 309 308 308 308 308 308 308 308 309 310 312 315 316 317 319 320 321 322 322
310 309 309 308 310 311 310 311 310 309 307 311 310 309 308 308 308 308 308 308 307 306 305 305 305 306 306 307 307 307 307 307 308 308 308 308 309 310 311 313 315 315 316 316
309 309 305 310 311 311 308 310 310 307 310 307 309 309 307 307 306 307 308 306 304 303 301 300 300 300 300 300 300 300 300 302 304 305 306 307 307 307 308 309 310 311 313 314
307 308 309 310 309 308 308 307 309 310 310 309 309 309 306 307 308 308 306 305 303 302 301 299 298 298 298 299 299 299 299 299 299 299 299 300 302 305 306 307 307 308 309 312
308 307 306 310 309 308 308 308 308 308 308 309 310 308 306 307 307 307 307 305 303 301 300 298 299 299 299 299 299 300 300 300 300 300 300 300 300 300 300 302 304 306 307 308
308 307 306 303 304 304 307 306 307 307 309 308 307 307 307 307 307 306 305 304 305 303 298 298 298 299 299 298 298 298 299 299 299 299 299 299 299 300 300 300 301 302 304 306
305 306 306 306 304 305 307 306 307 307 307 307 307 307 307 306 305 303 303 305 305 303 297 297 298 298 298 298 298 298 299 299 299 298 299 299 299 298 298 299 300 301 302 305
307 305 305 305 307 307 306 306 307 305 305 305 307 306 305 304 304 302 302 303 299 297 297 297 297 297 297 297 297 298 298 298 299 299 299 300 299 298 298 298 299 299 300 301
305 305 306 306 304 305 306 306 306 307 305 306 307 306 305 301 301 301 299 297 297 298 297 297 297 297 296 296 296 296 296 296 296 296 297 298 299 299 299 299 299 299 298 300
305 304 305 304 307 305 306 306 304 303 307 307 306 306 304 303 301 297 297 297 297 297 297 296 296 295 294 293 293 294 293 293 294 294 293 295 296 297 298 299 299 300 299 299
305 304 305 304 305 304 307 306 307 307 307 306 306 305 304 301 297 296 297 297 296 296 295 294 293 292 292 292 292 291 291 291 291 292 292 292 294 295 296 297 298 299 299 299
304 304 304 304 303 304 307 307 307 307 306 306 305 304 302 298 295 296 296 296 295 294 294 293 293 292 292 291 291 290 290 290 291 291 290 291 292 292 293 295 297 298 299 300
302 303 303 302 302 305 306 307 307 307 306 305 304 303 299 296 295 295 295 295 294 294 294 293 292 292 292 291 293 292 290 290 290 290 290 289 290 291 291 293 294 295 298 299
303 303 305 303 304 305 306 307 306 307 306 304 304 302 298 296 295 295 294 294 294 294 294 293 292 291 291 291 293 292 291 290 290 290 289 289 289 289 291 291 293 295 296 299

GFSCGP_850_thetae_114.txt.gz
Theta_e
305 302 301 300 303 302 303 303 304 304 305 305 306 306 306 307 306 303 304 305 306 307 308 310 317 318 319 318 318 322 327 327 328 328 331 329 327 331 331 330 330 330 331 331
302 304 302 304 303 304 305 306 306 305 306 306 306 307 307 307 305 305 305 306 306 308 310 317 317 317 317 317 320 325 327 327 328 328 330 329 331 330 330 330 331 330 329 332
305 304 307 306 306 306 306 305 306 305 306 307 307 306 307 306 307 307 307 308 311 312 314 317 317 317 317 321 324 325 327 326 327 328 332 332 330 329 328 325 329 330 331 331
307 305 306 308 308 307 307 306 307 308 311 306 305 305 307 312 310 307 307 307 309 312 316 317 317 320 324 325 326 326 325 324 324 327 328 331 329 329 329 328 328 329 328 328
307 308 308 309 307 307 307 308 309 310 314 312 308 304 311 314 313 311 310 314 313 311 316 317 317 321 322 322 322 324 325 325 323 325 327 330 329 329 329 328 328 327 328 327
307 308 308 309 308 308 309 312 311 312 312 311 311 309 316 314 312 310 311 314 316 315 317 318 321 322 322 322 322 323 326 325 323 325 326 326 325 323 325 325 326 327 327 327
310 310 309 309 311 313 312 311 314 313 312 313 316 315 314 309 309 313 313 313 317 319 319 321 322 321 322 322 323 324 325 325 325 324 326 324 324 321 324 323 324 325 324 325
312 307 311 312 313 311 312 312 317 319 317 318 317 316 313 310 314 315 315 314 315 316 319 320 320 320 319 321 323 323 325 326 325 324 323 326 326 325 325 325 325 326 326 326
312 309 311 312 314 313 317 318 313 317 318 314 317 314 311 309 310 313 313 312 313 314 316 316 315 315 315 315 316 322 323 324 324 324 323 324 326 324 324 324 325 325 324 323
312 314 313 314 314 314 316 314 316 314 319 316 314 315 313 309 308 309 310 312 311 311 311 312 314 314 315 315 315 314 315 321 323 323 323 325 324 324 323 323 322 324 324 323
311 313 313 313 313 313 312 313 312 312 316 317 317 317 308 307 307 310 311 310 309 309 309 309 309 309 308 309 310 312 314 315 316 316 317 322 324 324 324 325 325 325 325 325
309 310 309 312 311 310 310 311 310 311 313 311 314 314 311 311 310 310 309 308 308 308 308 308 308 308 308 308 308 308 308 309 309 311 315 317 318 319 320 321 321 322 321 321
309 308 306 305 306 308 310 309 309 309 306 310 312 314 309 309 308 308 307 307 306 306 306 306 306 306 306 306 306 307 307 307 307 307 308 308 310 312 314 315 316 318 319 321
309 307 307 303 308 309 309 308 308 306 304 309 309 310 308 308 307 306 306 304 302 301 300 299 299 299 299 299 299 300 301 302 304 305 306 307 307 307 308 308 310 312 313 314
307 308 304 308 309 309 307 307 308 307 308 307 308 308 306 306 305 306 305 303 302 301 300 298 298 298 298 299 299 299 299 299 299 299 299 300 301 303 305 306 307 307 308 309
306 307 308 309 307 307 307 307 308 308 309 308 308 309 305 306 307 306 305 303 302 300 299 298 298 298 298 298 298 298 298 298 298 299 299 299 299 300 300 299 299 302 305 306
307 306 305 309 305 306 307 307 308 308 308 307 309 307 305 306 307 307 306 305 303 301 298 297 297 298 298 297 297 297 298 297 297 297 298 298 299 299 299 300 300 300 300 299
307 305 304 303 302 303 305 305 306 306 308 307 307 305 305 306 307 306 306 304 302 300 298 297 297 297 297 297 297 297 297 297 297 297 297 298 298 298 298 298 299 299 300 300
304 303 304 304 303 302 305 305 306 306 305 305 306 305 306 305 304 301 300 300 300 298 297 297 297 297 296 296 297 297 297 297 297 296 297 297 297 297 297 296 296 297 298 298
304 302 304 303 305 305 302 305 306 304 303 304 306 304 304 303 300 299 300 300 300 299 297 297 297 297 297 297 296 296 296 296 296 296 296 297 297 297 297 297 296 296 295 297
304 304 304 304 303 304 302 305 306 303 300 305 307 307 305 302 302 302 302 303 304 300 296 296 296 295 295 295 295 295 295 295 295 296 296 296 296 296 296 296 297 297 296 295
303 304 303 303 305 304 304 304 304 302 306 307 308 308 306 305 303 302 299 296 296 296 296 295 294 294 294 293 293 293 293 293 294 294 294 295 295 294 294 294 295 296 296 295
305 303 303 303 304 303 306 305 307 307 307 307 308 307 306 304 302 298 296 296 296 295 295 294 293 293 292 292 291 290 290 290 290 289 290 290 290 291 292 293 293 293 293 294
302 302 303 304 301 302 307 307 307 307 306 306 306 306 305 304 301 296 295 295 295 294 294 294 293 292 292 291 291 290 290 290 289 288 289 288 288 288 289 290 290 290 292 291
302 302 302 301 301 303 305 307 307 307 306 306 305 305 304 302 297 295 295 295 294 294 294 294 293 292 291 291 290 291 291 290 290 288 288 288 288 288 288 289 288 289 290 291
302 302 303 304 304 304 304 307 306 307 306 306 305 304 302 299 296 295 295 294 294 293 293 293 293 292 291 290 290 290 291 289 289 289 288 288 287 287 287 288 289 291 290 292

GFSCGP_850_thetae_117.txt.gz
Theta_e
304 298 301 300 301 302 302 302 303 303 303 304 305 305 306 306 305 305 305 306 305 306 306 305 305 307 312 318 318 316 316 317 321 325 326 326 326 327 327 327 327 332 332 334
303 303 301 302 302 303 302 305 304 304 304 305 305 306 306 306 306 306 305 305 305 305 305 305 306 309 316 318 316 316 315 317 324 327 327 328 328 327 328 328 327 331 332 332
306 302 306 306 306 307 306 305 306 305 305 305 306 305 305 308 307 305 305 305 305 306 307 311 310 317 317 316 314 313 313 320 325 327 328 327 327 329 330 328 327 334 332 332
306 305 306 306 307 306 306 305 306 307 308 309 307 310 305 309 310 307 308 310 308 307 309 312 316 317 316 315 319 319 324 324 326 326 323 327 328 330 329 328 330 332 332 330
304 307 308 308 308 306 306 307 309 311 312 313 309 309 306 310 310 310 308 311 314 314 311 314 316 317 316 321 322 322 323 325 325 325 324 327 329 329 330 330 331 330 331 330
308 307 308 308 308 307 307 309 311 312 312 310 310 309 310 312 311 310 310 312 316 316 314 316 318 319 321 322 322 323 321 322 324 324 324 327 326 329 329 328 326 326 326 325
310 309 307 308 310 312 311 311 310 308 305 311 314 313 314 310 310 312 314 314 316 318 317 318 319 320 321 321 321 322 323 322 324 325 326 326 328 327 326 327 327 328 327 327
310 308 309 310 312 313 312 312 316 317 317 313 315 315 314 310 310 312 314 314 315 316 316 318 316 318 319 320 318 323 323 325 324 326 325 324 324 324 324 324 322 326 326 326
310 310 309 310 313 313 315 317 314 316 317 311 314 314 311 309 306 310 311 312 312 314 312 311 314 315 315 315 315 320 324 323 324 324 324 324 325 325 323 325 323 322 322 321
310 313 311 313 312 313 315 314 316 312 318 316 314 315 313 309 306 306 307 308 310 309 309 309 309 308 308 311 314 316 317 318 320 322 324 324 324 325 323 323 324 322 322 322
309 311 310 311 312 312 311 312 313 312 315 315 315 315 312 309 307 306 306 307 306 306 306 306 306 307 307 307 308 308 310 313 314 316 319 322 324 324 324 324 323 322 324 325
309 308 308 310 310 309 309 311 309 309 313 310 311 314 312 311 309 309 307 305 304 303 302 303 304 304 304 303 304 305 306 307 307 308 311 316 318 320 321 322 322 322 322 323
308 306 304 305 305 306 309 308 308 307 308 310 311 313 308 309 310 306 304 302 300 299 298 298 298 298 298 299 299 299 299 300 301 303 305 307 308 311 312 313 314 315 316 317
308 305 306 303 307 307 308 306 307 306 303 309 308 311 308 307 306 304 302 300 300 300 298 298 298 298 298 298 299 299 299 299 299 299 299 299 300 301 303 305 306 307 308 309
306 307 304 305 306 307 307 306 306 304 306 307 308 308 306 305 304 305 303 302 301 301 299 297 297 297 298 298 297 298 298 298 298 298 298 298 298 299 299 299 299 300 300 302
304 306 306 308 306 304 306 305 307 308 308 307 306 307 304 306 306 305 304 302 302 301 299 297 297 297 297 297 297 297 297 297 297 297 297 297 298 298 298 298 299 299 299 299
305 305 305 307 303 303 304 305 306 307 307 306 308 306 303 304 304 305 305 304 302 301 299 297 297 297 296 296 296 296 296 296 296 296 296 296 296 296 297 297 297 298 298 299
306 304 303 303 301 299 302 304 305 305 305 305 306 305 304 305 306 306 306 305 303 301 298 297 297 296 296 296 295 295 295 295 295 295 295 295 295 296 296 296 296 296 296 297
303 302 304 302 301 300 303 304 305 306 304 304 305 305 305 305 304 304 303 302 302 300 297 297 296 296 295 295 295 294 294 294 294 295 295 295 295 295 295 295 295 295 295 295
302 301 302 302 304 302 300 304 305 303 302 301 305 304 304 303 302 297 302 301 300 298 296 296 296 295 294 294 294 294 294 294 294 294 294 294 294 294 294 294 294 294 294 294
304 303 304 303 303 302 300 304 304 302 300 303 306 306 305 300 302 302 301 299 297 296 296 296 295 295 295 294 294 294 293 294 294 294 293 293 293 293 293 293 294 292 291 291
303 302 302 302 304 303 303 304 304 301 305 305 306 307 306 305 303 302 300 297 296 296 296 296 296 295 294 293 293 293 292 292 292 292 292 292 292 293 293 293 293 293 291 289
303 302 302 302 302 302 305 305 306 306 307 306 307 307 306 305 304 303 301 298 296 296 295 295 295 294 294 293 292 291 291 291 291 290 290 290 288 290 289 287 287 287 288 290
300 300 302 303 302 300 304 306 307 306 306 306 306 307 307 305 304 304 302 298 296 295 295 294 294 293 293 292 291 290 290 289 290 290 290 289 289 289 290 290 288 287 287 288
302 300 301 300 301 303 305 306 306 307 307 306 306 306 306 305 304 303 300 296 295 294 294 293 293 293 292 291 290 290 289 290 290 289 290 291 290 291 290 290 288 287 289 288
302 302 303 304 304 305 305 306 306 305 306 307 306 305 305 305 304 303 297 295 294 294 293 293 293 292 292 290 290 289 289 289 290 290 290 290 289 289 289 288 290 288 290 290